Darstellungsparameter: Aktuell verwendete Einstellungen:
Skalierung der Graphiken ... ?
xyx+y,   Skalierungsfaktor:      Skalierung: Modus: x, Faktor: 1
Darstellungszeitraum ... ?
Vom - - bis: - -   Zeitraum: 30.11.2018 - 28.12.2018
Min/Max/Avg-Anzeige ... ?
Zeige MMA aktuell
Zeige MMA Monat
Zeige MMA alles
Zeige --A aktuell
Zeige --A Monat
Zeige --A alles
Keine MMA-Anzeige
MMA:
Average (ber die Originaldaten)
MMA-Basis: 30.11.2018 - 28.12.2018
Quicknavigation für Darstellung... ?
Tage:      1T, 2T, 3T, 5T -1T -2T -3T -5T +1T +2T +3T +5T
Wochen: 1W, 2W, 3W -1W -2W -3W +1W +2W +3W
Monate: 1M, 3M, 6M -1M -3M -6M +1M +3M +6M
Jahre:    1J, 3J, 5J, 10J -1J -3J -5J -10J +1J +3J +5J +10J
Nutze für die Darstellung ... ?
Originaldaten oder Mittelwerte auf ...
Stundenbasis Tagesbasis Wochenbasis
Monatsbasis Jahresbasis      Datenbasis: Original-Daten
Darstellen als:
Statistik (Auto) Statistik J:M      Darstellung:
Zur Graphik,    zurück zur Übersicht aller Sensoren.
 
Tabellarische Datenbersicht: ?
 
Sensor: Nr:Datum:Temp:Feuchte:
Aussen-T/F 1 30-11-2018 00:11:18 4.9 C 48 %
2 30-11-2018 00:23:17 4.9 C 48 %
3 30-11-2018 00:35:17 5.1 C 48 %
4 30-11-2018 00:47:17 5.4 C 48 %
5 30-11-2018 00:59:17 5.5 C 47 %
6 30-11-2018 01:11:18 5.8 C 47 %
7 30-11-2018 01:23:17 5.8 C 46 %
8 30-11-2018 01:35:17 5.6 C 46 %
9 30-11-2018 01:47:17 5.5 C 45 %
10 30-11-2018 01:59:17 5.6 C 46 %
11 30-11-2018 02:11:18 5.4 C 46 %
12 30-11-2018 02:23:17 5.4 C 47 %
13 30-11-2018 02:35:17 5.4 C 47 %
14 30-11-2018 02:47:18 5.3 C 47 %
15 30-11-2018 02:59:18 5.4 C 47 %
16 30-11-2018 03:11:18 5.5 C 47 %
17 30-11-2018 03:23:17 5.7 C 46 %
18 30-11-2018 03:35:17 5.7 C 46 %
19 30-11-2018 03:47:17 5.8 C 47 %
20 30-11-2018 03:59:17 5.8 C 48 %
21 30-11-2018 04:11:17 5.7 C 49 %
22 30-11-2018 04:23:18 5.7 C 50 %
23 30-11-2018 04:35:17 5.7 C 50 %
24 30-11-2018 04:47:17 5.7 C 51 %
25 30-11-2018 04:59:17 5.6 C 52 %
Sensor: Nr:Datum:Temp:Feuchte:
Aussen-T/F 26 30-11-2018 05:11:17 5.5 C 52 %
27 30-11-2018 05:23:17 5.4 C 51 %
28 30-11-2018 05:35:18 5.4 C 52 %
29 30-11-2018 05:47:18 5.3 C 52 %
30 30-11-2018 05:59:18 5.4 C 53 %
31 30-11-2018 06:11:17 5.4 C 53 %
32 30-11-2018 06:23:18 5.5 C 53 %
33 30-11-2018 06:35:18 5.5 C 54 %
34 30-11-2018 06:47:18 5.7 C 55 %
35 30-11-2018 06:59:18 5.8 C 56 %
36 30-11-2018 07:11:18 5.8 C 57 %
37 30-11-2018 07:23:17 6 C 57 %
38 30-11-2018 07:35:17 6 C 57 %
39 30-11-2018 07:47:17 5.9 C 58 %
40 30-11-2018 07:59:17 5.8 C 59 %
41 30-11-2018 08:11:17 5.8 C 59 %
42 30-11-2018 08:23:18 5.5 C 57 %
43 30-11-2018 08:35:18 5.4 C 59 %
44 30-11-2018 08:47:18 5.5 C 61 %
45 30-11-2018 08:59:18 5.6 C 63 %
46 30-11-2018 09:11:18 5.9 C 66 %
47 30-11-2018 09:23:17 6 C 66 %
48 30-11-2018 09:35:17 6.2 C 66 %
49 30-11-2018 09:47:17 6.5 C 67 %
50 30-11-2018 09:59:17 6.4 C 63 %
Sensor: Nr:Datum:Temp:Feuchte:
Aussen-T/F 51 30-11-2018 10:11:18 6.7 C 59 %
52 30-11-2018 10:23:17 6.9 C 59 %
53 30-11-2018 10:35:18 6.9 C 54 %
54 30-11-2018 10:47:17 7.1 C 51 %
55 30-11-2018 10:59:18 7.2 C 50 %
56 30-11-2018 11:11:18 7.2 C 49 %
57 30-11-2018 11:23:17 7.5 C 48 %
58 30-11-2018 11:35:18 7.5 C 47 %
59 30-11-2018 11:47:17 7.7 C 46 %
60 30-11-2018 11:59:17 7.7 C 46 %
61 30-11-2018 12:11:18 7.9 C 46 %
62 30-11-2018 12:23:17 8.1 C 46 %
63 30-11-2018 12:35:17 8.1 C 45 %
64 30-11-2018 12:47:17 8.3 C 45 %
65 30-11-2018 12:59:17 8.5 C 45 %
66 30-11-2018 13:11:18 8.7 C 44 %
67 30-11-2018 13:23:17 8.7 C 43 %
68 30-11-2018 13:35:17 8.9 C 43 %
69 30-11-2018 13:47:18 9.3 C 42 %
70 30-11-2018 13:59:18 9.6 C 42 %
71 30-11-2018 14:11:18 9.4 C 41 %
72 30-11-2018 14:23:17 9.2 C 39 %
73 30-11-2018 14:35:18 9.1 C 38 %
74 30-11-2018 14:47:18 9.1 C 37 %
75 30-11-2018 14:59:18 9.1 C 38 %
Sensor: Nr:Datum:Temp:Feuchte:
Aussen-T/F 76 30-11-2018 15:11:18 9 C 38 %
77 30-11-2018 15:23:17 8.9 C 37 %
78 30-11-2018 15:35:18 8.8 C 38 %
79 30-11-2018 15:47:18 8.7 C 39 %
80 30-11-2018 15:59:18 8.6 C 40 %
81 30-11-2018 16:11:18 8.5 C 40 %
82 30-11-2018 16:23:17 8.4 C 40 %
83 30-11-2018 16:35:17 8.4 C 41 %
84 30-11-2018 16:47:17 8.4 C 42 %
85 30-11-2018 16:59:17 8.3 C 41 %
86 30-11-2018 17:11:17 8.3 C 42 %
87 30-11-2018 17:23:17 8.1 C 42 %
88 30-11-2018 17:35:18 8.1 C 44 %
89 30-11-2018 17:47:17 8.3 C 44 %
90 30-11-2018 17:59:17 8.2 C 42 %
91 30-11-2018 18:11:17 7.9 C 43 %
92 30-11-2018 18:23:17 7.4 C 45 %
93 30-11-2018 18:35:17 7.2 C 46 %
94 30-11-2018 18:47:17 7.3 C 48 %
95 30-11-2018 18:59:17 7.6 C 50 %
96 30-11-2018 19:11:17 7.6 C 49 %
97 30-11-2018 19:23:18 7.5 C 49 %
98 30-11-2018 19:35:18 7.5 C 49 %
99 30-11-2018 19:47:18 7.4 C 49 %
100 30-11-2018 19:59:18 6.8 C 49 %
Sensor: Nr:Datum:Temp:Feuchte:
Aussen-T/F 101 30-11-2018 20:11:18 6.1 C 48 %
102 30-11-2018 20:23:17 5.7 C 49 %
103 30-11-2018 20:35:17 5.5 C 52 %
104 30-11-2018 20:47:18 6.2 C 54 %
105 30-11-2018 20:59:18 7.2 C 55 %
106 30-11-2018 21:11:18 7.7 C 50 %
107 30-11-2018 21:23:17 7.9 C 43 %
108 30-11-2018 21:35:17 7.5 C 39 %
109 30-11-2018 21:47:17 6.8 C 40 %
110 30-11-2018 21:59:17 6.4 C 42 %
111 30-11-2018 22:11:17 6 C 44 %
112 30-11-2018 22:23:17 5.6 C 47 %
113 30-11-2018 22:35:17 5.5 C 49 %
114 30-11-2018 22:47:17 5.6 C 50 %
115 30-11-2018 22:59:17 5 C 50 %
116 30-11-2018 23:11:17 4.2 C 50 %
117 30-11-2018 23:23:17 4 C 51 %
118 30-11-2018 23:35:17 3.9 C 52 %
119 30-11-2018 23:47:17 3.6 C 54 %
120 30-11-2018 23:59:17 3.5 C 55 %
121 01-12-2018 00:11:17 3.5 C 55 %
122 01-12-2018 00:23:17 4 C 59 %
123 01-12-2018 00:35:17 4.2 C 61 %
124 01-12-2018 00:47:18 4.5 C 66 %
125 01-12-2018 00:59:18 3.8 C 61 %
Sensor: Nr:Datum:Temp:Feuchte:
Aussen-T/F 126 01-12-2018 01:11:18 3.8 C 64 %
127 01-12-2018 01:23:17 4 C 67 %
128 01-12-2018 01:35:17 4.1 C 69 %
129 01-12-2018 01:47:17 4.6 C 72 %
130 01-12-2018 01:59:17 4.7 C 73 %
131 01-12-2018 02:11:17 4.8 C 73 %
132 01-12-2018 02:23:17 4.7 C 72 %
133 01-12-2018 02:35:17 4.8 C 72 %
134 01-12-2018 02:47:17 4.4 C 69 %
135 01-12-2018 02:59:17 4.3 C 69 %
136 01-12-2018 03:11:17 3.8 C 67 %
137 01-12-2018 03:23:17 3.7 C 69 %
138 01-12-2018 03:35:17 4 C 71 %
139 01-12-2018 03:47:17 4 C 71 %
140 01-12-2018 03:59:17 4.4 C 72 %
141 01-12-2018 04:11:18 3.7 C 69 %
142 01-12-2018 04:23:17 3.6 C 69 %
143 01-12-2018 04:35:18 3.6 C 71 %
144 01-12-2018 04:47:18 3.7 C 72 %
145 01-12-2018 04:59:18 3.8 C 73 %
146 01-12-2018 05:11:18 4 C 72 %
147 01-12-2018 05:23:17 4.3 C 72 %
148 01-12-2018 05:35:18 4.3 C 73 %
149 01-12-2018 05:47:17 4.3 C 72 %
150 01-12-2018 05:59:17 4.6 C 72 %
Sensor: Nr:Datum:Temp:Feuchte:
Aussen-T/F 151 01-12-2018 06:11:17 4.7 C 72 %
152 01-12-2018 06:23:17 4.9 C 72 %
153 01-12-2018 06:35:17 5 C 70 %
154 01-12-2018 06:47:17 4.9 C 70 %
155 01-12-2018 06:59:17 4.8 C 69 %
156 01-12-2018 07:11:17 4.9 C 69 %
157 01-12-2018 07:23:18 5.4 C 69 %
158 01-12-2018 07:35:18 5.9 C 70 %
159 01-12-2018 07:47:18 5.9 C 63 %
160 01-12-2018 07:59:18 5.5 C 50 %
161 01-12-2018 08:11:18 5.2 C 49 %
162 01-12-2018 08:23:17 5.4 C 49 %
163 01-12-2018 08:35:18 5.9 C 50 %
164 01-12-2018 08:47:18 6.4 C 48 %
165 01-12-2018 08:59:18 6.5 C 46 %
166 01-12-2018 09:11:18 6.4 C 45 %
167 01-12-2018 09:23:17 6.3 C 44 %
168 01-12-2018 09:35:17 6.5 C 45 %
169 01-12-2018 09:47:17 6.8 C 46 %
170 01-12-2018 09:59:17 7.3 C 46 %
171 01-12-2018 10:11:17 7.3 C 45 %
172 01-12-2018 10:23:17 7.1 C 45 %
173 01-12-2018 10:35:17 7.6 C 45 %
174 01-12-2018 10:47:17 8.2 C 41 %
175 01-12-2018 10:59:17 8.4 C 36 %
Sensor: Nr:Datum:Temp:Feuchte:
Aussen-T/F 176 01-12-2018 11:11:18 8.4 C 35 %
177 01-12-2018 11:23:17 8.5 C 34 %
178 01-12-2018 11:35:17 8.8 C 33 %
179 01-12-2018 11:47:17 9 C 30 %
180 01-12-2018 11:59:17 9.3 C 31 %
181 01-12-2018 12:11:18 9.4 C 30 %
182 01-12-2018 12:23:17 9.2 C 30 %
183 01-12-2018 12:35:18 9.6 C 30 %
184 01-12-2018 12:47:18 9.8 C 29 %
185 01-12-2018 12:59:18 9.5 C 28 %
186 01-12-2018 13:11:18 9.4 C 28 %
187 01-12-2018 13:23:17 9.4 C 28 %
188 01-12-2018 13:35:18 9.4 C 27 %
189 01-12-2018 13:47:18 8.9 C 29 %
190 01-12-2018 13:59:18 8.4 C 30 %
191 01-12-2018 14:11:18 8.3 C 31 %
192 01-12-2018 14:23:17 8.9 C 29 %
193 01-12-2018 14:35:17 9.1 C 28 %
194 01-12-2018 14:47:17 9.1 C 26 %
195 01-12-2018 14:59:17 9.3 C 27 %
196 01-12-2018 15:11:17 9 C 27 %
197 01-12-2018 15:23:17 8.4 C 31 %
198 01-12-2018 15:35:17 8.4 C 33 %
199 01-12-2018 15:47:17 8.5 C 34 %
200 01-12-2018 15:59:17 8.4 C 32 %
Sensor: Nr:Datum:Temp:Feuchte:
Aussen-T/F 201 01-12-2018 16:11:18 8.4 C 32 %
202 01-12-2018 16:23:17 8.1 C 32 %
203 01-12-2018 16:35:17 8.2 C 31 %
204 01-12-2018 16:47:17 8.2 C 31 %
205 01-12-2018 16:59:17 8 C 31 %
206 01-12-2018 17:11:17 7.8 C 33 %
207 01-12-2018 17:23:17 7.4 C 40 %
208 01-12-2018 17:35:18 7.2 C 42 %
209 01-12-2018 17:47:18 7 C 45 %
210 01-12-2018 17:59:18 6.9 C 47 %
211 01-12-2018 18:11:17 6.8 C 48 %
212 01-12-2018 18:23:17 6.7 C 49 %
213 01-12-2018 18:35:17 6.7 C 50 %
214 01-12-2018 18:47:17 6.7 C 50 %
215 01-12-2018 18:59:17 6.7 C 46 %
216 01-12-2018 19:11:17 6.7 C 46 %
217 01-12-2018 19:23:17 7 C 45 %
218 01-12-2018 19:35:17 7.2 C 41 %
219 01-12-2018 19:47:17 7.2 C 40 %
220 01-12-2018 19:59:17 7.5 C 36 %
221 01-12-2018 20:11:18 7.3 C 36 %
222 01-12-2018 20:23:17 7.3 C 37 %
223 01-12-2018 20:35:18 7.1 C 39 %
224 01-12-2018 20:47:17 7.3 C 40 %
225 01-12-2018 20:59:17 7.3 C 39 %
Sensor: Nr:Datum:Temp:Feuchte:
Aussen-T/F 226 01-12-2018 21:11:17 7.4 C 39 %
227 01-12-2018 21:23:17 7.6 C 39 %
228 01-12-2018 21:35:17 7.6 C 39 %
229 01-12-2018 21:47:17 7.9 C 36 %
230 01-12-2018 21:59:17 7.8 C 36 %
231 01-12-2018 22:11:17 7.6 C 39 %
232 01-12-2018 22:23:17 7.5 C 40 %
233 01-12-2018 22:35:17 7.4 C 41 %
234 01-12-2018 22:47:18 7.6 C 41 %
235 01-12-2018 22:59:18 7.7 C 41 %
236 01-12-2018 23:11:18 7.9 C 41 %
237 01-12-2018 23:23:17 8.1 C 38 %
238 01-12-2018 23:35:17 8.1 C 38 %
239 01-12-2018 23:47:17 8.2 C 36 %
240 01-12-2018 23:59:17 8.2 C 36 %
241 02-12-2018 00:11:17 8.2 C 36 %
242 02-12-2018 00:23:17 8.3 C 36 %
243 02-12-2018 00:35:17 8.4 C 37 %
244 02-12-2018 00:47:17 8.4 C 37 %
245 02-12-2018 00:59:17 8.6 C 36 %
246 02-12-2018 01:11:17 8.5 C 37 %
247 02-12-2018 01:23:17 8.5 C 37 %
248 02-12-2018 01:35:17 8.7 C 36 %
249 02-12-2018 01:47:17 9 C 35 %
250 02-12-2018 01:59:17 9 C 35 %
Sensor: Nr:Datum:Temp:Feuchte:
Aussen-T/F 251 02-12-2018 02:11:17 9 C 35 %
252 02-12-2018 02:23:18 8.9 C 36 %
253 02-12-2018 02:35:18 8.9 C 36 %
254 02-12-2018 02:47:18 9.1 C 36 %
255 02-12-2018 02:59:18 8.9 C 36 %
256 02-12-2018 03:11:17 9 C 36 %
257 02-12-2018 03:23:17 9.2 C 35 %
258 02-12-2018 03:35:18 9.3 C 35 %
259 02-12-2018 03:47:18 9.2 C 35 %
260 02-12-2018 03:59:18 8.9 C 37 %
261 02-12-2018 04:11:17 8.5 C 41 %
262 02-12-2018 04:23:17 8.3 C 45 %
263 02-12-2018 04:35:17 8.1 C 47 %
264 02-12-2018 04:47:18 8 C 50 %
265 02-12-2018 04:59:18 8 C 51 %
266 02-12-2018 05:11:18 7.9 C 52 %
267 02-12-2018 05:23:17 7.9 C 53 %
268 02-12-2018 05:35:17 7.9 C 53 %
269 02-12-2018 05:47:17 7.9 C 53 %
270 02-12-2018 05:59:17 7.9 C 53 %
271 02-12-2018 06:11:17 7.9 C 53 %
272 02-12-2018 06:23:17 8 C 53 %
273 02-12-2018 06:35:17 8 C 54 %
274 02-12-2018 06:47:17 8.1 C 55 %
275 02-12-2018 06:59:17 8.1 C 55 %
Sensor: Nr:Datum:Temp:Feuchte:
Aussen-T/F 276 02-12-2018 07:11:17 8.1 C 55 %
277 02-12-2018 07:23:17 8.1 C 56 %
278 02-12-2018 07:35:17 8.2 C 56 %
279 02-12-2018 07:47:17 8.2 C 58 %
280 02-12-2018 07:59:17 8.3 C 60 %
281 02-12-2018 08:11:17 8.3 C 60 %
282 02-12-2018 08:23:17 8.3 C 62 %
283 02-12-2018 08:35:18 8.4 C 63 %
284 02-12-2018 08:47:18 8.5 C 66 %
285 02-12-2018 08:59:18 8.7 C 67 %
286 02-12-2018 09:11:18 8.7 C 66 %
287 02-12-2018 09:23:17 8.9 C 66 %
288 02-12-2018 09:35:17 9.1 C 65 %
289 02-12-2018 09:47:17 9.1 C 64 %
290 02-12-2018 09:59:17 9.2 C 62 %
291 02-12-2018 10:11:17 9.3 C 59 %
292 02-12-2018 10:23:17 9.5 C 53 %
293 02-12-2018 10:35:17 9.5 C 49 %
294 02-12-2018 10:47:17 9.6 C 46 %
295 02-12-2018 10:59:17 9.8 C 45 %
296 02-12-2018 11:11:17 10 C 43 %
297 02-12-2018 11:23:17 10.3 C 42 %
298 02-12-2018 11:35:17 10.6 C 41 %
299 02-12-2018 11:47:17 11 C 39 %
300 02-12-2018 11:59:17 11.2 C 38 %
Sensor: Nr:Datum:Temp:Feuchte:
Aussen-T/F 301 02-12-2018 12:11:17 11.7 C 36 %
302 02-12-2018 12:23:17 12.1 C 34 %
303 02-12-2018 12:35:17 12.5 C 33 %
304 02-12-2018 12:47:17 12.8 C 32 %
305 02-12-2018 12:59:17 12.6 C 33 %
306 02-12-2018 13:11:17 13 C 32 %
307 02-12-2018 13:23:17 13 C 32 %
308 02-12-2018 13:35:17 13.1 C 32 %
309 02-12-2018 13:47:17 12.9 C 34 %
310 02-12-2018 13:59:17 13.1 C 34 %
311 02-12-2018 14:11:17 12.9 C 36 %
312 02-12-2018 14:23:17 12.9 C 37 %
313 02-12-2018 14:35:18 13.1 C 36 %
314 02-12-2018 14:47:18 13.1 C 36 %
315 02-12-2018 14:59:18 12.7 C 38 %
316 02-12-2018 15:11:18 12.8 C 38 %
317 02-12-2018 15:23:17 13.2 C 38 %
318 02-12-2018 15:35:17 13.4 C 36 %
319 02-12-2018 15:47:18 13.3 C 36 %
320 02-12-2018 15:59:18 12.9 C 38 %
321 02-12-2018 16:11:18 12.7 C 43 %
322 02-12-2018 16:23:17 12.7 C 43 %
323 02-12-2018 16:35:18 11.6 C 47 %
324 02-12-2018 16:47:17 12 C 49 %
325 02-12-2018 16:59:17 11.8 C 50 %
Sensor: Nr:Datum:Temp:Feuchte:
Aussen-T/F 326 02-12-2018 17:11:18 11.8 C 50 %
327 02-12-2018 17:23:17 12.1 C 49 %
328 02-12-2018 17:35:18 12.4 C 47 %
329 02-12-2018 17:47:18 12.6 C 43 %
330 02-12-2018 17:59:18 12.7 C 41 %
331 02-12-2018 18:11:17 13.1 C 37 %
332 02-12-2018 18:23:17 13.3 C 36 %
333 02-12-2018 18:35:17 13.7 C 35 %
334 02-12-2018 18:47:17 13.4 C 35 %
335 02-12-2018 18:59:17 13.4 C 38 %
336 02-12-2018 19:11:18 13.2 C 39 %
337 02-12-2018 19:23:17 12.6 C 44 %
338 02-12-2018 19:35:17 12.7 C 47 %
339 02-12-2018 19:47:17 12.9 C 46 %
340 02-12-2018 19:59:17 12.5 C 43 %
341 02-12-2018 20:11:17 12.1 C 44 %
342 02-12-2018 20:23:17 11.8 C 46 %
343 02-12-2018 20:35:17 11.9 C 48 %
344 02-12-2018 20:47:17 11.7 C 49 %
345 02-12-2018 20:59:17 11.7 C 50 %
346 02-12-2018 21:11:17 11.8 C 50 %
347 02-12-2018 21:23:18 12 C 49 %
348 02-12-2018 21:35:18 11.9 C 49 %
349 02-12-2018 21:47:17 11.8 C 49 %
350 02-12-2018 21:59:17 11.6 C 49 %
Sensor: Nr:Datum:Temp:Feuchte:
Aussen-T/F 351 02-12-2018 22:11:17 11.5 C 50 %
352 02-12-2018 22:23:17 11.5 C 50 %
353 02-12-2018 22:35:17 11.5 C 50 %
354 02-12-2018 22:47:17 11.6 C 52 %
355 02-12-2018 22:59:17 11.5 C 51 %
356 02-12-2018 23:11:17 11.5 C 52 %
357 02-12-2018 23:23:17 11.5 C 54 %
358 02-12-2018 23:35:17 11.7 C 56 %
359 02-12-2018 23:47:17 12.2 C 63 %
360 02-12-2018 23:59:17 12.5 C 65 %
361 03-12-2018 00:11:17 12.4 C 65 %
362 03-12-2018 00:23:17 12.1 C 50 %
363 03-12-2018 00:35:18 12.1 C 46 %
364 03-12-2018 00:47:18 12.1 C 45 %
365 03-12-2018 00:59:18 11.8 C 46 %
366 03-12-2018 01:11:18 11.7 C 46 %
367 03-12-2018 01:23:17 11.7 C 45 %
368 03-12-2018 01:35:18 11.7 C 44 %
369 03-12-2018 01:47:18 11.5 C 45 %
370 03-12-2018 01:59:18 11.5 C 45 %
371 03-12-2018 02:11:17 11.1 C 46 %
372 03-12-2018 02:23:17 11.5 C 49 %
373 03-12-2018 02:35:17 11.3 C 47 %
374 03-12-2018 02:47:17 11.1 C 47 %
375 03-12-2018 02:59:17 10.7 C 49 %
Sensor: Nr:Datum:Temp:Feuchte:
Aussen-T/F 376 03-12-2018 03:11:17 10.8 C 50 %
377 03-12-2018 03:23:17 10.9 C 51 %
378 03-12-2018 03:35:17 10.8 C 55 %
379 03-12-2018 03:47:17 11.2 C 60 %
380 03-12-2018 03:59:17 11.5 C 62 %
381 03-12-2018 04:11:17 11.6 C 53 %
382 03-12-2018 04:23:17 11.8 C 48 %
383 03-12-2018 04:35:18 11.8 C 47 %
384 03-12-2018 04:47:18 11.9 C 45 %
385 03-12-2018 04:59:18 11.8 C 46 %
386 03-12-2018 05:11:18 11.7 C 47 %
387 03-12-2018 05:23:17 11.6 C 49 %
388 03-12-2018 05:35:17 11.5 C 50 %
389 03-12-2018 05:47:17 11.4 C 52 %
390 03-12-2018 05:59:17 11.2 C 54 %
391 03-12-2018 06:11:17 11.1 C 57 %
392 03-12-2018 06:23:17 11.1 C 60 %
393 03-12-2018 06:35:18 11.2 C 63 %
394 03-12-2018 06:47:18 11.5 C 66 %
395 03-12-2018 06:59:18 11.4 C 66 %
396 03-12-2018 07:11:18 11.4 C 66 %
397 03-12-2018 07:23:17 11.2 C 65 %
398 03-12-2018 07:35:18 10.8 C 64 %
399 03-12-2018 07:47:18 10.8 C 65 %
400 03-12-2018 07:59:18 11 C 68 %
Sensor: Nr:Datum:Temp:Feuchte:
Aussen-T/F 401 03-12-2018 08:11:18 11 C 68 %
402 03-12-2018 08:23:17 10.9 C 68 %
403 03-12-2018 08:35:18 10.7 C 66 %
404 03-12-2018 08:47:17 11 C 66 %
405 03-12-2018 08:59:17 11.3 C 69 %
406 03-12-2018 09:11:17 11.5 C 69 %
407 03-12-2018 09:23:17 11.6 C 67 %
408 03-12-2018 09:35:17 11.6 C 65 %
409 03-12-2018 09:47:17 11.6 C 63 %
410 03-12-2018 09:59:17 11.4 C 60 %
411 03-12-2018 10:11:18 11.4 C 58 %
412 03-12-2018 10:23:17 11.7 C 60 %
413 03-12-2018 10:35:18 12 C 61 %
414 03-12-2018 10:47:18 12 C 60 %
415 03-12-2018 10:59:18 12.4 C 60 %
416 03-12-2018 11:11:17 12.3 C 54 %
417 03-12-2018 11:23:17 12.3 C 47 %
418 03-12-2018 11:35:17 12.4 C 45 %
419 03-12-2018 11:47:17 12.3 C 43 %
420 03-12-2018 11:59:17 12.4 C 43 %
421 03-12-2018 12:11:17 12.4 C 43 %
422 03-12-2018 12:23:17 12.5 C 44 %
423 03-12-2018 12:35:17 12.5 C 41 %
424 03-12-2018 12:47:17 12.5 C 39 %
425 03-12-2018 12:59:17 12.4 C 37 %
Sensor: Nr:Datum:Temp:Feuchte:
Aussen-T/F 426 03-12-2018 13:11:17 12.2 C 36 %
427 03-12-2018 13:23:17 12.2 C 35 %
428 03-12-2018 13:35:18 11.9 C 37 %
429 03-12-2018 13:47:18 11.9 C 37 %
430 03-12-2018 13:59:18 11.7 C 40 %
431 03-12-2018 14:11:18 11.5 C 42 %
432 03-12-2018 14:23:17 11.4 C 44 %
433 03-12-2018 14:35:17 11.3 C 46 %
434 03-12-2018 14:47:17 11.2 C 46 %
435 03-12-2018 14:59:17 11.3 C 44 %
436 03-12-2018 15:11:17 11.4 C 42 %
437 03-12-2018 15:23:17 11.2 C 43 %
438 03-12-2018 15:35:17 11 C 44 %
439 03-12-2018 15:47:17 10.8 C 46 %
440 03-12-2018 15:59:17 10.8 C 46 %
441 03-12-2018 16:11:17 10.8 C 46 %
442 03-12-2018 16:23:17 10.8 C 47 %
443 03-12-2018 16:35:17 10.7 C 48 %
444 03-12-2018 16:47:17 10.7 C 48 %
445 03-12-2018 16:59:17 10.6 C 50 %
446 03-12-2018 17:11:17 10.4 C 51 %
447 03-12-2018 17:23:17 10.4 C 51 %
448 03-12-2018 17:35:17 10.3 C 51 %
449 03-12-2018 17:47:17 10.2 C 51 %
450 03-12-2018 17:59:17 10.3 C 53 %
Sensor: Nr:Datum:Temp:Feuchte:
Aussen-T/F 451 03-12-2018 18:11:17 10 C 53 %
452 03-12-2018 18:23:17 10.3 C 52 %
453 03-12-2018 18:35:17 10.4 C 53 %
454 03-12-2018 18:47:17 10.2 C 50 %
455 03-12-2018 18:59:17 10.2 C 51 %
456 03-12-2018 19:11:18 10.1 C 50 %
457 03-12-2018 19:23:17 10.3 C 52 %
458 03-12-2018 19:35:17 10.1 C 50 %
459 03-12-2018 19:47:17 10.2 C 50 %
460 03-12-2018 19:59:17 10.2 C 49 %
461 03-12-2018 20:11:17 10.1 C 47 %
462 03-12-2018 20:23:17 9.9 C 48 %
463 03-12-2018 20:35:17 10.3 C 48 %
464 03-12-2018 20:47:17 10.3 C 47 %
465 03-12-2018 20:59:17 9.9 C 47 %
466 03-12-2018 21:11:17 9.5 C 47 %
467 03-12-2018 21:23:17 8.8 C 48 %
468 03-12-2018 21:35:17 8.9 C 50 %
469 03-12-2018 21:47:17 9.1 C 54 %
470 03-12-2018 21:59:17 8.9 C 53 %
471 03-12-2018 22:11:17 8.7 C 53 %
472 03-12-2018 22:23:17 8.6 C 54 %
473 03-12-2018 22:35:17 8.7 C 56 %
474 03-12-2018 22:47:17 9.1 C 60 %
475 03-12-2018 22:59:17 9.8 C 57 %
Sensor: Nr:Datum:Temp:Feuchte:
Aussen-T/F 476 03-12-2018 23:11:18 10.1 C 47 %
477 03-12-2018 23:23:17 10.2 C 44 %
478 03-12-2018 23:35:18 10 C 40 %
479 03-12-2018 23:47:17 9.7 C 41 %
480 03-12-2018 23:59:17 9.8 C 41 %
481 04-12-2018 00:11:17 10 C 40 %
482 04-12-2018 00:23:17 10.1 C 40 %
483 04-12-2018 00:35:17 10 C 42 %
484 04-12-2018 00:47:17 9.9 C 45 %
485 04-12-2018 00:59:17 9.8 C 46 %
486 04-12-2018 01:11:17 10 C 42 %
487 04-12-2018 01:23:17 9.9 C 41 %
488 04-12-2018 01:35:18 9.7 C 41 %
489 04-12-2018 01:47:18 9.7 C 40 %
490 04-12-2018 01:59:18 9.7 C 38 %
491 04-12-2018 02:11:18 9.6 C 36 %
492 04-12-2018 02:23:17 9.8 C 35 %
493 04-12-2018 02:35:18 9.9 C 33 %
494 04-12-2018 02:47:17 9.9 C 33 %
495 04-12-2018 02:59:17 9.8 C 34 %
496 04-12-2018 03:11:18 9.6 C 31 %
497 04-12-2018 03:23:17 9.2 C 33 %
498 04-12-2018 03:35:18 8.8 C 34 %
499 04-12-2018 03:47:18 8.6 C 34 %
500 04-12-2018 03:59:18 8.4 C 36 %
Sensor: Nr:Datum:Temp:Feuchte:
Aussen-T/F 501 04-12-2018 04:11:18 8.3 C 35 %
502 04-12-2018 04:23:17 8.2 C 35 %
503 04-12-2018 04:35:18 8 C 37 %
504 04-12-2018 04:47:18 7.9 C 38 %
505 04-12-2018 04:59:18 7.9 C 38 %
506 04-12-2018 05:11:17 7.7 C 40 %
507 04-12-2018 05:23:17 7.8 C 40 %
508 04-12-2018 05:35:17 7.6 C 39 %
509 04-12-2018 05:47:18 7.3 C 40 %
510 04-12-2018 05:59:18 7 C 42 %
511 04-12-2018 06:11:17 6.8 C 45 %
512 04-12-2018 06:23:17 6.8 C 45 %
513 04-12-2018 06:35:17 6.7 C 46 %
514 04-12-2018 06:47:18 6.7 C 46 %
515 04-12-2018 06:59:18 6.9 C 45 %
516 04-12-2018 07:11:18 6.9 C 45 %
517 04-12-2018 07:23:17 6.9 C 45 %
518 04-12-2018 07:35:17 6.8 C 44 %
519 04-12-2018 07:47:18 6.7 C 43 %
520 04-12-2018 07:59:18 6.6 C 44 %
521 04-12-2018 08:11:18 6.5 C 44 %
522 04-12-2018 08:23:17 6.3 C 45 %
523 04-12-2018 08:35:17 6.3 C 47 %
524 04-12-2018 08:47:18 6.4 C 46 %
525 04-12-2018 08:59:18 6.3 C 43 %
Sensor: Nr:Datum:Temp:Feuchte:
Aussen-T/F 526 04-12-2018 09:11:17 6.4 C 40 %
527 04-12-2018 09:23:17 6.8 C 38 %
528 04-12-2018 09:35:17 6.8 C 36 %
529 04-12-2018 09:47:17 7 C 32 %
530 04-12-2018 09:59:17 7 C 34 %
531 04-12-2018 10:11:17 7.1 C 33 %
532 04-12-2018 10:23:17 7.3 C 32 %
533 04-12-2018 10:35:17 7.1 C 31 %
534 04-12-2018 10:47:17 6.7 C 35 %
535 04-12-2018 10:59:17 7 C 36 %
536 04-12-2018 11:11:17 7.3 C 34 %
537 04-12-2018 11:23:17 7.4 C 34 %
538 04-12-2018 11:35:17 8 C 32 %
539 04-12-2018 11:47:17 8.3 C 31 %
540 04-12-2018 11:59:17 8.2 C 30 %
541 04-12-2018 12:11:17 8.3 C 29 %
542 04-12-2018 12:23:17 8 C 30 %
543 04-12-2018 12:35:17 7.8 C 30 %
544 04-12-2018 12:47:17 7.6 C 31 %
545 04-12-2018 12:59:17 7.7 C 31 %
546 04-12-2018 13:11:17 7.6 C 31 %
547 04-12-2018 13:23:18 7.6 C 31 %
548 04-12-2018 13:35:18 7.3 C 31 %
549 04-12-2018 13:47:17 7.3 C 35 %
550 04-12-2018 13:59:18 7 C 37 %
Sensor: Nr:Datum:Temp:Feuchte:
Aussen-T/F 551 04-12-2018 14:11:18 6.8 C 39 %
552 04-12-2018 14:23:17 6.9 C 42 %
553 04-12-2018 14:35:18 7.5 C 40 %
554 04-12-2018 14:47:18 7.7 C 33 %
555 04-12-2018 14:59:18 7.6 C 29 %
556 04-12-2018 15:11:18 7.2 C 28 %
557 04-12-2018 15:23:17 6.7 C 30 %
558 04-12-2018 15:35:17 5.9 C 32 %
559 04-12-2018 15:47:17 5.1 C 39 %
560 04-12-2018 15:59:17 4.6 C 41 %
561 04-12-2018 16:11:18 3.9 C 46 %
562 04-12-2018 16:23:17 3.6 C 46 %
563 04-12-2018 16:35:18 3.4 C 48 %
564 04-12-2018 16:47:18 2.7 C 51 %
565 04-12-2018 16:59:18 2.7 C 52 %
566 04-12-2018 17:11:17 2.3 C 54 %
567 04-12-2018 17:23:17 2.2 C 54 %
568 04-12-2018 17:35:18 2.1 C 55 %
569 04-12-2018 17:47:18 1.9 C 56 %
570 04-12-2018 17:59:18 1.8 C 56 %
571 04-12-2018 18:11:18 1.6 C 56 %
572 04-12-2018 18:23:17 1.5 C 56 %
573 04-12-2018 18:35:17 1.4 C 56 %
574 04-12-2018 18:47:17 1.3 C 56 %
575 04-12-2018 18:59:17 1.2 C 56 %
Sensor: Nr:Datum:Temp:Feuchte:
Aussen-T/F 576 04-12-2018 19:11:17 1.2 C 56 %
577 04-12-2018 19:23:18 1.3 C 57 %
578 04-12-2018 19:35:18 1.3 C 58 %
579 04-12-2018 19:47:18 1.3 C 59 %
580 04-12-2018 19:59:18 1.3 C 59 %
581 04-12-2018 20:11:18 0.9 C 59 %
582 04-12-2018 20:23:17 0.7 C 60 %
583 04-12-2018 20:35:17 0.6 C 62 %
584 04-12-2018 20:47:17 1.1 C 67 %
585 04-12-2018 20:59:17 0.8 C 68 %
586 04-12-2018 21:11:17 0.8 C 68 %
587 04-12-2018 21:23:17 0.1 C 66 %
588 04-12-2018 21:35:17 0.1 C 67 %
589 04-12-2018 21:47:17 0 C 67 %
590 04-12-2018 21:59:18 0.3 C 71 %
591 04-12-2018 22:11:18 0.7 C 72 %
592 04-12-2018 22:23:17 0.7 C 72 %
593 04-12-2018 22:35:18 0.8 C 72 %
594 04-12-2018 22:47:17 0.8 C 72 %
595 04-12-2018 22:59:17 1 C 72 %
596 04-12-2018 23:11:18 0.9 C 71 %
597 04-12-2018 23:23:17 1 C 71 %
598 04-12-2018 23:35:17 0.9 C 71 %
599 04-12-2018 23:47:17 0.8 C 71 %
600 04-12-2018 23:59:17 1.1 C 72 %
Sensor: Nr:Datum:Temp:Feuchte:
Aussen-T/F 601 05-12-2018 00:11:17 1 C 72 %
602 05-12-2018 00:23:17 1.1 C 72 %
603 05-12-2018 00:35:17 1.1 C 72 %
604 05-12-2018 00:47:17 1.1 C 72 %
605 05-12-2018 00:59:17 0.7 C 71 %
606 05-12-2018 01:11:17 0.7 C 71 %
607 05-12-2018 01:23:17 0.7 C 71 %
608 05-12-2018 01:35:18 0.9 C 72 %
609 05-12-2018 01:47:18 0.6 C 71 %
610 05-12-2018 01:59:18 0.6 C 72 %
611 05-12-2018 02:11:18 0.6 C 72 %
612 05-12-2018 02:23:17 0.5 C 72 %
613 05-12-2018 02:35:17 0.5 C 71 %
614 05-12-2018 02:47:17 0.6 C 72 %
615 05-12-2018 02:59:17 0.6 C 72 %
616 05-12-2018 03:11:17 0.7 C 72 %
617 05-12-2018 03:23:17 0.7 C 72 %
618 05-12-2018 03:35:17 0.6 C 72 %
619 05-12-2018 03:47:17 0.6 C 72 %
620 05-12-2018 03:59:17 0.6 C 71 %
621 05-12-2018 04:11:17 0.6 C 71 %
622 05-12-2018 04:23:17 0.5 C 71 %
623 05-12-2018 04:35:17 0.6 C 71 %
624 05-12-2018 04:47:17 0.6 C 71 %
625 05-12-2018 04:59:17 0.5 C 71 %
Sensor: Nr:Datum:Temp:Feuchte:
Aussen-T/F 626 05-12-2018 05:11:17 0.7 C 72 %
627 05-12-2018 05:23:17 0.7 C 72 %
628 05-12-2018 05:35:17 0.7 C 72 %
629 05-12-2018 05:47:18 0.7 C 72 %
630 05-12-2018 05:59:18 0.7 C 71 %
631 05-12-2018 06:11:17 0.8 C 72 %
632 05-12-2018 06:23:18 0.8 C 72 %
633 05-12-2018 06:35:18 0.7 C 71 %
634 05-12-2018 06:47:18 0.7 C 71 %
635 05-12-2018 06:59:18 0.7 C 71 %
636 05-12-2018 07:11:18 0.8 C 72 %
637 05-12-2018 07:23:17 0.8 C 72 %
638 05-12-2018 07:35:18 0.8 C 72 %
639 05-12-2018 07:47:18 1 C 71 %
640 05-12-2018 07:59:18 1 C 71 %
641 05-12-2018 08:11:18 1 C 71 %
642 05-12-2018 08:23:17 1.2 C 71 %
643 05-12-2018 08:35:18 1.3 C 71 %
644 05-12-2018 08:59:17 1.4 C 71 %
645 05-12-2018 08:59:17 1.4 C 71 %
646 05-12-2018 09:11:17 1.4 C 71 %
647 05-12-2018 09:23:17 1.4 C 71 %
648 05-12-2018 09:35:17 1.6 C 71 %
649 05-12-2018 09:59:17 1.7 C 71 %
650 05-12-2018 09:59:17 1.8 C 70 %
Sensor: Nr:Datum:Temp:Feuchte:
Aussen-T/F 651 05-12-2018 10:11:17 1.9 C 70 %
652 05-12-2018 10:23:17 1.9 C 70 %
653 05-12-2018 10:35:17 2.2 C 67 %
654 05-12-2018 10:47:17 2.5 C 64 %
655 05-12-2018 10:59:17 2.7 C 59 %
656 05-12-2018 11:11:17 2.9 C 55 %
657 05-12-2018 11:23:17 3.1 C 51 %
658 05-12-2018 11:35:17 3.3 C 49 %
659 05-12-2018 11:47:17 3.4 C 48 %
660 05-12-2018 11:59:17 3.8 C 46 %
661 05-12-2018 12:11:17 3.8 C 44 %
662 05-12-2018 12:23:18 4.4 C 41 %
663 05-12-2018 12:36:17 4.3 C 41 %
664 05-12-2018 12:47:18 4.6 C 41 %
665 05-12-2018 12:59:18 4.8 C 40 %
666 05-12-2018 13:12:17 5.3 C 39 %
667 05-12-2018 13:23:17 5.1 C 37 %
668 05-12-2018 13:35:17 5.6 C 39 %
669 05-12-2018 13:59:17 5.9 C 38 %
670 05-12-2018 13:59:17 6.2 C 38 %
671 05-12-2018 14:11:17 6.3 C 37 %
672 05-12-2018 14:23:18 6.4 C 36 %
673 05-12-2018 14:36:17 6.8 C 36 %
674 05-12-2018 14:48:17 6.9 C 37 %
675 05-12-2018 15:00:17 6.8 C 36 %
Sensor: Nr:Datum:Temp:Feuchte:
Aussen-T/F 676 05-12-2018 15:12:17 6.6 C 36 %
677 05-12-2018 15:23:17 6.3 C 37 %
678 05-12-2018 15:35:17 6 C 38 %
679 05-12-2018 15:59:17 5.6 C 40 %
680 05-12-2018 16:00:17 5.4 C 41 %
681 05-12-2018 16:11:17 5.4 C 43 %
682 05-12-2018 16:23:17 5.5 C 43 %
683 05-12-2018 16:35:17 5.5 C 43 %
684 05-12-2018 16:47:17 5.5 C 43 %
685 05-12-2018 16:59:17 5.4 C 44 %
686 05-12-2018 17:11:17 5.5 C 44 %
687 05-12-2018 17:24:17 5.4 C 45 %
688 05-12-2018 17:35:18 5.5 C 44 %
689 05-12-2018 17:47:18 5.5 C 43 %
690 05-12-2018 17:59:18 5.5 C 42 %
691 05-12-2018 18:11:18 5.6 C 41 %
692 05-12-2018 18:24:17 5.4 C 41 %
693 05-12-2018 18:36:17 5.4 C 41 %
694 05-12-2018 18:48:17 5.3 C 41 %
695 05-12-2018 18:59:18 5.3 C 43 %
696 05-12-2018 19:11:18 5.3 C 43 %
697 05-12-2018 19:24:17 5.1 C 44 %
698 05-12-2018 19:35:18 5.1 C 45 %
699 05-12-2018 19:47:18 5 C 46 %
700 05-12-2018 19:59:18 4.8 C 46 %
Sensor: Nr:Datum:Temp:Feuchte:
Aussen-T/F 701 05-12-2018 20:11:18 4.5 C 47 %
702 05-12-2018 20:24:17 4.3 C 49 %
703 05-12-2018 20:35:18 4.4 C 50 %
704 05-12-2018 20:47:18 4.3 C 51 %
705 05-12-2018 20:59:18 4.4 C 51 %
706 05-12-2018 21:11:18 4.3 C 51 %
707 05-12-2018 21:24:17 3.9 C 51 %
708 05-12-2018 21:35:18 4 C 51 %
709 05-12-2018 21:47:18 4.4 C 53 %
710 05-12-2018 21:59:18 4.2 C 52 %
711 05-12-2018 22:11:18 4.2 C 52 %
712 05-12-2018 22:24:17 4.3 C 52 %
713 05-12-2018 22:36:17 4.3 C 52 %
714 05-12-2018 22:48:17 4.7 C 53 %
715 05-12-2018 23:00:17 4.7 C 53 %
716 05-12-2018 23:12:17 4.7 C 52 %
717 05-12-2018 23:24:17 4.9 C 53 %
718 05-12-2018 23:36:17 5 C 52 %
719 05-12-2018 23:48:17 5.1 C 52 %
720 06-12-2018 00:00:17 5.1 C 53 %
721 06-12-2018 00:12:17 5.1 C 53 %
722 06-12-2018 00:24:17 5.2 C 53 %
723 06-12-2018 00:36:17 5.3 C 54 %
724 06-12-2018 00:48:17 5.5 C 56 %
725 06-12-2018 01:00:17 5.6 C 56 %
Sensor: Nr:Datum:Temp:Feuchte:
Aussen-T/F 726 06-12-2018 01:12:17 5.6 C 57 %
727 06-12-2018 01:24:17 5.6 C 57 %
728 06-12-2018 01:36:17 5.7 C 57 %
729 06-12-2018 01:48:17 5.6 C 57 %
730 06-12-2018 02:00:17 5.5 C 56 %
731 06-12-2018 02:12:17 5.5 C 56 %
732 06-12-2018 02:24:17 5.5 C 57 %
733 06-12-2018 02:36:17 5.4 C 57 %
734 06-12-2018 02:48:17 5.4 C 60 %
735 06-12-2018 03:00:18 5.5 C 62 %
736 06-12-2018 03:12:18 5.6 C 64 %
737 06-12-2018 03:24:17 5.6 C 65 %
738 06-12-2018 03:36:17 5.7 C 66 %
739 06-12-2018 03:48:17 5.7 C 66 %
740 06-12-2018 04:00:17 5.7 C 66 %
741 06-12-2018 04:12:17 5.8 C 67 %
742 06-12-2018 04:24:17 5.8 C 67 %
743 06-12-2018 04:36:17 5.8 C 67 %
744 06-12-2018 04:48:17 5.9 C 68 %
745 06-12-2018 05:00:17 5.9 C 68 %
746 06-12-2018 05:12:17 6 C 68 %
747 06-12-2018 05:24:17 6 C 68 %
748 06-12-2018 05:36:17 6.1 C 68 %
749 06-12-2018 05:48:18 6.1 C 68 %
750 06-12-2018 06:00:17 6.2 C 68 %
Sensor: Nr:Datum:Temp:Feuchte:
Aussen-T/F 751 06-12-2018 06:12:17 6.2 C 68 %
752 06-12-2018 06:24:18 6.2 C 68 %
753 06-12-2018 06:36:18 6.2 C 68 %
754 06-12-2018 06:48:17 6.3 C 68 %
755 06-12-2018 07:00:18 6.3 C 68 %
756 06-12-2018 07:12:18 6.4 C 69 %
757 06-12-2018 07:24:17 6.5 C 69 %
758 06-12-2018 07:36:17 7 C 70 %
759 06-12-2018 07:48:17 6.8 C 69 %
760 06-12-2018 08:00:17 6.9 C 70 %
761 06-12-2018 08:12:17 7.1 C 69 %
762 06-12-2018 08:24:17 7.4 C 70 %
763 06-12-2018 08:36:18 7.6 C 71 %
764 06-12-2018 08:48:17 7.9 C 70 %
765 06-12-2018 09:00:17 8.2 C 69 %
766 06-12-2018 09:12:17 8.5 C 68 %
767 06-12-2018 09:24:17 8.8 C 59 %
768 06-12-2018 09:36:17 8.9 C 48 %
769 06-12-2018 09:48:18 9 C 46 %
770 06-12-2018 10:00:17 9.2 C 43 %
771 06-12-2018 10:12:17 9.3 C 42 %
772 06-12-2018 10:24:18 9.6 C 41 %
773 06-12-2018 10:36:18 10 C 38 %
774 06-12-2018 10:48:18 10.1 C 37 %
775 06-12-2018 11:00:18 10.2 C 36 %
Sensor: Nr:Datum:Temp:Feuchte:
Aussen-T/F 776 06-12-2018 11:12:18 10.5 C 36 %
777 06-12-2018 11:24:17 10.7 C 35 %
778 06-12-2018 11:36:17 10.8 C 35 %
779 06-12-2018 11:48:17 11.1 C 34 %
780 06-12-2018 12:00:18 11.2 C 34 %
781 06-12-2018 12:12:18 11.2 C 34 %
782 06-12-2018 12:24:17 11.2 C 35 %
783 06-12-2018 12:36:17 11.2 C 35 %
784 06-12-2018 12:48:17 11.2 C 34 %
785 06-12-2018 13:00:17 11.2 C 34 %
786 06-12-2018 13:12:17 11.4 C 34 %
787 06-12-2018 13:24:17 11.6 C 34 %
788 06-12-2018 13:36:18 11.8 C 33 %
789 06-12-2018 13:48:18 11.8 C 33 %
790 06-12-2018 14:00:18 11.9 C 33 %
791 06-12-2018 14:12:18 11.8 C 33 %
792 06-12-2018 14:24:17 11.9 C 33 %
793 06-12-2018 14:36:17 11.9 C 34 %
794 06-12-2018 14:48:17 11.8 C 34 %
795 06-12-2018 15:00:17 11.9 C 33 %
796 06-12-2018 15:12:17 11.8 C 33 %
797 06-12-2018 15:24:17 11.6 C 35 %
798 06-12-2018 15:36:17 11.4 C 35 %
799 06-12-2018 15:48:17 11.3 C 36 %
800 06-12-2018 16:00:17 11.2 C 37 %
Sensor: Nr:Datum:Temp:Feuchte:
Aussen-T/F 801 06-12-2018 16:12:17 11.2 C 36 %
802 06-12-2018 16:24:17 10.8 C 39 %
803 06-12-2018 16:36:17 10.6 C 41 %
804 06-12-2018 16:48:17 10.6 C 40 %
805 06-12-2018 17:00:17 10.6 C 40 %
806 06-12-2018 17:12:17 10.6 C 40 %
807 06-12-2018 17:24:17 10.6 C 40 %
808 06-12-2018 17:36:17 10.7 C 40 %
809 06-12-2018 17:48:18 10.4 C 41 %
810 06-12-2018 18:00:18 10.5 C 42 %
811 06-12-2018 18:12:18 10.5 C 42 %
812 06-12-2018 18:24:17 10.7 C 42 %
813 06-12-2018 18:36:17 10.8 C 41 %
814 06-12-2018 18:48:17 10.6 C 40 %
815 06-12-2018 19:00:17 10.7 C 42 %
816 06-12-2018 19:12:17 10.9 C 42 %
817 06-12-2018 19:24:17 11.1 C 40 %
818 06-12-2018 19:36:17 11.6 C 37 %
819 06-12-2018 19:48:18 11.6 C 37 %
820 06-12-2018 20:00:18 11.7 C 37 %
821 06-12-2018 20:12:18 11.8 C 36 %
822 06-12-2018 20:24:17 12.2 C 35 %
823 06-12-2018 20:36:17 12.2 C 35 %
824 06-12-2018 20:48:17 12.2 C 35 %
825 06-12-2018 21:00:17 12.2 C 35 %
Sensor: Nr:Datum:Temp:Feuchte:
Aussen-T/F 826 06-12-2018 21:12:17 12.3 C 35 %
827 06-12-2018 21:24:18 12.2 C 35 %
828 06-12-2018 21:36:18 12.4 C 35 %
829 06-12-2018 21:48:17 12.4 C 35 %
830 06-12-2018 22:00:17 12.3 C 36 %
831 06-12-2018 22:12:17 12.3 C 36 %
832 06-12-2018 22:24:17 12.2 C 36 %
833 06-12-2018 22:36:17 12.1 C 37 %
834 06-12-2018 22:48:17 12.2 C 36 %
835 06-12-2018 23:00:17 12.1 C 37 %
836 06-12-2018 23:12:17 12 C 37 %
837 06-12-2018 23:24:17 12.1 C 37 %
838 06-12-2018 23:36:17 12.2 C 36 %
839 06-12-2018 23:48:17 12.4 C 35 %
840 07-12-2018 00:00:17 12.4 C 35 %
841 07-12-2018 00:12:17 12.3 C 36 %
842 07-12-2018 00:24:18 12.2 C 36 %
843 07-12-2018 00:36:18 12.1 C 37 %
844 07-12-2018 00:48:18 12.1 C 37 %
845 07-12-2018 01:00:18 12.1 C 37 %
846 07-12-2018 01:12:18 12.2 C 37 %
847 07-12-2018 01:24:17 12.2 C 36 %
848 07-12-2018 01:36:17 12.3 C 36 %
849 07-12-2018 01:48:17 12.2 C 36 %
850 07-12-2018 02:00:18 12.2 C 36 %
Sensor: Nr:Datum:Temp:Feuchte:
Aussen-T/F 851 07-12-2018 02:12:18 12.4 C 35 %
852 07-12-2018 02:24:17 12.5 C 35 %
853 07-12-2018 02:36:17 12.5 C 34 %
854 07-12-2018 02:48:17 12.5 C 34 %
855 07-12-2018 03:00:17 12.4 C 35 %
856 07-12-2018 03:12:17 12 C 36 %
857 07-12-2018 03:24:17 11.6 C 40 %
858 07-12-2018 03:36:17 11.6 C 39 %
859 07-12-2018 03:48:17 11.5 C 40 %
860 07-12-2018 04:00:17 11.5 C 40 %
861 07-12-2018 04:12:17 11.8 C 39 %
862 07-12-2018 04:24:17 12 C 35 %
863 07-12-2018 04:36:18 12.2 C 32 %
864 07-12-2018 04:48:18 12.2 C 32 %
865 07-12-2018 05:00:18 12.1 C 31 %
866 07-12-2018 05:12:18 11.7 C 34 %
867 07-12-2018 05:24:17 11.1 C 38 %
868 07-12-2018 05:36:17 11 C 40 %
869 07-12-2018 05:48:17 11 C 40 %
870 07-12-2018 06:00:18 11 C 42 %
871 07-12-2018 06:12:18 11.2 C 42 %
872 07-12-2018 06:24:17 11.2 C 39 %
873 07-12-2018 06:36:18 11.5 C 35 %
874 07-12-2018 06:48:18 11.6 C 34 %
875 07-12-2018 07:00:18 11.5 C 33 %
Sensor: Nr:Datum:Temp:Feuchte:
Aussen-T/F 876 07-12-2018 07:12:18 11.6 C 32 %
877 07-12-2018 07:24:17 11.6 C 32 %
878 07-12-2018 07:36:18 11.7 C 31 %
879 07-12-2018 07:48:18 11.8 C 30 %
880 07-12-2018 08:00:18 11.7 C 30 %
881 07-12-2018 08:12:18 11.7 C 30 %
882 07-12-2018 08:24:17 11.6 C 30 %
883 07-12-2018 08:36:17 11.6 C 30 %
884 07-12-2018 08:48:17 11.5 C 31 %
885 07-12-2018 09:00:18 11.6 C 31 %
886 07-12-2018 09:12:18 11.5 C 31 %
887 07-12-2018 09:24:17 11.5 C 31 %
888 07-12-2018 09:36:17 11.5 C 32 %
889 07-12-2018 09:48:18 11.5 C 32 %
890 07-12-2018 10:00:18 11.5 C 32 %
891 07-12-2018 10:12:18 11.5 C 33 %
892 07-12-2018 10:24:17 11.4 C 34 %
893 07-12-2018 10:36:17 11.3 C 35 %
894 07-12-2018 10:48:18 11.3 C 34 %
895 07-12-2018 11:00:17 11.4 C 34 %
896 07-12-2018 11:12:17 11.4 C 33 %
897 07-12-2018 11:24:18 11.4 C 33 %
898 07-12-2018 11:36:18 11.5 C 31 %
899 07-12-2018 11:48:18 11.5 C 31 %
900 07-12-2018 12:00:17 11.7 C 30 %
Sensor: Nr:Datum:Temp:Feuchte:
Aussen-T/F 901 07-12-2018 12:12:17 11.7 C 30 %
902 07-12-2018 12:24:17 11.7 C 30 %
903 07-12-2018 12:36:17 11.6 C 30 %
904 07-12-2018 12:48:17 11.9 C 30 %
905 07-12-2018 13:00:17 12 C 28 %
906 07-12-2018 13:12:17 11.9 C 29 %
907 07-12-2018 13:24:17 11.9 C 29 %
908 07-12-2018 13:36:18 12 C 27 %
909 07-12-2018 13:48:17 12.4 C 26 %
910 07-12-2018 14:00:17 12.3 C 27 %
911 07-12-2018 14:12:17 12.4 C 26 %
912 07-12-2018 14:24:17 12.5 C 26 %
913 07-12-2018 14:36:18 12.5 C 26 %
914 07-12-2018 14:48:18 12.1 C 26 %
915 07-12-2018 15:00:18 11.8 C 27 %
916 07-12-2018 15:12:18 11.7 C 28 %
917 07-12-2018 15:24:17 11.2 C 31 %
918 07-12-2018 15:36:17 10.9 C 33 %
919 07-12-2018 15:48:17 10.6 C 35 %
920 07-12-2018 16:00:18 10.7 C 32 %
921 07-12-2018 16:12:18 10.7 C 32 %
922 07-12-2018 16:24:17 10.5 C 32 %
923 07-12-2018 16:36:17 10.6 C 31 %
924 07-12-2018 16:48:17 10.5 C 32 %
925 07-12-2018 17:00:18 10.4 C 32 %
Sensor: Nr:Datum:Temp:Feuchte:
Aussen-T/F 926 07-12-2018 17:12:18 9.6 C 39 %
927 07-12-2018 17:24:17 9.5 C 40 %
928 07-12-2018 17:36:17 9.3 C 41 %
929 07-12-2018 17:48:18 9.4 C 42 %
930 07-12-2018 18:00:17 9.4 C 42 %
931 07-12-2018 18:12:17 9.5 C 42 %
932 07-12-2018 18:24:18 9.5 C 42 %
933 07-12-2018 18:36:18 9.4 C 44 %
934 07-12-2018 18:48:17 9.4 C 43 %
935 07-12-2018 19:00:18 9.3 C 46 %
936 07-12-2018 19:12:18 9.3 C 46 %
937 07-12-2018 19:24:17 9.3 C 47 %
938 07-12-2018 19:36:17 9.6 C 46 %
939 07-12-2018 19:48:17 9.2 C 39 %
940 07-12-2018 20:00:17 9 C 36 %
941 07-12-2018 20:12:17 8.6 C 37 %
942 07-12-2018 20:24:17 8.5 C 34 %
943 07-12-2018 20:36:17 8.6 C 32 %
944 07-12-2018 20:48:17 8.6 C 32 %
945 07-12-2018 21:00:17 8.2 C 32 %
946 07-12-2018 21:12:17 8.2 C 30 %
947 07-12-2018 21:24:17 8 C 29 %
948 07-12-2018 21:36:17 8 C 29 %
949 07-12-2018 21:48:17 7.6 C 27 %
950 07-12-2018 22:00:17 7.2 C 27 %
Sensor: Nr:Datum:Temp:Feuchte:
Aussen-T/F 951 07-12-2018 22:12:17 6.6 C 30 %
952 07-12-2018 22:24:17 6.3 C 31 %
953 07-12-2018 22:36:17 6.5 C 31 %
954 07-12-2018 22:48:17 6.6 C 30 %
955 07-12-2018 23:00:17 6.6 C 30 %
956 07-12-2018 23:12:17 6.1 C 34 %
957 07-12-2018 23:24:17 6.4 C 35 %
958 07-12-2018 23:36:17 6.9 C 32 %
959 07-12-2018 23:48:17 7 C 30 %
960 08-12-2018 00:00:17 6.6 C 31 %
961 08-12-2018 00:12:17 6.8 C 31 %
962 08-12-2018 00:24:17 6.8 C 31 %
963 08-12-2018 00:36:17 6.9 C 30 %
964 08-12-2018 00:48:17 6.4 C 31 %
965 08-12-2018 01:00:17 6.2 C 32 %
966 08-12-2018 01:12:17 6.2 C 32 %
967 08-12-2018 01:24:17 6.4 C 32 %
968 08-12-2018 01:36:17 6.4 C 32 %
969 08-12-2018 01:48:17 6.5 C 32 %
970 08-12-2018 02:00:17 6.5 C 32 %
971 08-12-2018 02:12:17 6.5 C 32 %
972 08-12-2018 02:24:17 6.6 C 31 %
973 08-12-2018 02:36:17 6.5 C 30 %
974 08-12-2018 02:48:17 6.2 C 31 %
975 08-12-2018 03:00:17 5.9 C 33 %
Sensor: Nr:Datum:Temp:Feuchte:
Aussen-T/F 976 08-12-2018 03:12:17 6.3 C 32 %
977 08-12-2018 03:24:17 6.2 C 33 %
978 08-12-2018 03:36:17 6.5 C 32 %
979 08-12-2018 03:48:17 6.1 C 33 %
980 08-12-2018 04:00:17 6 C 35 %
981 08-12-2018 04:12:17 5.8 C 35 %
982 08-12-2018 04:24:18 5.8 C 35 %
983 08-12-2018 04:36:18 6.3 C 33 %
984 08-12-2018 04:48:17 6.2 C 33 %
985 08-12-2018 05:00:17 6.2 C 33 %
986 08-12-2018 05:12:17 5.9 C 36 %
987 08-12-2018 05:24:17 6 C 37 %
988 08-12-2018 05:36:17 6 C 37 %
989 08-12-2018 05:48:17 6.2 C 37 %
990 08-12-2018 06:00:17 6.2 C 37 %
991 08-12-2018 06:12:17 6.1 C 38 %
992 08-12-2018 06:24:17 6.2 C 38 %
993 08-12-2018 06:36:18 6.3 C 36 %
994 08-12-2018 06:48:18 5.9 C 41 %
995 08-12-2018 07:00:18 5.9 C 41 %
996 08-12-2018 07:12:18 6 C 39 %
997 08-12-2018 07:24:17 6.3 C 36 %
998 08-12-2018 07:36:17 6.5 C 35 %
999 08-12-2018 07:48:17 6.4 C 35 %
1000 08-12-2018 08:00:17 6.2 C 35 %
Sensor: Nr:Datum:Temp:Feuchte:
Aussen-T/F 1001 08-12-2018 08:12:17 6.4 C 35 %
1002 08-12-2018 08:24:17 6.4 C 35 %
1003 08-12-2018 08:36:17 5.9 C 40 %
1004 08-12-2018 08:48:17 5.6 C 43 %
1005 08-12-2018 09:00:18 5.7 C 43 %
1006 08-12-2018 09:12:18 5.7 C 44 %
1007 08-12-2018 09:24:17 5.7 C 41 %
1008 08-12-2018 09:36:17 6.2 C 39 %
1009 08-12-2018 09:48:17 6.4 C 36 %
1010 08-12-2018 10:00:17 6.2 C 40 %
1011 08-12-2018 10:12:17 6 C 40 %
1012 08-12-2018 10:24:17 6.2 C 40 %
1013 08-12-2018 10:36:17 6.5 C 38 %
1014 08-12-2018 10:48:18 6.6 C 38 %
1015 08-12-2018 11:00:18 6.5 C 40 %
1016 08-12-2018 11:12:18 6.6 C 42 %
1017 08-12-2018 11:24:17 6.7 C 45 %
1018 08-12-2018 11:36:18 6.8 C 45 %
1019 08-12-2018 11:48:18 7 C 43 %
1020 08-12-2018 12:00:18 7.1 C 40 %
1021 08-12-2018 12:12:18 7.1 C 40 %
1022 08-12-2018 12:24:17 7.2 C 37 %
1023 08-12-2018 12:36:17 7.2 C 37 %
1024 08-12-2018 12:48:17 7.2 C 38 %
1025 08-12-2018 13:00:18 7.5 C 38 %
Sensor: Nr:Datum:Temp:Feuchte:
Aussen-T/F 1026 08-12-2018 13:12:18 7.6 C 37 %
1027 08-12-2018 13:24:17 7.4 C 38 %
1028 08-12-2018 13:36:17 7.2 C 41 %
1029 08-12-2018 13:48:18 7.4 C 41 %
1030 08-12-2018 14:00:18 7.8 C 40 %
1031 08-12-2018 14:12:18 8.1 C 36 %
1032 08-12-2018 14:24:17 7.9 C 36 %
1033 08-12-2018 14:36:18 8 C 36 %
1034 08-12-2018 14:48:18 8.3 C 34 %
1035 08-12-2018 15:00:18 8.2 C 34 %
1036 08-12-2018 15:12:18 8.1 C 34 %
1037 08-12-2018 15:24:17 7.6 C 39 %
1038 08-12-2018 15:36:18 7.6 C 37 %
1039 08-12-2018 15:48:18 8 C 36 %
1040 08-12-2018 16:00:17 8 C 35 %
1041 08-12-2018 16:12:17 7.9 C 37 %
1042 08-12-2018 16:24:17 7.9 C 37 %
1043 08-12-2018 16:36:18 7.9 C 38 %
1044 08-12-2018 16:48:18 8 C 36 %
1045 08-12-2018 17:00:18 8.1 C 36 %
1046 08-12-2018 17:12:18 8.4 C 34 %
1047 08-12-2018 17:24:17 8.5 C 33 %
1048 08-12-2018 17:36:17 8.5 C 34 %
1049 08-12-2018 17:48:17 8.6 C 34 %
1050 08-12-2018 18:00:17 8.4 C 35 %
Sensor: Nr:Datum:Temp:Feuchte:
Aussen-T/F 1051 08-12-2018 18:12:17 8.3 C 36 %
1052 08-12-2018 18:24:17 8.4 C 36 %
1053 08-12-2018 18:36:17 8.4 C 36 %
1054 08-12-2018 18:48:17 8.4 C 36 %
1055 08-12-2018 19:00:18 8.4 C 36 %
1056 08-12-2018 19:12:18 8.5 C 35 %
1057 08-12-2018 19:24:17 8.5 C 36 %
1058 08-12-2018 19:36:17 8.5 C 36 %
1059 08-12-2018 19:48:17 8.5 C 37 %
1060 08-12-2018 20:00:17 8.5 C 39 %
1061 08-12-2018 20:12:17 8.5 C 40 %
1062 08-12-2018 20:24:17 8.5 C 41 %
1063 08-12-2018 20:36:17 8.5 C 41 %
1064 08-12-2018 20:48:18 8.8 C 40 %
1065 08-12-2018 21:00:18 9 C 39 %
1066 08-12-2018 21:12:18 9 C 39 %
1067 08-12-2018 21:24:17 9 C 39 %
1068 08-12-2018 21:36:18 9 C 40 %
1069 08-12-2018 21:48:18 8.8 C 44 %
1070 08-12-2018 22:00:17 8.9 C 45 %
1071 08-12-2018 22:12:17 8.9 C 45 %
1072 08-12-2018 22:24:17 9 C 45 %
1073 08-12-2018 22:36:17 9.1 C 45 %
1074 08-12-2018 22:48:17 9.4 C 44 %
1075 08-12-2018 23:00:18 9.1 C 45 %
Sensor: Nr:Datum:Temp:Feuchte:
Aussen-T/F 1076 08-12-2018 23:12:18 9.4 C 46 %
1077 08-12-2018 23:24:17 9.4 C 44 %
1078 08-12-2018 23:36:17 9.1 C 43 %
1079 08-12-2018 23:48:17 9.2 C 40 %
1080 09-12-2018 00:00:17 9.2 C 40 %
1081 09-12-2018 00:12:17 9.6 C 35 %
1082 09-12-2018 00:24:17 9.7 C 27 %
1083 09-12-2018 00:36:18 9.6 C 25 %
1084 09-12-2018 00:48:18 9.3 C 25 %
1085 09-12-2018 01:00:17 9.4 C 25 %
1086 09-12-2018 01:12:18 9.6 C 26 %
1087 09-12-2018 01:24:17 9.2 C 26 %
1088 09-12-2018 01:36:18 9.4 C 27 %
1089 09-12-2018 01:48:18 9.4 C 28 %
1090 09-12-2018 02:00:18 9.4 C 28 %
1091 09-12-2018 02:12:18 9.4 C 28 %
1092 09-12-2018 02:24:17 9 C 29 %
1093 09-12-2018 02:36:18 9 C 29 %
1094 09-12-2018 02:48:17 9.2 C 28 %
1095 09-12-2018 03:00:17 9.2 C 28 %
1096 09-12-2018 03:12:18 9.1 C 27 %
1097 09-12-2018 03:24:18 8.8 C 26 %
1098 09-12-2018 03:36:18 8.4 C 26 %
1099 09-12-2018 03:48:18 8.3 C 26 %
1100 09-12-2018 04:00:17 8.2 C 27 %
Sensor: Nr:Datum:Temp:Feuchte:
Aussen-T/F 1101 09-12-2018 04:12:17 8.2 C 29 %
1102 09-12-2018 04:24:18 8.1 C 29 %
1103 09-12-2018 04:36:18 8.1 C 30 %
1104 09-12-2018 04:48:18 8 C 32 %
1105 09-12-2018 05:00:18 7.9 C 33 %
1106 09-12-2018 05:12:18 7.9 C 32 %
1107 09-12-2018 05:24:17 7.8 C 30 %
1108 09-12-2018 05:36:18 7.9 C 30 %
1109 09-12-2018 05:48:18 7.4 C 32 %
1110 09-12-2018 06:00:17 7.6 C 31 %
1111 09-12-2018 06:12:17 7.6 C 31 %
1112 09-12-2018 06:24:17 7.5 C 31 %
1113 09-12-2018 06:36:17 7.2 C 34 %
1114 09-12-2018 06:48:17 7.2 C 35 %
1115 09-12-2018 07:00:17 6.9 C 38 %
1116 09-12-2018 07:12:17 7.4 C 35 %
1117 09-12-2018 07:24:17 7.6 C 33 %
1118 09-12-2018 07:36:17 7.9 C 31 %
1119 09-12-2018 07:48:17 8.2 C 29 %
1120 09-12-2018 08:00:18 8 C 30 %
1121 09-12-2018 08:12:18 8 C 30 %
1122 09-12-2018 08:24:17 8.3 C 28 %
1123 09-12-2018 08:36:18 8.4 C 27 %
1124 09-12-2018 08:48:18 8.4 C 27 %
1125 09-12-2018 09:00:18 8.2 C 27 %
Sensor: Nr:Datum:Temp:Feuchte:
Aussen-T/F 1126 09-12-2018 09:12:18 7.7 C 32 %
1127 09-12-2018 09:24:17 7.7 C 32 %
1128 09-12-2018 09:36:18 7.4 C 41 %
1129 09-12-2018 09:48:17 7.2 C 45 %
1130 09-12-2018 10:00:17 7.1 C 45 %
1131 09-12-2018 10:12:17 7.3 C 42 %
1132 09-12-2018 10:24:17 7.2 C 44 %
1133 09-12-2018 10:36:17 7.3 C 42 %
1134 09-12-2018 10:48:17 7.3 C 41 %
1135 09-12-2018 11:00:17 7.4 C 40 %
1136 09-12-2018 11:12:17 7.3 C 40 %
1137 09-12-2018 11:24:18 6.9 C 41 %
1138 09-12-2018 11:36:17 6.9 C 44 %
1139 09-12-2018 11:48:17 6.8 C 45 %
1140 09-12-2018 12:00:18 6.9 C 46 %
1141 09-12-2018 12:12:18 6.9 C 49 %
1142 09-12-2018 12:24:17 6.9 C 50 %
1143 09-12-2018 12:36:18 7 C 50 %
1144 09-12-2018 12:48:17 7.5 C 50 %
1145 09-12-2018 13:00:17 7.5 C 46 %
1146 09-12-2018 13:12:18 7.4 C 45 %
1147 09-12-2018 13:24:17 7.4 C 45 %
1148 09-12-2018 13:36:18 5.7 C 43 %
1149 09-12-2018 13:48:18 5.7 C 49 %
1150 09-12-2018 14:00:18 5.8 C 51 %
Sensor: Nr:Datum:Temp:Feuchte:
Aussen-T/F 1151 09-12-2018 14:12:18 5.8 C 51 %
1152 09-12-2018 14:24:17 6.2 C 48 %
1153 09-12-2018 14:36:17 6.5 C 48 %
1154 09-12-2018 14:48:17 6.6 C 47 %
1155 09-12-2018 15:00:17 6.7 C 46 %
1156 09-12-2018 15:12:17 6.9 C 45 %
1157 09-12-2018 15:24:17 7 C 41 %
1158 09-12-2018 15:36:18 6.7 C 44 %
1159 09-12-2018 15:48:17 6.6 C 45 %
1160 09-12-2018 16:00:17 6.6 C 47 %
1161 09-12-2018 16:12:18 6.4 C 45 %
1162 09-12-2018 16:24:17 6.3 C 46 %
1163 09-12-2018 16:36:17 6.3 C 47 %
1164 09-12-2018 16:48:17 6.3 C 49 %
1165 09-12-2018 17:00:17 6.3 C 50 %
1166 09-12-2018 17:12:17 6.2 C 48 %
1167 09-12-2018 17:24:17 6 C 47 %
1168 09-12-2018 17:36:17 6.1 C 46 %
1169 09-12-2018 17:48:17 6.4 C 45 %
1170 09-12-2018 18:00:17 6.5 C 41 %
1171 09-12-2018 18:12:17 6.6 C 39 %
1172 09-12-2018 18:24:17 6.9 C 36 %
1173 09-12-2018 18:36:17 7.2 C 34 %
1174 09-12-2018 18:48:17 7.6 C 31 %
1175 09-12-2018 19:00:17 7.6 C 31 %
Sensor: Nr:Datum:Temp:Feuchte:
Aussen-T/F 1176 09-12-2018 19:12:17 7.6 C 30 %
1177 09-12-2018 19:24:17 7.6 C 30 %
1178 09-12-2018 19:36:18 7.4 C 31 %
1179 09-12-2018 19:48:18 7.4 C 31 %
1180 09-12-2018 20:00:17 7.1 C 31 %
1181 09-12-2018 20:12:17 6.8 C 35 %
1182 09-12-2018 20:24:17 6.6 C 37 %
1183 09-12-2018 20:36:17 6.5 C 37 %
1184 09-12-2018 20:48:17 6.7 C 36 %
1185 09-12-2018 21:00:17 6.1 C 39 %
1186 09-12-2018 21:12:17 6.1 C 39 %
1187 09-12-2018 21:24:17 5.5 C 44 %
1188 09-12-2018 21:36:17 5.5 C 47 %
1189 09-12-2018 21:48:17 5.5 C 50 %
1190 09-12-2018 22:00:17 5.6 C 49 %
1191 09-12-2018 22:12:17 5.6 C 49 %
1192 09-12-2018 22:24:17 5.3 C 43 %
1193 09-12-2018 22:36:18 5.1 C 45 %
1194 09-12-2018 22:48:17 5.2 C 45 %
1195 09-12-2018 23:00:17 5.2 C 46 %
1196 09-12-2018 23:12:18 5.3 C 43 %
1197 09-12-2018 23:24:17 5.3 C 43 %
1198 09-12-2018 23:36:17 5.3 C 44 %
1199 09-12-2018 23:48:17 5.3 C 44 %
1200 10-12-2018 00:00:17 5.1 C 40 %
Sensor: Nr:Datum:Temp:Feuchte:
Aussen-T/F 1201 10-12-2018 00:12:17 4.9 C 44 %
1202 10-12-2018 00:24:17 5 C 45 %
1203 10-12-2018 00:36:17 4.8 C 46 %
1204 10-12-2018 00:48:17 4.8 C 42 %
1205 10-12-2018 01:00:17 4.8 C 44 %
1206 10-12-2018 01:12:17 4.9 C 42 %
1207 10-12-2018 01:24:17 4.8 C 43 %
1208 10-12-2018 01:36:17 4.8 C 44 %
1209 10-12-2018 01:48:17 5 C 41 %
1210 10-12-2018 02:00:17 5.1 C 40 %
1211 10-12-2018 02:12:17 5.1 C 40 %
1212 10-12-2018 02:24:17 4.6 C 42 %
1213 10-12-2018 02:36:17 4.8 C 42 %
1214 10-12-2018 02:48:17 4.8 C 41 %
1215 10-12-2018 03:00:17 4.4 C 41 %
1216 10-12-2018 03:12:17 4.5 C 40 %
1217 10-12-2018 03:24:17 4.7 C 39 %
1218 10-12-2018 03:36:17 4.6 C 37 %
1219 10-12-2018 03:48:17 4.2 C 40 %
1220 10-12-2018 04:00:17 4.2 C 40 %
1221 10-12-2018 04:12:17 4.3 C 40 %
1222 10-12-2018 04:24:17 4.3 C 40 %
1223 10-12-2018 04:36:17 5 C 37 %
1224 10-12-2018 04:48:17 4.6 C 42 %
1225 10-12-2018 05:00:17 4.3 C 46 %
Sensor: Nr:Datum:Temp:Feuchte:
Aussen-T/F 1226 10-12-2018 05:12:17 4.3 C 48 %
1227 10-12-2018 05:24:17 4.2 C 52 %
1228 10-12-2018 05:36:17 4.3 C 50 %
1229 10-12-2018 05:48:17 4.3 C 48 %
1230 10-12-2018 06:00:17 3.9 C 49 %
1231 10-12-2018 06:12:17 3.9 C 51 %
1232 10-12-2018 06:24:17 4 C 51 %
1233 10-12-2018 06:36:17 3.9 C 52 %
1234 10-12-2018 06:48:17 4 C 51 %
1235 10-12-2018 07:00:17 4.1 C 49 %
1236 10-12-2018 07:12:17 4.1 C 46 %
1237 10-12-2018 07:24:17 4.2 C 45 %
1238 10-12-2018 07:36:17 4.1 C 45 %
1239 10-12-2018 07:48:17 3.8 C 48 %
1240 10-12-2018 08:00:17 3.5 C 49 %
1241 10-12-2018 08:12:17 3.4 C 50 %
1242 10-12-2018 08:24:17 3.5 C 50 %
1243 10-12-2018 08:36:17 3.5 C 50 %
1244 10-12-2018 08:48:17 3.4 C 50 %
1245 10-12-2018 09:00:17 3.6 C 49 %
1246 10-12-2018 09:12:17 3.6 C 49 %
1247 10-12-2018 09:24:17 3.6 C 49 %
1248 10-12-2018 09:36:17 3.9 C 47 %
1249 10-12-2018 09:48:17 4.1 C 45 %
1250 10-12-2018 10:00:17 4.3 C 42 %
Sensor: Nr:Datum:Temp:Feuchte:
Aussen-T/F 1251 10-12-2018 10:12:17 4.4 C 41 %
1252 10-12-2018 10:24:17 4.3 C 40 %
1253 10-12-2018 10:36:17 4.3 C 40 %
1254 10-12-2018 10:48:17 4.3 C 40 %
1255 10-12-2018 11:00:17 4.8 C 37 %
1256 10-12-2018 11:12:17 4.8 C 37 %
1257 10-12-2018 11:24:17 4.4 C 39 %
1258 10-12-2018 11:36:17 4.4 C 42 %
1259 10-12-2018 11:48:17 4.4 C 43 %
1260 10-12-2018 12:00:17 4.8 C 42 %
1261 10-12-2018 12:12:17 4.9 C 40 %
1262 10-12-2018 12:24:17 4.6 C 42 %
1263 10-12-2018 12:36:17 4.7 C 42 %
1264 10-12-2018 12:48:17 4.9 C 44 %
1265 10-12-2018 13:00:17 4.3 C 42 %
1266 10-12-2018 13:12:17 4.3 C 45 %
1267 10-12-2018 13:24:17 4.5 C 47 %
1268 10-12-2018 13:36:17 4.8 C 48 %
1269 10-12-2018 13:48:17 4.9 C 48 %
1270 10-12-2018 14:00:17 5.1 C 47 %
1271 10-12-2018 14:12:17 5.3 C 49 %
1272 10-12-2018 14:24:17 5.3 C 49 %
1273 10-12-2018 14:36:17 5.3 C 48 %
1274 10-12-2018 14:48:17 5.3 C 39 %
1275 10-12-2018 15:00:17 5.6 C 32 %
Sensor: Nr:Datum:Temp:Feuchte:
Aussen-T/F 1276 10-12-2018 15:12:17 5.6 C 32 %
1277 10-12-2018 15:24:17 5.1 C 35 %
1278 10-12-2018 15:36:17 4.6 C 41 %
1279 10-12-2018 15:48:17 4.2 C 44 %
1280 10-12-2018 16:00:17 4.1 C 44 %
1281 10-12-2018 16:12:17 3.6 C 47 %
1282 10-12-2018 16:24:17 3.6 C 48 %
1283 10-12-2018 16:36:17 3.6 C 49 %
1284 10-12-2018 16:48:17 3.5 C 50 %
1285 10-12-2018 17:00:17 3.5 C 51 %
1286 10-12-2018 17:12:17 3.5 C 50 %
1287 10-12-2018 17:24:17 3.4 C 48 %
1288 10-12-2018 17:36:17 3.5 C 49 %
1289 10-12-2018 17:48:17 3.3 C 49 %
1290 10-12-2018 18:00:17 2.8 C 50 %
1291 10-12-2018 18:12:17 3.3 C 51 %
1292 10-12-2018 18:24:17 3.6 C 48 %
1293 10-12-2018 18:36:17 3.5 C 41 %
1294 10-12-2018 18:48:17 2.9 C 40 %
1295 10-12-2018 19:00:17 3.1 C 38 %
1296 10-12-2018 19:12:17 2.4 C 40 %
1297 10-12-2018 19:24:17 2.4 C 43 %
1298 10-12-2018 19:36:17 2.3 C 46 %
1299 10-12-2018 19:48:17 3 C 48 %
1300 10-12-2018 20:00:17 3.1 C 46 %
Sensor: Nr:Datum:Temp:Feuchte:
Aussen-T/F 1301 10-12-2018 20:12:17 3.2 C 45 %
1302 10-12-2018 20:24:17 3.1 C 43 %
1303 10-12-2018 20:36:17 3.1 C 43 %
1304 10-12-2018 20:48:17 3 C 43 %
1305 10-12-2018 21:00:17 3.1 C 42 %
1306 10-12-2018 21:12:17 2.6 C 44 %
1307 10-12-2018 21:24:17 2.7 C 45 %
1308 10-12-2018 21:36:17 2.4 C 45 %
1309 10-12-2018 21:48:17 2.6 C 46 %
1310 10-12-2018 22:00:17 2.4 C 45 %
1311 10-12-2018 22:12:17 2.3 C 45 %
1312 10-12-2018 22:24:17 2.3 C 46 %
1313 10-12-2018 22:36:17 2.3 C 46 %
1314 10-12-2018 22:48:17 2.4 C 47 %
1315 10-12-2018 23:00:17 2.5 C 46 %
1316 10-12-2018 23:12:17 2.8 C 46 %
1317 10-12-2018 23:24:17 3 C 43 %
1318 10-12-2018 23:36:18 3.2 C 43 %
1319 10-12-2018 23:48:17 2.8 C 39 %
1320 11-12-2018 00:00:17 2.4 C 42 %
1321 11-12-2018 00:12:17 2.5 C 44 %
1322 11-12-2018 00:24:17 2.7 C 46 %
1323 11-12-2018 00:36:17 2.4 C 46 %
1324 11-12-2018 00:48:17 2.3 C 48 %
1325 11-12-2018 01:00:17 2.4 C 49 %
Sensor: Nr:Datum:Temp:Feuchte:
Aussen-T/F 1326 11-12-2018 01:12:17 2.7 C 48 %
1327 11-12-2018 01:24:17 2.7 C 47 %
1328 11-12-2018 01:36:17 2.7 C 48 %
1329 11-12-2018 01:48:17 3.2 C 46 %
1330 11-12-2018 02:00:17 3.2 C 44 %
1331 11-12-2018 02:12:17 3.1 C 44 %
1332 11-12-2018 02:24:17 3.3 C 45 %
1333 11-12-2018 02:36:17 3.4 C 43 %
1334 11-12-2018 02:48:17 3.2 C 42 %
1335 11-12-2018 03:00:17 3.5 C 44 %
1336 11-12-2018 03:12:17 3.4 C 44 %
1337 11-12-2018 03:24:17 2.9 C 47 %
1338 11-12-2018 03:36:17 3 C 50 %
1339 11-12-2018 03:48:17 2.4 C 51 %
1340 11-12-2018 04:00:17 2.5 C 54 %
1341 11-12-2018 04:12:17 3 C 54 %
1342 11-12-2018 04:24:17 3.2 C 50 %
1343 11-12-2018 04:36:17 3.1 C 48 %
1344 11-12-2018 04:48:17 3.1 C 48 %
1345 11-12-2018 05:00:17 3.1 C 49 %
1346 11-12-2018 05:12:17 3.2 C 50 %
1347 11-12-2018 05:24:17 3.1 C 49 %
1348 11-12-2018 05:36:17 3.2 C 49 %
1349 11-12-2018 05:48:17 3.1 C 48 %
1350 11-12-2018 06:00:18 2.9 C 50 %
Sensor: Nr:Datum:Temp:Feuchte:
Aussen-T/F 1351 11-12-2018 06:12:18 2.9 C 50 %
1352 11-12-2018 06:24:17 3.1 C 49 %
1353 11-12-2018 06:36:17 3.1 C 49 %
1354 11-12-2018 06:48:17 3.1 C 50 %
1355 11-12-2018 07:00:17 3.1 C 52 %
1356 11-12-2018 07:12:17 3.1 C 52 %
1357 11-12-2018 07:24:17 3 C 52 %
1358 11-12-2018 07:36:17 2.9 C 54 %
1359 11-12-2018 07:48:17 2.9 C 54 %
1360 11-12-2018 08:00:17 2.9 C 54 %
1361 11-12-2018 08:12:17 2.9 C 54 %
1362 11-12-2018 08:24:17 2.8 C 53 %
1363 11-12-2018 08:36:17 2.8 C 51 %
1364 11-12-2018 08:48:17 2.8 C 51 %
1365 11-12-2018 09:00:17 2.9 C 52 %
1366 11-12-2018 09:12:17 2.9 C 52 %
1367 11-12-2018 09:24:17 3 C 51 %
1368 11-12-2018 09:36:17 3 C 52 %
1369 11-12-2018 09:48:17 3.2 C 53 %
1370 11-12-2018 10:00:17 3.3 C 51 %
1371 11-12-2018 10:12:17 3.5 C 51 %
1372 11-12-2018 10:24:17 3.4 C 49 %
1373 11-12-2018 10:36:17 3.4 C 47 %
1374 11-12-2018 10:48:17 3 C 46 %
1375 11-12-2018 11:00:17 2.8 C 47 %
Sensor: Nr:Datum:Temp:Feuchte:
Aussen-T/F 1376 11-12-2018 11:12:17 3.2 C 48 %
1377 11-12-2018 11:24:17 3.7 C 45 %
1378 11-12-2018 11:36:17 4 C 41 %
1379 11-12-2018 11:48:17 4.3 C 40 %
1380 11-12-2018 12:00:17 4.2 C 40 %
1381 11-12-2018 12:12:17 4.4 C 41 %
1382 11-12-2018 12:24:17 4.6 C 40 %
1383 11-12-2018 12:36:17 4.6 C 39 %
1384 11-12-2018 12:48:17 4.3 C 40 %
1385 11-12-2018 13:00:17 4.3 C 40 %
1386 11-12-2018 13:12:17 3.9 C 43 %
1387 11-12-2018 13:24:17 3.8 C 45 %
1388 11-12-2018 13:36:17 4 C 45 %
1389 11-12-2018 13:48:17 4 C 46 %
1390 11-12-2018 14:00:17 3.6 C 46 %
1391 11-12-2018 14:12:17 3.8 C 48 %
1392 11-12-2018 14:24:17 3.7 C 49 %
1393 11-12-2018 14:36:17 3.9 C 49 %
1394 11-12-2018 14:48:17 3.9 C 50 %
1395 11-12-2018 15:00:17 4.2 C 50 %
1396 11-12-2018 15:12:17 4.2 C 50 %
1397 11-12-2018 15:24:17 4.3 C 49 %
1398 11-12-2018 15:36:17 3.8 C 51 %
1399 11-12-2018 15:48:17 3.8 C 52 %
1400 11-12-2018 16:00:17 3.7 C 52 %
Sensor: Nr:Datum:Temp:Feuchte:
Aussen-T/F 1401 11-12-2018 16:12:17 3.6 C 53 %
1402 11-12-2018 16:24:17 3.6 C 53 %
1403 11-12-2018 16:36:17 3.5 C 53 %
1404 11-12-2018 16:48:17 3.3 C 51 %
1405 11-12-2018 17:00:17 2.8 C 51 %
1406 11-12-2018 17:12:17 2.7 C 51 %
1407 11-12-2018 17:24:17 3.1 C 53 %
1408 11-12-2018 17:36:17 3.1 C 53 %
1409 11-12-2018 17:48:17 2.8 C 51 %
1410 11-12-2018 18:00:17 2.7 C 51 %
1411 11-12-2018 18:12:17 2.2 C 51 %
1412 11-12-2018 18:24:17 1.7 C 52 %
1413 11-12-2018 18:36:17 1.8 C 53 %
1414 11-12-2018 18:48:17 2.2 C 55 %
1415 11-12-2018 19:00:17 2.2 C 56 %
1416 11-12-2018 19:12:17 2.4 C 57 %
1417 11-12-2018 19:24:17 2.7 C 58 %
1418 11-12-2018 19:36:17 2.8 C 58 %
1419 11-12-2018 19:48:17 2.8 C 59 %
1420 11-12-2018 20:00:17 2.9 C 59 %
1421 11-12-2018 20:12:17 2.9 C 59 %
1422 11-12-2018 20:24:17 2.6 C 57 %
1423 11-12-2018 20:36:17 2.2 C 55 %
1424 11-12-2018 20:48:17 1.6 C 55 %
1425 11-12-2018 21:00:17 1.5 C 57 %
Sensor: Nr:Datum:Temp:Feuchte:
Aussen-T/F 1426 11-12-2018 21:12:17 1.2 C 57 %
1427 11-12-2018 21:24:17 1 C 58 %
1428 11-12-2018 21:36:17 1.2 C 61 %
1429 11-12-2018 21:48:17 1.1 C 61 %
1430 11-12-2018 22:00:17 0.8 C 62 %
1431 11-12-2018 22:12:17 0.8 C 63 %
1432 11-12-2018 22:24:18 0.3 C 62 %
1433 11-12-2018 22:36:18 0.5 C 66 %
1434 11-12-2018 22:48:17 0.4 C 67 %
1435 11-12-2018 23:00:17 0.7 C 71 %
1436 11-12-2018 23:12:17 0.4 C 69 %
1437 11-12-2018 23:24:18 1.2 C 74 %
1438 11-12-2018 23:36:17 1.3 C 74 %
1439 11-12-2018 23:48:17 1.4 C 74 %
1440 12-12-2018 00:00:17 1.5 C 74 %
1441 12-12-2018 00:12:17 1.6 C 74 %
1442 12-12-2018 00:24:17 1.6 C 74 %
1443 12-12-2018 00:36:17 0.9 C 69 %
1444 12-12-2018 00:48:17 0.6 C 68 %
1445 12-12-2018 01:00:17 0.6 C 68 %
1446 12-12-2018 01:12:17 0.6 C 70 %
1447 12-12-2018 01:24:17 0.8 C 72 %
1448 12-12-2018 01:36:17 0.8 C 72 %
1449 12-12-2018 01:48:17 1 C 72 %
1450 12-12-2018 02:00:17 1 C 72 %
Sensor: Nr:Datum:Temp:Feuchte:
Aussen-T/F 1451 12-12-2018 02:12:17 1.3 C 73 %
1452 12-12-2018 02:24:17 1.3 C 74 %
1453 12-12-2018 02:36:17 1.6 C 74 %
1454 12-12-2018 02:48:17 1.7 C 74 %
1455 12-12-2018 03:00:17 1.8 C 73 %
1456 12-12-2018 03:12:17 1.7 C 72 %
1457 12-12-2018 03:24:17 1.7 C 72 %
1458 12-12-2018 03:36:17 1.7 C 72 %
1459 12-12-2018 03:48:17 1.7 C 72 %
1460 12-12-2018 04:00:17 1.7 C 71 %
1461 12-12-2018 04:12:17 1.7 C 71 %
1462 12-12-2018 04:24:17 1.7 C 71 %
1463 12-12-2018 04:36:17 1.8 C 71 %
1464 12-12-2018 04:48:17 1.8 C 71 %
1465 12-12-2018 05:00:17 1.8 C 70 %
1466 12-12-2018 05:12:17 1.8 C 70 %
1467 12-12-2018 05:24:17 1.8 C 70 %
1468 12-12-2018 05:36:17 1.8 C 70 %
1469 12-12-2018 05:48:17 1.8 C 70 %
1470 12-12-2018 06:00:18 1.9 C 70 %
1471 12-12-2018 06:12:18 1.9 C 71 %
1472 12-12-2018 06:24:18 2 C 70 %
1473 12-12-2018 06:36:17 2 C 69 %
1474 12-12-2018 06:48:17 1.8 C 69 %
1475 12-12-2018 07:00:17 1.8 C 69 %
Sensor: Nr:Datum:Temp:Feuchte:
Aussen-T/F 1476 12-12-2018 07:12:17 1.9 C 70 %
1477 12-12-2018 07:24:17 2 C 70 %
1478 12-12-2018 07:36:18 2.1 C 70 %
1479 12-12-2018 07:48:18 2.1 C 70 %
1480 12-12-2018 08:00:18 2.1 C 69 %
1481 12-12-2018 08:12:18 2.1 C 68 %
1482 12-12-2018 08:24:17 2 C 67 %
1483 12-12-2018 08:36:17 2 C 67 %
1484 12-12-2018 08:48:17 2.1 C 67 %
1485 12-12-2018 09:00:17 2.2 C 69 %
1486 12-12-2018 09:12:17 2.4 C 70 %
1487 12-12-2018 09:24:17 2.3 C 68 %
1488 12-12-2018 09:36:17 2.2 C 63 %
1489 12-12-2018 09:48:17 2.5 C 66 %
1490 12-12-2018 10:00:17 2.7 C 68 %
1491 12-12-2018 10:12:17 3 C 67 %
1492 12-12-2018 10:24:17 3.1 C 65 %
1493 12-12-2018 10:36:17 3.1 C 59 %
1494 12-12-2018 10:48:17 3 C 55 %
1495 12-12-2018 11:00:17 3.3 C 54 %
1496 12-12-2018 11:12:17 3.6 C 52 %
1497 12-12-2018 11:24:17 3.7 C 52 %
1498 12-12-2018 11:36:17 4 C 50 %
1499 12-12-2018 11:48:17 4.1 C 47 %
1500 12-12-2018 12:00:17 4.3 C 47 %
Sensor: Nr:Datum:Temp:Feuchte:
Aussen-T/F 1501 12-12-2018 12:12:17 4.3 C 45 %
1502 12-12-2018 12:24:17 4.3 C 41 %
1503 12-12-2018 12:36:17 4.4 C 40 %
1504 12-12-2018 12:48:17 4.4 C 40 %
1505 12-12-2018 13:00:17 3.4 C 38 %
1506 12-12-2018 13:12:17 3.5 C 41 %
1507 12-12-2018 13:24:17 3.6 C 42 %
1508 12-12-2018 13:36:17 4.2 C 41 %
1509 12-12-2018 13:48:17 4.1 C 40 %
1510 12-12-2018 14:00:17 4.2 C 40 %
1511 12-12-2018 14:12:17 4.2 C 37 %
1512 12-12-2018 14:24:17 4.2 C 35 %
1513 12-12-2018 14:36:17 3.7 C 36 %
1514 12-12-2018 14:48:17 3 C 39 %
1515 12-12-2018 15:00:17 2.5 C 42 %
1516 12-12-2018 15:12:17 2.2 C 43 %
1517 12-12-2018 15:24:17 2.2 C 43 %
1518 12-12-2018 15:36:18 2.1 C 45 %
1519 12-12-2018 15:48:17 1.7 C 46 %
1520 12-12-2018 16:00:17 1.4 C 46 %
1521 12-12-2018 16:12:17 1.3 C 47 %
1522 12-12-2018 16:24:17 1.4 C 49 %
1523 12-12-2018 16:36:17 1.3 C 50 %
1524 12-12-2018 16:48:17 0.7 C 50 %
1525 12-12-2018 17:00:17 0.5 C 51 %
Sensor: Nr:Datum:Temp:Feuchte:
Aussen-T/F 1526 12-12-2018 17:12:17 0.4 C 52 %
1527 12-12-2018 17:24:17 0.8 C 55 %
1528 12-12-2018 17:36:17 0.9 C 55 %
1529 12-12-2018 17:48:17 0.9 C 55 %
1530 12-12-2018 18:00:17 0.8 C 55 %
1531 12-12-2018 18:12:17 0.8 C 55 %
1532 12-12-2018 18:24:17 1.1 C 55 %
1533 12-12-2018 18:36:17 1.2 C 54 %
1534 12-12-2018 18:48:17 1.3 C 55 %
1535 12-12-2018 19:00:17 1.3 C 55 %
1536 12-12-2018 19:12:17 1.6 C 55 %
1537 12-12-2018 19:24:17 1.6 C 55 %
1538 12-12-2018 19:36:17 1.4 C 54 %
1539 12-12-2018 19:48:17 1.2 C 54 %
1540 12-12-2018 20:00:17 1.2 C 54 %
1541 12-12-2018 20:12:17 0.9 C 54 %
1542 12-12-2018 20:24:17 0.9 C 54 %
1543 12-12-2018 20:36:17 1.3 C 53 %
1544 12-12-2018 20:48:17 1.6 C 52 %
1545 12-12-2018 21:00:17 1.8 C 51 %
1546 12-12-2018 21:12:17 1.8 C 51 %
1547 12-12-2018 21:24:17 1.8 C 49 %
1548 12-12-2018 21:36:18 1.8 C 49 %
1549 12-12-2018 21:48:18 1.8 C 49 %
1550 12-12-2018 22:00:17 1.8 C 49 %
Sensor: Nr:Datum:Temp:Feuchte:
Aussen-T/F 1551 12-12-2018 22:12:17 1.8 C 49 %
1552 12-12-2018 22:24:17 1.8 C 50 %
1553 12-12-2018 22:36:17 1.8 C 50 %
1554 12-12-2018 22:48:17 1.9 C 51 %
1555 12-12-2018 23:00:17 2 C 50 %
1556 12-12-2018 23:12:17 2 C 50 %
1557 12-12-2018 23:24:17 2 C 50 %
1558 12-12-2018 23:36:17 2 C 49 %
1559 12-12-2018 23:48:17 1.9 C 50 %
1560 13-12-2018 00:00:17 1.9 C 50 %
1561 13-12-2018 00:12:17 2.1 C 48 %
1562 13-12-2018 00:24:18 2.1 C 48 %
1563 13-12-2018 00:36:17 2.1 C 47 %
1564 13-12-2018 00:48:17 2.1 C 47 %
1565 13-12-2018 01:00:18 2 C 46 %
1566 13-12-2018 01:12:18 1.8 C 46 %
1567 13-12-2018 01:24:17 1.7 C 47 %
1568 13-12-2018 01:36:17 1.8 C 48 %
1569 13-12-2018 01:48:17 1.7 C 48 %
1570 13-12-2018 02:00:17 1.6 C 48 %
1571 13-12-2018 02:12:17 1.8 C 48 %
1572 13-12-2018 02:24:17 1.7 C 46 %
1573 13-12-2018 02:36:17 1.4 C 45 %
1574 13-12-2018 02:48:17 1.3 C 46 %
1575 13-12-2018 03:00:17 1.2 C 47 %
Sensor: Nr:Datum:Temp:Feuchte:
Aussen-T/F 1576 13-12-2018 03:12:17 0.6 C 49 %
1577 13-12-2018 03:24:17 0.5 C 50 %
1578 13-12-2018 03:36:17 0.1 C 51 %
1579 13-12-2018 03:48:17 -0.2 C 53 %
1580 13-12-2018 04:00:17 -0.3 C 53 %
1581 13-12-2018 04:12:17 -0.3 C 53 %
1582 13-12-2018 04:24:17 -0.6 C 54 %
1583 13-12-2018 04:36:17 -0.7 C 54 %
1584 13-12-2018 04:48:17 -0.7 C 54 %
1585 13-12-2018 05:00:17 -0.6 C 56 %
1586 13-12-2018 05:12:17 -0.9 C 55 %
1587 13-12-2018 05:24:17 -0.9 C 56 %
1588 13-12-2018 05:36:17 -0.7 C 56 %
1589 13-12-2018 05:48:17 -0.7 C 57 %
1590 13-12-2018 06:00:18 -0.6 C 59 %
1591 13-12-2018 06:12:18 -0.9 C 58 %
1592 13-12-2018 06:24:17 -1 C 58 %
1593 13-12-2018 06:36:17 -0.7 C 60 %
1594 13-12-2018 06:48:17 -0.5 C 60 %
1595 13-12-2018 07:00:17 -0.7 C 57 %
1596 13-12-2018 07:12:17 -0.5 C 56 %
1597 13-12-2018 07:24:17 -0.6 C 54 %
1598 13-12-2018 07:36:17 -0.6 C 52 %
1599 13-12-2018 07:48:17 -0.6 C 50 %
1600 13-12-2018 08:00:17 -1.2 C 48 %
Sensor: Nr:Datum:Temp:Feuchte:
Aussen-T/F 1601 13-12-2018 08:12:17 -1.2 C 48 %
1602 13-12-2018 08:24:17 -1.4 C 48 %
1603 13-12-2018 08:36:17 -1.3 C 49 %
1604 13-12-2018 08:48:17 -1.1 C 48 %
1605 13-12-2018 09:00:17 -0.9 C 46 %
1606 13-12-2018 09:12:17 -0.9 C 46 %
1607 13-12-2018 09:24:17 -1.1 C 45 %
1608 13-12-2018 09:36:17 -1.2 C 45 %
1609 13-12-2018 09:48:17 -0.9 C 46 %
1610 13-12-2018 10:00:17 -0.3 C 45 %
1611 13-12-2018 10:12:17 0.1 C 37 %
1612 13-12-2018 10:24:17 -0.2 C 36 %
1613 13-12-2018 10:36:17 -0.2 C 36 %
1614 13-12-2018 10:48:17 0 C 35 %
1615 13-12-2018 11:00:17 0.8 C 30 %
1616 13-12-2018 11:12:17 1 C 26 %
1617 13-12-2018 11:24:17 1 C 26 %
1618 13-12-2018 11:36:17 0.7 C 27 %
1619 13-12-2018 11:48:17 0.7 C 28 %
1620 13-12-2018 12:00:17 1 C 21 %
1621 13-12-2018 12:12:17 1 C 21 %
1622 13-12-2018 12:24:17 0.7 C 26 %
1623 13-12-2018 12:36:17 0.8 C 23 %
1624 13-12-2018 12:48:17 0.7 C 23 %
1625 13-12-2018 13:00:17 0.7 C 23 %
Sensor: Nr:Datum:Temp:Feuchte:
Aussen-T/F 1626 13-12-2018 13:12:17 0.5 C 29 %
1627 13-12-2018 13:24:17 0.6 C 27 %
1628 13-12-2018 13:36:17 0.9 C 23 %
1629 13-12-2018 13:48:17 0.9 C 26 %
1630 13-12-2018 14:00:17 1.3 C 25 %
1631 13-12-2018 14:12:17 1.5 C 21 %
1632 13-12-2018 14:24:17 1.6 C 20 %
1633 13-12-2018 14:36:17 1.6 C 20 %
1634 13-12-2018 14:48:17 1.6 C 25 %
1635 13-12-2018 15:00:17 1.7 C 21 %
1636 13-12-2018 15:12:17 1.8 C 20 %
1637 13-12-2018 15:24:17 1.8 C 20 %
1638 13-12-2018 15:36:18 1.8 C 20 %
1639 13-12-2018 15:48:17 1.6 C 20 %
1640 13-12-2018 16:00:17 1.3 C 21 %
1641 13-12-2018 16:12:17 1.2 C 20 %
1642 13-12-2018 16:24:17 0.8 C 29 %
1643 13-12-2018 16:36:17 0.7 C 31 %
1644 13-12-2018 16:48:17 0.6 C 34 %
1645 13-12-2018 17:00:17 0.6 C 33 %
1646 13-12-2018 17:12:17 0.5 C 34 %
1647 13-12-2018 17:24:17 0.5 C 35 %
1648 13-12-2018 17:36:17 0.5 C 35 %
1649 13-12-2018 17:48:17 0.6 C 34 %
1650 13-12-2018 18:00:18 0.5 C 32 %
Sensor: Nr:Datum:Temp:Feuchte:
Aussen-T/F 1651 13-12-2018 18:12:18 0.6 C 31 %
1652 13-12-2018 18:24:17 0.8 C 29 %
1653 13-12-2018 18:36:17 1 C 25 %
1654 13-12-2018 18:48:17 1 C 23 %
1655 13-12-2018 19:00:17 1 C 25 %
1656 13-12-2018 19:12:17 1.1 C 21 %
1657 13-12-2018 19:24:17 0.9 C 21 %
1658 13-12-2018 19:36:17 0.9 C 21 %
1659 13-12-2018 19:48:17 0.8 C 21 %
1660 13-12-2018 20:00:17 1 C 20 %
1661 13-12-2018 20:12:17 0.8 C 20 %
1662 13-12-2018 20:24:17 0.7 C 26 %
1663 13-12-2018 20:36:17 0.7 C 25 %
1664 13-12-2018 20:48:17 0.7 C 26 %
1665 13-12-2018 21:00:18 0.7 C 25 %
1666 13-12-2018 21:12:18 0.7 C 27 %
1667 13-12-2018 21:24:17 0.5 C 30 %
1668 13-12-2018 21:36:17 0.4 C 31 %
1669 13-12-2018 21:48:18 0.4 C 32 %
1670 13-12-2018 22:00:17 0.4 C 32 %
1671 13-12-2018 22:12:17 0.4 C 32 %
1672 13-12-2018 22:24:17 0.3 C 32 %
1673 13-12-2018 22:36:17 0.3 C 32 %
1674 13-12-2018 22:48:17 0.3 C 32 %
1675 13-12-2018 23:00:17 0.3 C 31 %
Sensor: Nr:Datum:Temp:Feuchte:
Aussen-T/F 1676 13-12-2018 23:12:17 0.4 C 30 %
1677 13-12-2018 23:24:17 0.4 C 30 %
1678 13-12-2018 23:36:17 0.4 C 30 %
1679 13-12-2018 23:48:17 0.4 C 28 %
1680 14-12-2018 00:00:17 0.4 C 27 %
1681 14-12-2018 00:12:17 0.6 C 21 %
1682 14-12-2018 00:24:17 0.6 C 23 %
1683 14-12-2018 00:36:17 0.6 C 21 %
1684 14-12-2018 00:48:17 0.5 C 23 %
1685 14-12-2018 01:00:17 0.4 C 26 %
1686 14-12-2018 01:12:17 0.4 C 28 %
1687 14-12-2018 01:24:17 0.3 C 30 %
1688 14-12-2018 01:36:17 0.3 C 30 %
1689 14-12-2018 01:48:17 0.3 C 30 %
1690 14-12-2018 02:00:17 0.2 C 30 %
1691 14-12-2018 02:12:17 0.3 C 30 %
1692 14-12-2018 02:24:17 0.5 C 23 %
1693 14-12-2018 02:36:17 0.6 C 20 %
1694 14-12-2018 02:48:17 0.6 C 20 %
1695 14-12-2018 03:00:17 0.5 C 20 %
1696 14-12-2018 03:12:17 0.6 C 20 %
1697 14-12-2018 03:24:17 0.5 C 20 %
1698 14-12-2018 03:36:17 0.5 C 20 %
1699 14-12-2018 03:48:17 0.7 C 20 %
1700 14-12-2018 04:00:17 0.6 C 20 %
Sensor: Nr:Datum:Temp:Feuchte:
Aussen-T/F 1701 14-12-2018 04:12:17 0.6 C 20 %
1702 14-12-2018 04:24:17 0.5 C 20 %
1703 14-12-2018 04:36:17 0.5 C 20 %
1704 14-12-2018 04:48:17 0.5 C 20 %
1705 14-12-2018 05:00:17 0.4 C 20 %
1706 14-12-2018 05:12:17 0.4 C 20 %
1707 14-12-2018 05:24:17 0.4 C 20 %
1708 14-12-2018 05:36:17 0.4 C 20 %
1709 14-12-2018 05:48:17 0.4 C 20 %
1710 14-12-2018 06:00:18 0.5 C 20 %
1711 14-12-2018 06:12:18 0.5 C 20 %
1712 14-12-2018 06:24:17 0.6 C 20 %
1713 14-12-2018 06:36:17 0.5 C 20 %
1714 14-12-2018 06:48:17 0.4 C 20 %
1715 14-12-2018 07:00:17 0.4 C 20 %
1716 14-12-2018 07:12:17 0.4 C 20 %
1717 14-12-2018 07:24:17 0.3 C 20 %
1718 14-12-2018 07:36:17 0.2 C 20 %
1719 14-12-2018 07:48:17 0.1 C 20 %
1720 14-12-2018 08:00:17 0 C 20 %
1721 14-12-2018 08:12:17 0 C 20 %
1722 14-12-2018 08:24:17 0 C 20 %
1723 14-12-2018 08:36:17 0 C 23 %
1724 14-12-2018 08:48:17 0.1 C 20 %
1725 14-12-2018 09:00:17 0.2 C 20 %
Sensor: Nr:Datum:Temp:Feuchte:
Aussen-T/F 1726 14-12-2018 09:12:17 0.2 C 25 %
1727 14-12-2018 09:24:17 0.2 C 27 %
1728 14-12-2018 09:36:17 0.4 C 23 %
1729 14-12-2018 09:48:17 0.5 C 20 %
1730 14-12-2018 10:00:17 0.6 C 20 %
1731 14-12-2018 10:12:17 0.7 C 20 %
1732 14-12-2018 10:24:17 0.8 C 20 %
1733 14-12-2018 10:36:17 1 C 20 %
1734 14-12-2018 10:48:17 1 C 20 %
1735 14-12-2018 11:00:17 1.1 C 20 %
1736 14-12-2018 11:12:17 1.1 C 20 %
1737 14-12-2018 11:24:17 0.9 C 20 %
1738 14-12-2018 11:36:17 1.1 C 20 %
1739 14-12-2018 11:48:17 1.1 C 20 %
1740 14-12-2018 12:00:17 1.2 C 20 %
1741 14-12-2018 12:12:17 1.2 C 20 %
1742 14-12-2018 12:24:17 1.1 C 20 %
1743 14-12-2018 12:36:17 1.2 C 20 %
1744 14-12-2018 12:48:17 1.2 C 20 %
1745 14-12-2018 13:00:17 1.2 C 20 %
1746 14-12-2018 13:12:17 1.1 C 20 %
1747 14-12-2018 13:24:17 1.2 C 20 %
1748 14-12-2018 13:36:17 1.2 C 20 %
1749 14-12-2018 13:48:17 1.2 C 20 %
1750 14-12-2018 14:00:17 1.2 C 20 %
Sensor: Nr:Datum:Temp:Feuchte:
Aussen-T/F 1751 14-12-2018 14:12:17 1.2 C 20 %
1752 14-12-2018 14:24:18 1.2 C 20 %
1753 14-12-2018 14:36:17 1.2 C 20 %
1754 14-12-2018 14:48:17 1.1 C 20 %
1755 14-12-2018 15:00:18 1.1 C 20 %
1756 14-12-2018 15:12:18 1 C 20 %
1757 14-12-2018 15:24:17 1 C 20 %
1758 14-12-2018 15:36:17 0.9 C 20 %
1759 14-12-2018 15:48:17 0.9 C 20 %
1760 14-12-2018 16:00:17 0.8 C 20 %
1761 14-12-2018 16:12:17 0.7 C 20 %
1762 14-12-2018 16:24:17 0.7 C 20 %
1763 14-12-2018 16:36:17 0.6 C 20 %
1764 14-12-2018 16:48:17 0.5 C 20 %
1765 14-12-2018 17:00:17 0.3 C 20 %
1766 14-12-2018 17:12:17 0.2 C 25 %
1767 14-12-2018 17:24:17 0.2 C 20 %
1768 14-12-2018 17:36:17 0.2 C 25 %
1769 14-12-2018 17:48:17 0.3 C 20 %
1770 14-12-2018 18:00:17 0.3 C 21 %
1771 14-12-2018 18:12:17 0.5 C 20 %
1772 14-12-2018 18:24:17 0.5 C 20 %
1773 14-12-2018 18:36:17 0.3 C 20 %
1774 14-12-2018 18:48:17 0.2 C 23 %
1775 14-12-2018 19:00:17 0.1 C 20 %
Sensor: Nr:Datum:Temp:Feuchte:
Aussen-T/F 1776 14-12-2018 19:12:17 0.1 C 23 %
1777 14-12-2018 19:24:17 0.2 C 20 %
1778 14-12-2018 19:36:17 0.3 C 20 %
1779 14-12-2018 19:48:17 0.2 C 20 %
1780 14-12-2018 20:00:17 0.1 C 20 %
1781 14-12-2018 20:12:17 0.1 C 21 %
1782 14-12-2018 20:24:17 0 C 20 %
1783 14-12-2018 20:36:17 0 C 20 %
1784 14-12-2018 20:48:17 0 C 20 %
1785 14-12-2018 21:00:17 0 C 20 %
1786 14-12-2018 21:12:17 0.1 C 20 %
1787 14-12-2018 21:24:18 0.1 C 20 %
1788 14-12-2018 21:36:18 0 C 20 %
1789 14-12-2018 21:48:17 0 C 20 %
1790 14-12-2018 22:00:18 0.1 C 20 %
1791 14-12-2018 22:12:18 0 C 20 %
1792 14-12-2018 22:24:17 0 C 20 %
1793 14-12-2018 22:36:17 -0.1 C 20 %
1794 14-12-2018 22:48:17 -0.2 C 20 %
1795 14-12-2018 23:00:17 -0.1 C 20 %
1796 14-12-2018 23:12:17 -0.2 C 20 %
1797 14-12-2018 23:24:17 -0.3 C 20 %
1798 14-12-2018 23:36:17 -0.3 C 20 %
1799 14-12-2018 23:48:17 -0.5 C 20 %
1800 15-12-2018 00:00:17 -0.5 C 20 %
Sensor: Nr:Datum:Temp:Feuchte:
Aussen-T/F 1801 15-12-2018 00:12:17 -0.6 C 20 %
1802 15-12-2018 00:24:17 -0.6 C 20 %
1803 15-12-2018 00:36:17 -0.5 C 21 %
1804 15-12-2018 00:48:17 -0.6 C 21 %
1805 15-12-2018 01:00:17 -0.6 C 23 %
1806 15-12-2018 01:12:17 -0.6 C 23 %
1807 15-12-2018 01:24:17 -0.6 C 25 %
1808 15-12-2018 01:36:17 -0.6 C 25 %
1809 15-12-2018 01:48:17 -0.6 C 28 %
1810 15-12-2018 02:00:17 -0.6 C 27 %
1811 15-12-2018 02:12:17 -0.5 C 26 %
1812 15-12-2018 02:24:17 -0.5 C 27 %
1813 15-12-2018 02:36:18 -0.6 C 25 %
1814 15-12-2018 02:48:18 -0.6 C 25 %
1815 15-12-2018 03:00:18 -0.5 C 26 %
1816 15-12-2018 03:12:18 -0.5 C 27 %
1817 15-12-2018 03:24:17 -0.5 C 30 %
1818 15-12-2018 03:36:17 -0.6 C 29 %
1819 15-12-2018 03:48:17 -0.5 C 28 %
1820 15-12-2018 04:00:17 -0.5 C 28 %
1821 15-12-2018 04:12:17 -0.5 C 29 %
1822 15-12-2018 04:24:17 -0.5 C 28 %
1823 15-12-2018 04:36:17 -0.5 C 28 %
1824 15-12-2018 04:48:17 -0.5 C 26 %
1825 15-12-2018 05:00:17 -0.5 C 25 %
Sensor: Nr:Datum:Temp:Feuchte:
Aussen-T/F 1826 15-12-2018 05:12:17 -0.4 C 23 %
1827 15-12-2018 05:24:17 -0.5 C 28 %
1828 15-12-2018 05:36:17 -0.5 C 29 %
1829 15-12-2018 05:48:17 -0.5 C 29 %
1830 15-12-2018 06:00:17 -0.6 C 30 %
1831 15-12-2018 06:12:17 -0.5 C 30 %
1832 15-12-2018 06:24:17 -0.5 C 29 %
1833 15-12-2018 06:36:17 -0.5 C 28 %
1834 15-12-2018 06:48:17 -0.5 C 30 %
1835 15-12-2018 07:00:17 -0.5 C 32 %
1836 15-12-2018 07:12:17 -0.5 C 29 %
1837 15-12-2018 07:24:17 -0.5 C 29 %
1838 15-12-2018 07:36:17 -0.5 C 31 %
1839 15-12-2018 07:48:17 -0.5 C 32 %
1840 15-12-2018 08:00:17 -0.4 C 32 %
1841 15-12-2018 08:12:17 -0.4 C 32 %
1842 15-12-2018 08:24:17 -0.5 C 32 %
1843 15-12-2018 08:36:17 -0.5 C 33 %
1844 15-12-2018 08:48:17 -0.4 C 32 %
1845 15-12-2018 09:00:17 -0.3 C 30 %
1846 15-12-2018 09:12:17 -0.2 C 30 %
1847 15-12-2018 09:24:17 -0.1 C 31 %
1848 15-12-2018 09:36:17 0 C 32 %
1849 15-12-2018 09:48:17 0 C 32 %
1850 15-12-2018 10:00:17 0.1 C 31 %
Sensor: Nr:Datum:Temp:Feuchte:
Aussen-T/F 1851 15-12-2018 10:12:17 0.3 C 29 %
1852 15-12-2018 10:24:17 0.5 C 27 %
1853 15-12-2018 10:36:17 0.5 C 25 %
1854 15-12-2018 10:48:17 0.7 C 20 %
1855 15-12-2018 11:00:17 0.7 C 20 %
1856 15-12-2018 11:12:17 0.9 C 20 %
1857 15-12-2018 11:24:17 1 C 20 %
1858 15-12-2018 11:36:17 1 C 20 %
1859 15-12-2018 11:48:17 1.1 C 20 %
1860 15-12-2018 12:00:17 1.1 C 20 %
1861 15-12-2018 12:12:17 1.2 C 20 %
1862 15-12-2018 12:24:17 1.3 C 20 %
1863 15-12-2018 12:36:17 1.4 C 20 %
1864 15-12-2018 12:48:17 1.5 C 20 %
1865 15-12-2018 13:00:18 1.4 C 20 %
1866 15-12-2018 13:12:18 1.5 C 20 %
1867 15-12-2018 13:24:17 1.5 C 20 %
1868 15-12-2018 13:36:17 1.5 C 20 %
1869 15-12-2018 13:48:17 1.5 C 20 %
1870 15-12-2018 14:00:17 1.4 C 20 %
1871 15-12-2018 14:12:17 1.2 C 20 %
1872 15-12-2018 14:24:17 1.2 C 20 %
1873 15-12-2018 14:36:17 1.2 C 20 %
1874 15-12-2018 14:48:17 1.2 C 20 %
1875 15-12-2018 15:00:17 1.1 C 20 %
Sensor: Nr:Datum:Temp:Feuchte:
Aussen-T/F 1876 15-12-2018 15:12:17 1 C 20 %
1877 15-12-2018 15:24:17 1 C 20 %
1878 15-12-2018 15:36:17 0.9 C 20 %
1879 15-12-2018 15:48:17 0.8 C 20 %
1880 15-12-2018 16:00:17 0.7 C 20 %
1881 15-12-2018 16:12:17 0.7 C 20 %
1882 15-12-2018 16:24:17 0.6 C 20 %
1883 15-12-2018 16:36:17 0.6 C 20 %
1884 15-12-2018 16:48:17 0.5 C 20 %
1885 15-12-2018 17:00:17 0.4 C 20 %
1886 15-12-2018 17:12:17 0.4 C 20 %
1887 15-12-2018 17:24:17 0.4 C 20 %
1888 15-12-2018 17:36:17 0.4 C 20 %
1889 15-12-2018 17:48:17 0.4 C 20 %
1890 15-12-2018 18:00:17 0.3 C 20 %
1891 15-12-2018 18:12:17 0.4 C 20 %
1892 15-12-2018 18:24:17 0.4 C 20 %
1893 15-12-2018 18:36:17 0.3 C 20 %
1894 15-12-2018 18:48:17 0.3 C 20 %
1895 15-12-2018 19:00:17 0.2 C 20 %
1896 15-12-2018 19:12:17 0.1 C 20 %
1897 15-12-2018 19:24:17 -0.1 C 20 %
1898 15-12-2018 19:36:17 -0.2 C 20 %
1899 15-12-2018 19:48:17 -0.6 C 20 %
1900 15-12-2018 20:00:17 -1 C 23 %
Sensor: Nr:Datum:Temp:Feuchte:
Aussen-T/F 1901 15-12-2018 20:12:17 -0.8 C 20 %
1902 15-12-2018 20:24:17 -1 C 21 %
1903 15-12-2018 20:36:17 -1.3 C 23 %
1904 15-12-2018 20:48:17 -1.3 C 25 %
1905 15-12-2018 21:00:17 -1.6 C 29 %
1906 15-12-2018 21:12:17 -2 C 30 %
1907 15-12-2018 21:24:17 -1.8 C 30 %
1908 15-12-2018 21:36:17 -1.4 C 23 %
1909 15-12-2018 21:48:17 -1.2 C 21 %
1910 15-12-2018 22:00:17 -1.6 C 28 %
1911 15-12-2018 22:12:17 -1.6 C 25 %
1912 15-12-2018 22:24:17 -1.6 C 27 %
1913 15-12-2018 22:36:18 -1.8 C 31 %
1914 15-12-2018 22:48:17 -1.5 C 31 %
1915 15-12-2018 23:00:17 -0.8 C 21 %
1916 15-12-2018 23:12:17 -0.7 C 20 %
1917 15-12-2018 23:24:18 -0.7 C 20 %
1918 15-12-2018 23:36:17 -0.6 C 20 %
1919 15-12-2018 23:48:17 -0.5 C 20 %
1920 16-12-2018 00:00:17 -0.5 C 20 %
1921 16-12-2018 00:12:17 -0.5 C 20 %
1922 16-12-2018 00:24:17 -0.5 C 20 %
1923 16-12-2018 00:36:17 -0.4 C 20 %
1924 16-12-2018 00:48:17 -0.4 C 20 %
1925 16-12-2018 01:00:18 -0.4 C 20 %
Sensor: Nr:Datum:Temp:Feuchte:
Aussen-T/F 1926 16-12-2018 01:12:18 -0.3 C 20 %
1927 16-12-2018 01:24:17 -0.4 C 20 %
1928 16-12-2018 01:36:18 -0.4 C 20 %
1929 16-12-2018 01:48:17 -0.4 C 20 %
1930 16-12-2018 02:00:17 -0.4 C 20 %
1931 16-12-2018 02:12:17 -0.4 C 20 %
1932 16-12-2018 02:24:18 -0.4 C 20 %
1933 16-12-2018 02:36:17 -0.4 C 20 %
1934 16-12-2018 02:48:17 -0.4 C 20 %
1935 16-12-2018 03:00:18 -0.4 C 20 %
1936 16-12-2018 03:12:18 -0.4 C 20 %
1937 16-12-2018 03:24:17 -0.6 C 20 %
1938 16-12-2018 03:36:17 -0.8 C 25 %
1939 16-12-2018 03:48:17 -1 C 31 %
1940 16-12-2018 04:00:17 -1.2 C 36 %
1941 16-12-2018 04:12:17 -1.3 C 38 %
1942 16-12-2018 04:24:18 -1.4 C 38 %
1943 16-12-2018 04:36:17 -1.5 C 40 %
1944 16-12-2018 04:48:17 -1.6 C 42 %
1945 16-12-2018 05:00:17 -1.7 C 44 %
1946 16-12-2018 05:12:17 -1.7 C 44 %
1947 16-12-2018 05:24:17 -1.7 C 46 %
1948 16-12-2018 05:36:17 -1.7 C 46 %
1949 16-12-2018 05:48:17 -1.7 C 47 %
1950 16-12-2018 06:00:17 -1.7 C 47 %
Sensor: Nr:Datum:Temp:Feuchte:
Aussen-T/F 1951 16-12-2018 06:12:17 -1.7 C 48 %
1952 16-12-2018 06:24:17 -1.7 C 48 %
1953 16-12-2018 06:36:17 -1.7 C 47 %
1954 16-12-2018 06:48:17 -1.7 C 47 %
1955 16-12-2018 07:00:18 -1.8 C 47 %
1956 16-12-2018 07:12:18 -1.8 C 48 %
1957 16-12-2018 07:24:17 -1.7 C 47 %
1958 16-12-2018 07:36:17 -1.7 C 47 %
1959 16-12-2018 07:48:17 -1.7 C 47 %
1960 16-12-2018 08:00:17 -1.7 C 47 %
1961 16-12-2018 08:12:17 -1.7 C 47 %
1962 16-12-2018 08:24:17 -1.6 C 47 %
1963 16-12-2018 08:36:17 -1.6 C 47 %
1964 16-12-2018 08:48:17 -1.4 C 46 %
1965 16-12-2018 09:00:18 -1.3 C 46 %
1966 16-12-2018 09:12:18 -1.4 C 45 %
1967 16-12-2018 09:24:17 -1.2 C 45 %
1968 16-12-2018 09:36:17 -1.2 C 44 %
1969 16-12-2018 09:48:17 -1 C 43 %
1970 16-12-2018 10:00:18 -0.9 C 41 %
1971 16-12-2018 10:12:18 -0.9 C 40 %
1972 16-12-2018 10:24:17 -0.8 C 40 %
1973 16-12-2018 10:36:17 -0.7 C 40 %
1974 16-12-2018 10:48:17 -0.7 C 40 %
1975 16-12-2018 11:00:17 -0.6 C 40 %
Sensor: Nr:Datum:Temp:Feuchte:
Aussen-T/F 1976 16-12-2018 11:12:18 -0.6 C 41 %
1977 16-12-2018 11:24:17 -0.5 C 41 %
1978 16-12-2018 11:36:17 -0.4 C 42 %
1979 16-12-2018 11:48:17 -0.2 C 42 %
1980 16-12-2018 12:00:17 0 C 40 %
1981 16-12-2018 12:12:17 0.2 C 41 %
1982 16-12-2018 12:24:17 0.3 C 42 %
1983 16-12-2018 12:36:17 0.4 C 43 %
1984 16-12-2018 12:48:17 0.5 C 43 %
1985 16-12-2018 13:00:17 0.5 C 44 %
1986 16-12-2018 13:12:17 0.7 C 44 %
1987 16-12-2018 13:24:17 0.8 C 44 %
1988 16-12-2018 13:36:17 0.8 C 44 %
1989 16-12-2018 13:48:17 0.8 C 45 %
1990 16-12-2018 14:00:17 0.7 C 45 %
1991 16-12-2018 14:12:17 0.7 C 46 %
1992 16-12-2018 14:24:17 0.6 C 47 %
1993 16-12-2018 14:36:17 0.7 C 47 %
1994 16-12-2018 14:48:17 0.7 C 48 %
1995 16-12-2018 15:00:17 0.7 C 49 %
1996 16-12-2018 15:12:17 0.8 C 50 %
1997 16-12-2018 15:24:17 0.8 C 50 %
1998 16-12-2018 15:36:17 0.8 C 51 %
1999 16-12-2018 15:48:17 0.8 C 51 %
2000 16-12-2018 16:00:17 0.8 C 52 %
Sensor: Nr:Datum:Temp:Feuchte:
Aussen-T/F 2001 16-12-2018 16:12:17 0.7 C 52 %
2002 16-12-2018 16:24:17 0.7 C 53 %
2003 16-12-2018 16:36:17 0.6 C 54 %
2004 16-12-2018 16:48:17 1.1 C 55 %
2005 16-12-2018 17:00:17 1.2 C 54 %
2006 16-12-2018 17:12:17 1.1 C 53 %
2007 16-12-2018 17:24:17 1.2 C 53 %
2008 16-12-2018 17:36:17 1.2 C 53 %
2009 16-12-2018 17:48:17 0.9 C 53 %
2010 16-12-2018 18:00:17 0.8 C 54 %
2011 16-12-2018 18:12:17 0.8 C 55 %
2012 16-12-2018 18:24:17 0.6 C 55 %
2013 16-12-2018 18:36:17 0.7 C 56 %
2014 16-12-2018 18:48:17 1.1 C 56 %
2015 16-12-2018 19:00:17 1.2 C 56 %
2016 16-12-2018 19:12:17 1.3 C 56 %
2017 16-12-2018 19:24:17 1.5 C 55 %
2018 16-12-2018 19:36:17 1.5 C 55 %
2019 16-12-2018 19:48:17 1.6 C 55 %
2020 16-12-2018 20:00:17 1.7 C 55 %
2021 16-12-2018 20:12:17 1.7 C 55 %
2022 16-12-2018 20:24:17 1.6 C 54 %
2023 16-12-2018 20:36:17 1.5 C 54 %
2024 16-12-2018 20:48:17 1.6 C 54 %
2025 16-12-2018 21:00:17 1.7 C 55 %
Sensor: Nr:Datum:Temp:Feuchte:
Aussen-T/F 2026 16-12-2018 21:12:17 1.7 C 54 %
2027 16-12-2018 21:24:18 1.6 C 54 %
2028 16-12-2018 21:36:17 1.7 C 54 %
2029 16-12-2018 21:48:17 1.7 C 55 %
2030 16-12-2018 22:00:17 1.7 C 55 %
2031 16-12-2018 22:12:17 1.9 C 55 %
2032 16-12-2018 22:24:17 1.8 C 55 %
2033 16-12-2018 22:36:17 1.8 C 55 %
2034 16-12-2018 22:48:17 1.8 C 55 %
2035 16-12-2018 23:00:17 1.8 C 55 %
2036 16-12-2018 23:12:17 1.9 C 55 %
2037 16-12-2018 23:24:17 1.9 C 55 %
2038 16-12-2018 23:36:17 1.9 C 55 %
2039 16-12-2018 23:48:17 2 C 54 %
2040 17-12-2018 00:00:17 1.9 C 55 %
2041 17-12-2018 00:12:17 1.8 C 54 %
2042 17-12-2018 00:24:17 1.8 C 55 %
2043 17-12-2018 00:36:17 1.8 C 55 %
2044 17-12-2018 00:48:17 1.8 C 55 %
2045 17-12-2018 01:00:17 1.7 C 55 %
2046 17-12-2018 01:12:17 1.8 C 55 %
2047 17-12-2018 01:24:17 1.5 C 54 %
2048 17-12-2018 01:36:17 1.2 C 53 %
2049 17-12-2018 01:48:17 1.3 C 55 %
2050 17-12-2018 02:00:17 1.7 C 59 %
Sensor: Nr:Datum:Temp:Feuchte:
Aussen-T/F 2051 17-12-2018 02:12:17 1.9 C 60 %
2052 17-12-2018 02:24:17 2 C 59 %
2053 17-12-2018 02:36:17 2.1 C 59 %
2054 17-12-2018 02:48:17 2.2 C 59 %
2055 17-12-2018 03:00:17 2.3 C 59 %
2056 17-12-2018 03:12:17 2.3 C 57 %
2057 17-12-2018 03:24:17 2.3 C 56 %
2058 17-12-2018 03:36:17 2.4 C 56 %
2059 17-12-2018 03:48:17 2.4 C 55 %
2060 17-12-2018 04:00:17 2.5 C 55 %
2061 17-12-2018 04:12:17 2.4 C 54 %
2062 17-12-2018 04:24:17 2.5 C 53 %
2063 17-12-2018 04:36:17 2.5 C 53 %
2064 17-12-2018 04:48:17 2.5 C 53 %
2065 17-12-2018 05:00:17 2.1 C 51 %
2066 17-12-2018 05:12:17 1.4 C 50 %
2067 17-12-2018 05:24:17 0.7 C 51 %
2068 17-12-2018 05:36:17 0.6 C 52 %
2069 17-12-2018 05:48:17 0.6 C 53 %
2070 17-12-2018 06:00:17 1 C 55 %
2071 17-12-2018 06:12:17 1.1 C 58 %
2072 17-12-2018 06:24:17 0.7 C 59 %
2073 17-12-2018 06:36:17 0.9 C 63 %
2074 17-12-2018 06:48:17 1.2 C 66 %
2075 17-12-2018 07:00:17 1.3 C 68 %
Sensor: Nr:Datum:Temp:Feuchte:
Aussen-T/F 2076 17-12-2018 07:12:17 1.3 C 69 %
2077 17-12-2018 07:24:17 1.1 C 68 %
2078 17-12-2018 07:36:17 1.4 C 71 %
2079 17-12-2018 07:48:17 1.6 C 72 %
2080 17-12-2018 08:00:17 1.8 C 73 %
2081 17-12-2018 08:12:17 1.8 C 73 %
2082 17-12-2018 08:24:17 1.9 C 74 %
2083 17-12-2018 08:36:17 2 C 73 %
2084 17-12-2018 08:48:17 2 C 73 %
2085 17-12-2018 09:00:17 2.2 C 73 %
2086 17-12-2018 09:12:17 2.3 C 73 %
2087 17-12-2018 09:24:17 2.4 C 73 %
2088 17-12-2018 09:36:17 2.6 C 73 %
2089 17-12-2018 09:48:17 2.7 C 72 %
2090 17-12-2018 10:00:17 2.7 C 72 %
2091 17-12-2018 10:12:17 2.8 C 71 %
2092 17-12-2018 10:24:17 3 C 70 %
2093 17-12-2018 10:36:17 3.1 C 68 %
2094 17-12-2018 10:48:17 3.3 C 67 %
2095 17-12-2018 11:00:17 3.3 C 65 %
2096 17-12-2018 11:12:17 3.9 C 65 %
2097 17-12-2018 11:24:17 4.5 C 63 %
2098 17-12-2018 11:36:18 4.6 C 52 %
2099 17-12-2018 11:48:17 5 C 49 %
2100 17-12-2018 12:00:17 5.3 C 45 %
Sensor: Nr:Datum:Temp:Feuchte:
Aussen-T/F 2101 17-12-2018 12:12:17 5.3 C 41 %
2102 17-12-2018 12:24:17 5.5 C 40 %
2103 17-12-2018 12:36:17 5.6 C 40 %
2104 17-12-2018 12:48:17 5.8 C 38 %
2105 17-12-2018 13:00:17 5.9 C 36 %
2106 17-12-2018 13:12:17 6.1 C 35 %
2107 17-12-2018 13:24:17 6.1 C 35 %
2108 17-12-2018 13:36:17 6 C 35 %
2109 17-12-2018 13:48:17 6.1 C 35 %
2110 17-12-2018 14:00:17 6.1 C 35 %
2111 17-12-2018 14:12:17 6.1 C 35 %
2112 17-12-2018 14:24:17 5.7 C 36 %
2113 17-12-2018 14:36:17 5.8 C 37 %
2114 17-12-2018 14:48:17 6.2 C 35 %
2115 17-12-2018 15:00:17 5.9 C 36 %
2116 17-12-2018 15:12:17 5.9 C 35 %
2117 17-12-2018 15:24:17 5.7 C 36 %
2118 17-12-2018 15:36:17 5.8 C 36 %
2119 17-12-2018 15:48:17 6.2 C 35 %
2120 17-12-2018 16:00:17 6.2 C 35 %
2121 17-12-2018 16:12:17 6.1 C 35 %
2122 17-12-2018 16:24:17 5.9 C 37 %
2123 17-12-2018 16:36:18 5.8 C 38 %
2124 17-12-2018 16:48:17 5.6 C 38 %
2125 17-12-2018 17:00:18 5.5 C 38 %
Sensor: Nr:Datum:Temp:Feuchte:
Aussen-T/F 2126 17-12-2018 17:12:18 5.2 C 39 %
2127 17-12-2018 17:24:17 4.4 C 40 %
2128 17-12-2018 17:36:17 3.8 C 45 %
2129 17-12-2018 17:48:17 4.3 C 47 %
2130 17-12-2018 18:00:17 4.4 C 46 %
2131 17-12-2018 18:12:17 4.6 C 41 %
2132 17-12-2018 18:24:17 4.1 C 43 %
2133 17-12-2018 18:36:17 3.8 C 46 %
2134 17-12-2018 18:48:17 3.8 C 47 %
2135 17-12-2018 19:00:17 3.5 C 48 %
2136 17-12-2018 19:12:17 3.6 C 49 %
2137 17-12-2018 19:24:17 3 C 48 %
2138 17-12-2018 19:36:17 3.4 C 52 %
2139 17-12-2018 19:48:17 3.6 C 52 %
2140 17-12-2018 20:00:17 3.3 C 50 %
2141 17-12-2018 20:12:17 3 C 50 %
2142 17-12-2018 20:24:17 3.9 C 54 %
2143 17-12-2018 20:36:17 3.7 C 52 %
2144 17-12-2018 20:48:17 3.5 C 51 %
2145 17-12-2018 21:00:17 3.4 C 51 %
2146 17-12-2018 21:12:17 3.5 C 52 %
2147 17-12-2018 21:24:17 3.2 C 52 %
2148 17-12-2018 21:36:17 3.1 C 52 %
2149 17-12-2018 21:48:17 3.7 C 54 %
2150 17-12-2018 22:00:17 4.5 C 54 %
Sensor: Nr:Datum:Temp:Feuchte:
Aussen-T/F 2151 17-12-2018 22:12:17 5 C 50 %
2152 17-12-2018 22:24:17 5 C 45 %
2153 17-12-2018 22:36:17 5.4 C 41 %
2154 17-12-2018 22:48:17 5.3 C 40 %
2155 17-12-2018 23:00:17 5.2 C 38 %
2156 17-12-2018 23:12:17 4.9 C 40 %
2157 17-12-2018 23:24:17 4.4 C 42 %
2158 17-12-2018 23:36:17 4.8 C 42 %
2159 17-12-2018 23:48:17 5.3 C 39 %
2160 18-12-2018 00:00:17 5.1 C 39 %
2161 18-12-2018 00:12:17 4.5 C 40 %
2162 18-12-2018 00:24:17 3.7 C 42 %
2163 18-12-2018 00:36:17 3.7 C 47 %
2164 18-12-2018 00:48:17 3.7 C 48 %
2165 18-12-2018 01:00:17 3.5 C 47 %
2166 18-12-2018 01:12:17 3.7 C 48 %
2167 18-12-2018 01:24:17 2.8 C 48 %
2168 18-12-2018 01:36:17 2.8 C 50 %
2169 18-12-2018 01:48:17 3.6 C 52 %
2170 18-12-2018 02:00:17 3.3 C 51 %
2171 18-12-2018 02:12:17 4.3 C 52 %
2172 18-12-2018 02:24:17 4.7 C 46 %
2173 18-12-2018 02:36:17 4.9 C 41 %
2174 18-12-2018 02:48:17 5.1 C 39 %
2175 18-12-2018 03:00:17 5.2 C 39 %
Sensor: Nr:Datum:Temp:Feuchte:
Aussen-T/F 2176 18-12-2018 03:12:17 5.4 C 38 %
2177 18-12-2018 03:24:17 5.3 C 38 %
2178 18-12-2018 03:36:17 5.2 C 39 %
2179 18-12-2018 03:49:17 5.3 C 40 %
2180 18-12-2018 04:01:17 5.3 C 38 %
2181 18-12-2018 04:12:17 5.4 C 38 %
2182 18-12-2018 04:24:17 5.5 C 37 %
2183 18-12-2018 04:37:17 5.7 C 36 %
2184 18-12-2018 04:49:17 5.6 C 35 %
2185 18-12-2018 05:00:18 5.6 C 35 %
2186 18-12-2018 05:12:18 5.5 C 36 %
2187 18-12-2018 05:24:17 5.3 C 36 %
2188 18-12-2018 05:36:17 5.3 C 38 %
2189 18-12-2018 05:49:17 5.2 C 39 %
2190 18-12-2018 06:01:17 5.2 C 40 %
2191 18-12-2018 06:13:17 5.1 C 40 %
2192 18-12-2018 06:24:17 5 C 41 %
2193 18-12-2018 06:37:17 5 C 41 %
2194 18-12-2018 06:49:17 5 C 41 %
2195 18-12-2018 07:01:17 5 C 41 %
2196 18-12-2018 07:13:17 5 C 40 %
2197 18-12-2018 07:25:17 5.1 C 40 %
2198 18-12-2018 07:37:17 5.1 C 39 %
2199 18-12-2018 07:49:17 5.3 C 38 %
2200 18-12-2018 08:00:18 5.3 C 37 %
Sensor: Nr:Datum:Temp:Feuchte:
Aussen-T/F 2201 18-12-2018 08:12:18 5.4 C 36 %
2202 18-12-2018 08:25:17 5.5 C 35 %
2203 18-12-2018 08:37:17 5.4 C 35 %
2204 18-12-2018 08:49:17 5.7 C 33 %
2205 18-12-2018 09:01:17 6 C 30 %
2206 18-12-2018 09:13:17 5.9 C 30 %
2207 18-12-2018 09:25:17 5.9 C 30 %
2208 18-12-2018 09:37:17 5.9 C 30 %
2209 18-12-2018 09:49:17 5.8 C 31 %
2210 18-12-2018 10:01:17 5.7 C 31 %
2211 18-12-2018 10:13:17 5.6 C 32 %
2212 18-12-2018 10:25:17 5.4 C 32 %
2213 18-12-2018 10:37:17 5.1 C 34 %
2214 18-12-2018 10:48:18 4.9 C 35 %
2215 18-12-2018 11:00:18 4.7 C 36 %
2216 18-12-2018 11:12:18 4.6 C 37 %
2217 18-12-2018 11:25:17 4.6 C 37 %
2218 18-12-2018 11:36:18 4.6 C 37 %
2219 18-12-2018 11:48:18 4.7 C 37 %
2220 18-12-2018 12:00:17 4.7 C 37 %
2221 18-12-2018 12:12:18 4.8 C 36 %
2222 18-12-2018 12:25:17 5.1 C 35 %
2223 18-12-2018 12:36:18 5.3 C 33 %
2224 18-12-2018 12:48:18 5.5 C 33 %
2225 18-12-2018 13:00:18 5.7 C 32 %
Sensor: Nr:Datum:Temp:Feuchte:
Aussen-T/F 2226 18-12-2018 13:12:18 5.9 C 31 %
2227 18-12-2018 13:25:17 6.2 C 30 %
2228 18-12-2018 13:37:17 6 C 31 %
2229 18-12-2018 13:49:17 5.9 C 31 %
2230 18-12-2018 14:01:17 5.9 C 31 %
2231 18-12-2018 14:13:17 5.7 C 33 %
2232 18-12-2018 14:25:17 5.4 C 36 %
2233 18-12-2018 14:37:17 5.3 C 36 %
2234 18-12-2018 14:49:17 5 C 38 %
2235 18-12-2018 15:00:18 5.1 C 37 %
2236 18-12-2018 15:12:18 4.6 C 41 %
2237 18-12-2018 15:25:17 4.4 C 42 %
2238 18-12-2018 15:37:17 4.1 C 43 %
2239 18-12-2018 15:49:17 3.7 C 45 %
2240 18-12-2018 16:01:17 3.5 C 47 %
2241 18-12-2018 16:13:17 3.2 C 49 %
2242 18-12-2018 16:25:17 2.5 C 49 %
2243 18-12-2018 16:37:17 2.4 C 51 %
2244 18-12-2018 16:49:17 2.3 C 52 %
2245 18-12-2018 17:01:17 2.1 C 52 %
2246 18-12-2018 17:13:17 2.2 C 54 %
2247 18-12-2018 17:25:17 2.3 C 54 %
2248 18-12-2018 17:37:17 2 C 53 %
2249 18-12-2018 17:49:18 1.8 C 54 %
2250 18-12-2018 18:00:18 1.8 C 55 %
Sensor: Nr:Datum:Temp:Feuchte:
Aussen-T/F 2251 18-12-2018 18:12:18 1.4 C 54 %
2252 18-12-2018 18:25:17 1.3 C 55 %
2253 18-12-2018 18:37:18 1.5 C 55 %
2254 18-12-2018 18:49:17 1.3 C 55 %
2255 18-12-2018 19:01:17 1.1 C 55 %
2256 18-12-2018 19:13:17 1 C 55 %
2257 18-12-2018 19:25:17 1.5 C 57 %
2258 18-12-2018 19:37:17 1.2 C 56 %
2259 18-12-2018 19:49:17 0.9 C 57 %
2260 18-12-2018 20:01:17 0.9 C 57 %
2261 18-12-2018 20:13:17 1.3 C 60 %
2262 18-12-2018 20:25:17 1.2 C 59 %
2263 18-12-2018 20:37:18 1 C 58 %
2264 18-12-2018 20:49:17 0.7 C 59 %
2265 18-12-2018 21:01:17 1.8 C 66 %
2266 18-12-2018 21:13:17 2.7 C 68 %
2267 18-12-2018 21:25:17 3 C 57 %
2268 18-12-2018 21:37:17 3.4 C 50 %
2269 18-12-2018 21:49:17 3.5 C 45 %
2270 18-12-2018 22:01:17 3.8 C 39 %
2271 18-12-2018 22:13:17 4.3 C 33 %
2272 18-12-2018 22:25:17 4.2 C 30 %
2273 18-12-2018 22:37:17 4.3 C 30 %
2274 18-12-2018 22:49:17 4.2 C 28 %
2275 18-12-2018 23:01:17 4.2 C 27 %
Sensor: Nr:Datum:Temp:Feuchte:
Aussen-T/F 2276 18-12-2018 23:13:17 4.1 C 27 %
2277 18-12-2018 23:25:17 4 C 27 %
2278 18-12-2018 23:37:17 4.1 C 27 %
2279 18-12-2018 23:49:17 4.1 C 26 %
2280 19-12-2018 00:01:17 4 C 26 %
2281 19-12-2018 00:13:17 4 C 26 %
2282 19-12-2018 00:25:17 3.8 C 28 %
2283 19-12-2018 00:37:17 3.6 C 29 %
2284 19-12-2018 00:49:17 3.6 C 30 %
2285 19-12-2018 01:01:17 3.5 C 30 %
2286 19-12-2018 01:13:17 3.7 C 29 %
2287 19-12-2018 01:25:17 3.5 C 30 %
2288 19-12-2018 01:37:17 3.3 C 30 %
2289 19-12-2018 01:49:17 3.3 C 31 %
2290 19-12-2018 02:01:17 3.4 C 30 %
2291 19-12-2018 02:13:17 3.4 C 30 %
2292 19-12-2018 02:25:17 3.4 C 30 %
2293 19-12-2018 02:37:17 3.3 C 30 %
2294 19-12-2018 02:49:17 3.1 C 32 %
2295 19-12-2018 03:01:17 3.1 C 33 %
2296 19-12-2018 03:13:17 3 C 34 %
2297 19-12-2018 03:25:17 3.1 C 35 %
2298 19-12-2018 03:37:17 3.1 C 35 %
2299 19-12-2018 03:49:17 3.2 C 35 %
2300 19-12-2018 04:01:17 3.3 C 35 %
Sensor: Nr:Datum:Temp:Feuchte:
Aussen-T/F 2301 19-12-2018 04:13:17 3.3 C 36 %
2302 19-12-2018 04:25:17 3.4 C 35 %
2303 19-12-2018 04:37:17 3.5 C 35 %
2304 19-12-2018 04:49:17 3.8 C 33 %
2305 19-12-2018 05:01:17 4.3 C 30 %
2306 19-12-2018 05:13:17 4.1 C 31 %
2307 19-12-2018 05:25:17 3.9 C 37 %
2308 19-12-2018 05:37:17 3.8 C 40 %
2309 19-12-2018 05:49:17 3.8 C 42 %
2310 19-12-2018 06:01:18 3.9 C 43 %
2311 19-12-2018 06:13:18 3.9 C 42 %
2312 19-12-2018 06:25:17 4 C 41 %
2313 19-12-2018 06:37:17 4.1 C 40 %
2314 19-12-2018 06:49:17 4.3 C 39 %
2315 19-12-2018 07:01:17 4.5 C 39 %
2316 19-12-2018 07:13:17 4.7 C 38 %
2317 19-12-2018 07:25:17 4.9 C 37 %
2318 19-12-2018 07:37:17 5.1 C 37 %
2319 19-12-2018 07:49:17 5.2 C 36 %
2320 19-12-2018 08:01:17 5.3 C 36 %
2321 19-12-2018 08:13:17 5.2 C 38 %
2322 19-12-2018 08:25:17 5.5 C 39 %
2323 19-12-2018 08:37:17 5.7 C 40 %
2324 19-12-2018 08:49:17 5.6 C 40 %
2325 19-12-2018 09:01:17 5.9 C 42 %
Sensor: Nr:Datum:Temp:Feuchte:
Aussen-T/F 2326 19-12-2018 09:13:17 6 C 41 %
2327 19-12-2018 09:25:17 6.2 C 41 %
2328 19-12-2018 09:37:17 5.9 C 41 %
2329 19-12-2018 09:49:17 6 C 43 %
2330 19-12-2018 10:01:17 6.4 C 44 %
2331 19-12-2018 10:13:17 6.7 C 43 %
2332 19-12-2018 10:25:17 6.4 C 40 %
2333 19-12-2018 10:37:17 6.5 C 40 %
2334 19-12-2018 10:49:17 6.7 C 37 %
2335 19-12-2018 11:01:17 6.8 C 36 %
2336 19-12-2018 11:13:17 6.9 C 37 %
2337 19-12-2018 11:25:17 7.3 C 37 %
2338 19-12-2018 11:37:17 7.4 C 37 %
2339 19-12-2018 11:49:17 7.6 C 39 %
2340 19-12-2018 12:01:17 8 C 39 %
2341 19-12-2018 12:13:17 8.3 C 35 %
2342 19-12-2018 12:25:17 8.5 C 31 %
2343 19-12-2018 12:37:17 8.8 C 31 %
2344 19-12-2018 12:49:17 9 C 30 %
2345 19-12-2018 13:01:16 8.8 C 31 %
2346 19-12-2018 13:13:16 8.7 C 32 %
2347 19-12-2018 13:25:17 8.7 C 30 %
2348 19-12-2018 13:37:16 8.5 C 30 %
2349 19-12-2018 13:49:16 8.6 C 30 %
2350 19-12-2018 14:01:17 8.6 C 29 %
Sensor: Nr:Datum:Temp:Feuchte:
Aussen-T/F 2351 19-12-2018 14:13:17 8.8 C 29 %
2352 19-12-2018 14:25:16 8.9 C 29 %
2353 19-12-2018 14:37:17 8.7 C 29 %
2354 19-12-2018 14:49:16 8.5 C 30 %
2355 19-12-2018 15:01:17 8.5 C 30 %
2356 19-12-2018 15:13:17 8.5 C 30 %
2357 19-12-2018 15:25:17 8.3 C 30 %
2358 19-12-2018 15:37:17 8.1 C 31 %
2359 19-12-2018 15:49:17 8 C 31 %
2360 19-12-2018 16:01:17 7.8 C 32 %
2361 19-12-2018 16:13:17 7.6 C 33 %
2362 19-12-2018 16:25:16 7.4 C 34 %
2363 19-12-2018 16:37:17 7 C 35 %
2364 19-12-2018 16:49:17 6.7 C 38 %
2365 19-12-2018 17:01:17 6.9 C 38 %
2366 19-12-2018 17:13:17 6.5 C 37 %
2367 19-12-2018 17:25:16 6.4 C 40 %
2368 19-12-2018 17:37:16 6.4 C 40 %
2369 19-12-2018 17:49:17 6.2 C 41 %
2370 19-12-2018 18:01:17 6.4 C 42 %
2371 19-12-2018 18:13:17 6.6 C 41 %
2372 19-12-2018 18:25:17 6.7 C 40 %
2373 19-12-2018 18:37:17 6.8 C 39 %
2374 19-12-2018 18:49:17 6.8 C 38 %
2375 19-12-2018 19:01:16 6.7 C 38 %
Sensor: Nr:Datum:Temp:Feuchte:
Aussen-T/F 2376 19-12-2018 19:13:16 6.4 C 38 %
2377 19-12-2018 19:25:17 5.9 C 40 %
2378 19-12-2018 19:37:17 5.3 C 41 %
2379 19-12-2018 19:49:16 5 C 45 %
2380 19-12-2018 20:01:16 4.7 C 46 %
2381 19-12-2018 20:13:16 5 C 48 %
2382 19-12-2018 20:25:17 5.7 C 50 %
2383 19-12-2018 20:37:17 6 C 45 %
2384 19-12-2018 20:49:17 5.7 C 44 %
2385 19-12-2018 21:01:17 5.6 C 45 %
2386 19-12-2018 21:13:17 5.6 C 45 %
2387 19-12-2018 21:25:16 5.8 C 45 %
2388 19-12-2018 21:37:16 5.9 C 45 %
2389 19-12-2018 21:49:17 5.8 C 44 %
2390 19-12-2018 22:01:16 5.6 C 45 %
2391 19-12-2018 22:13:16 5.6 C 46 %
2392 19-12-2018 22:25:16 5.7 C 48 %
2393 19-12-2018 22:37:16 5.8 C 49 %
2394 19-12-2018 22:49:16 5.8 C 49 %
2395 19-12-2018 23:01:16 5.1 C 47 %
2396 19-12-2018 23:13:16 5.2 C 49 %
2397 19-12-2018 23:25:16 5.5 C 50 %
2398 19-12-2018 23:37:16 5.7 C 50 %
2399 19-12-2018 23:49:16 5.7 C 49 %
2400 20-12-2018 00:01:16 5.7 C 49 %
Sensor: Nr:Datum:Temp:Feuchte:
Aussen-T/F 2401 20-12-2018 00:13:16 5.6 C 48 %
2402 20-12-2018 00:25:16 5.5 C 48 %
2403 20-12-2018 00:37:16 5.6 C 48 %
2404 20-12-2018 00:49:16 5.6 C 47 %
2405 20-12-2018 01:01:16 5.4 C 47 %
2406 20-12-2018 01:13:16 5.6 C 48 %
2407 20-12-2018 01:25:16 5.4 C 48 %
2408 20-12-2018 01:37:16 5.3 C 48 %
2409 20-12-2018 01:49:16 5.6 C 50 %
2410 20-12-2018 02:01:16 5.6 C 50 %
2411 20-12-2018 02:13:16 5.3 C 48 %
2412 20-12-2018 02:25:16 5.3 C 50 %
2413 20-12-2018 02:37:16 5.6 C 51 %
2414 20-12-2018 02:49:18 5.6 C 51 %
2415 20-12-2018 03:01:18 5.8 C 51 %
2416 20-12-2018 03:13:18 5.5 C 50 %
2417 20-12-2018 03:25:17 5.5 C 50 %
2418 20-12-2018 03:37:18 5.6 C 50 %
2419 20-12-2018 03:49:18 5.9 C 50 %
2420 20-12-2018 04:01:17 6 C 47 %
2421 20-12-2018 04:13:18 5.8 C 46 %
2422 20-12-2018 04:25:18 5.7 C 46 %
2423 20-12-2018 04:37:18 5.8 C 47 %
2424 20-12-2018 04:49:18 5.9 C 46 %
2425 20-12-2018 05:01:18 6 C 45 %
Sensor: Nr:Datum:Temp:Feuchte:
Aussen-T/F 2426 20-12-2018 05:13:18 6 C 45 %
2427 20-12-2018 05:25:17 6 C 45 %
2428 20-12-2018 05:37:17 6.2 C 45 %
2429 20-12-2018 05:49:17 6.2 C 44 %
2430 20-12-2018 06:01:17 6.3 C 43 %
2431 20-12-2018 06:13:17 6.3 C 43 %
2432 20-12-2018 06:25:17 6.4 C 43 %
2433 20-12-2018 06:37:17 6.5 C 42 %
2434 20-12-2018 06:49:17 6.5 C 43 %
2435 20-12-2018 07:01:17 6.5 C 43 %
2436 20-12-2018 07:13:17 6.5 C 42 %
2437 20-12-2018 07:25:18 6.2 C 43 %
2438 20-12-2018 07:37:17 5.7 C 45 %
2439 20-12-2018 07:49:17 5.7 C 48 %
2440 20-12-2018 08:01:17 5.3 C 48 %
2441 20-12-2018 08:13:17 5.2 C 49 %
2442 20-12-2018 08:25:17 5.7 C 51 %
2443 20-12-2018 08:37:17 6 C 47 %
2444 20-12-2018 08:49:17 6.1 C 45 %
2445 20-12-2018 09:01:17 6.4 C 41 %
2446 20-12-2018 09:13:17 6.2 C 41 %
2447 20-12-2018 09:25:17 6.3 C 42 %
2448 20-12-2018 09:37:17 6.5 C 40 %
2449 20-12-2018 09:49:17 6.6 C 40 %
2450 20-12-2018 10:01:17 7 C 39 %
Sensor: Nr:Datum:Temp:Feuchte:
Aussen-T/F 2451 20-12-2018 10:13:17 7.1 C 37 %
2452 20-12-2018 10:25:17 7.2 C 37 %
2453 20-12-2018 10:37:17 7.3 C 35 %
2454 20-12-2018 10:49:17 7.4 C 35 %
2455 20-12-2018 11:01:17 7.1 C 36 %
2456 20-12-2018 11:13:17 7.1 C 37 %
2457 20-12-2018 11:25:17 7.3 C 35 %
2458 20-12-2018 11:37:17 7.5 C 34 %
2459 20-12-2018 11:49:17 7.6 C 33 %
2460 20-12-2018 12:01:17 8 C 31 %
2461 20-12-2018 12:13:17 8.1 C 31 %
2462 20-12-2018 12:25:17 8.2 C 31 %
2463 20-12-2018 12:37:17 8.1 C 31 %
2464 20-12-2018 12:49:17 8.4 C 31 %
2465 20-12-2018 13:01:17 8.4 C 30 %
2466 20-12-2018 13:13:17 8.7 C 30 %
2467 20-12-2018 13:25:17 9 C 28 %
2468 20-12-2018 13:37:17 8.9 C 29 %
2469 20-12-2018 13:49:17 8.7 C 29 %
2470 20-12-2018 14:01:17 8.7 C 29 %
2471 20-12-2018 14:13:17 8.4 C 29 %
2472 20-12-2018 14:25:17 7.9 C 30 %
2473 20-12-2018 14:37:18 8.2 C 30 %
2474 20-12-2018 14:49:17 8.2 C 31 %
2475 20-12-2018 15:01:17 8.1 C 30 %
Sensor: Nr:Datum:Temp:Feuchte:
Aussen-T/F 2476 20-12-2018 15:13:17 8 C 31 %
2477 20-12-2018 15:25:17 8 C 31 %
2478 20-12-2018 15:37:17 7.8 C 31 %
2479 20-12-2018 15:49:17 7.8 C 31 %
2480 20-12-2018 16:01:17 7.7 C 32 %
2481 20-12-2018 16:13:17 7.6 C 32 %
2482 20-12-2018 16:25:17 7.5 C 33 %
2483 20-12-2018 16:37:18 7.5 C 33 %
2484 20-12-2018 16:49:18 7 C 34 %
2485 20-12-2018 17:01:17 7.1 C 35 %
2486 20-12-2018 17:13:17 7.1 C 34 %
2487 20-12-2018 17:25:17 6.9 C 35 %
2488 20-12-2018 17:37:17 7.1 C 35 %
2489 20-12-2018 17:49:17 7.1 C 35 %
2490 20-12-2018 18:01:17 7 C 36 %
2491 20-12-2018 18:13:17 6.9 C 37 %
2492 20-12-2018 18:25:17 6.8 C 40 %
2493 20-12-2018 18:37:17 6.8 C 41 %
2494 20-12-2018 18:49:17 6.8 C 40 %
2495 20-12-2018 19:01:17 6.8 C 40 %
2496 20-12-2018 19:13:17 7.1 C 38 %
2497 20-12-2018 19:25:17 7.1 C 36 %
2498 20-12-2018 19:37:17 7.1 C 37 %
2499 20-12-2018 19:49:17 7 C 38 %
2500 20-12-2018 20:01:17 6.8 C 39 %
Sensor: Nr:Datum:Temp:Feuchte:
Aussen-T/F 2501 20-12-2018 20:13:17 6.9 C 39 %
2502 20-12-2018 20:25:17 7 C 37 %
2503 20-12-2018 20:37:17 7.2 C 35 %
2504 20-12-2018 20:49:17 7.5 C 35 %
2505 20-12-2018 21:01:17 7.6 C 34 %
2506 20-12-2018 21:13:17 7.6 C 34 %
2507 20-12-2018 21:25:17 7.6 C 35 %
2508 20-12-2018 21:37:17 7.6 C 35 %
2509 20-12-2018 21:49:17 7.8 C 34 %
2510 20-12-2018 22:01:17 7.8 C 33 %
2511 20-12-2018 22:13:17 7.6 C 33 %
2512 20-12-2018 22:25:17 7.8 C 33 %
2513 20-12-2018 22:37:17 7.6 C 34 %
2514 20-12-2018 22:49:17 7.5 C 34 %
2515 20-12-2018 23:01:17 7.6 C 34 %
2516 20-12-2018 23:13:17 7.8 C 33 %
2517 20-12-2018 23:25:17 7.7 C 33 %
2518 20-12-2018 23:37:17 7.8 C 32 %
2519 20-12-2018 23:49:17 8 C 31 %
2520 21-12-2018 00:01:17 7.9 C 33 %
2521 21-12-2018 00:13:17 8 C 32 %
2522 21-12-2018 00:25:17 7.9 C 33 %
2523 21-12-2018 00:37:17 8.1 C 31 %
2524 21-12-2018 00:49:17 8.1 C 31 %
2525 21-12-2018 01:01:17 7.6 C 33 %
Sensor: Nr:Datum:Temp:Feuchte:
Aussen-T/F 2526 21-12-2018 01:13:17 7.9 C 33 %
2527 21-12-2018 01:25:17 8.2 C 30 %
2528 21-12-2018 01:37:17 7.8 C 32 %
2529 21-12-2018 01:49:18 7.6 C 35 %
2530 21-12-2018 02:01:18 7.8 C 32 %
2531 21-12-2018 02:13:18 8 C 30 %
2532 21-12-2018 02:25:17 8.1 C 30 %
2533 21-12-2018 02:37:17 8.2 C 30 %
2534 21-12-2018 02:49:17 8.4 C 28 %
2535 21-12-2018 03:01:17 8.5 C 28 %
2536 21-12-2018 03:13:17 8.4 C 29 %
2537 21-12-2018 03:25:17 8.5 C 29 %
2538 21-12-2018 03:37:17 8.5 C 29 %
2539 21-12-2018 03:49:17 8.5 C 29 %
2540 21-12-2018 04:01:17 8.5 C 29 %
2541 21-12-2018 04:13:17 8.5 C 29 %
2542 21-12-2018 04:25:17 8.5 C 30 %
2543 21-12-2018 04:37:17 8.5 C 29 %
2544 21-12-2018 04:49:17 8.4 C 30 %
2545 21-12-2018 05:01:17 8.4 C 30 %
2546 21-12-2018 05:13:17 8.5 C 30 %
2547 21-12-2018 05:25:17 8.4 C 30 %
2548 21-12-2018 05:37:17 8.4 C 31 %
2549 21-12-2018 05:49:18 8 C 33 %
2550 21-12-2018 06:01:17 7.6 C 39 %
Sensor: Nr:Datum:Temp:Feuchte:
Aussen-T/F 2551 21-12-2018 06:13:17 7.3 C 43 %
2552 21-12-2018 06:25:17 7.3 C 46 %
2553 21-12-2018 06:37:17 7.3 C 50 %
2554 21-12-2018 06:49:18 7.2 C 51 %
2555 21-12-2018 07:01:18 7 C 51 %
2556 21-12-2018 07:13:18 6.9 C 52 %
2557 21-12-2018 07:25:17 6.9 C 52 %
2558 21-12-2018 07:37:17 6.9 C 50 %
2559 21-12-2018 07:49:17 6.9 C 51 %
2560 21-12-2018 08:01:17 7 C 51 %
2561 21-12-2018 08:13:17 7.1 C 51 %
2562 21-12-2018 08:25:17 7.2 C 50 %
2563 21-12-2018 08:37:17 7.4 C 51 %
2564 21-12-2018 08:49:17 7.6 C 51 %
2565 21-12-2018 09:01:17 7.8 C 51 %
2566 21-12-2018 09:13:17 7.9 C 50 %
2567 21-12-2018 09:25:17 8 C 50 %
2568 21-12-2018 09:37:17 8.1 C 50 %
2569 21-12-2018 09:49:17 8.2 C 49 %
2570 21-12-2018 10:01:17 8.3 C 49 %
2571 21-12-2018 10:13:17 8.6 C 49 %
2572 21-12-2018 10:25:17 8.8 C 47 %
2573 21-12-2018 10:37:17 9.1 C 44 %
2574 21-12-2018 10:49:17 9.4 C 41 %
2575 21-12-2018 11:01:17 9.5 C 41 %
Sensor: Nr:Datum:Temp:Feuchte:
Aussen-T/F 2576 21-12-2018 11:13:17 9.9 C 40 %
2577 21-12-2018 11:25:17 10.1 C 37 %
2578 21-12-2018 11:37:17 10.3 C 36 %
2579 21-12-2018 11:49:17 10.5 C 36 %
2580 21-12-2018 12:01:17 10.6 C 36 %
2581 21-12-2018 12:13:17 10.8 C 36 %
2582 21-12-2018 12:25:17 11 C 35 %
2583 21-12-2018 12:37:17 11.3 C 35 %
2584 21-12-2018 12:49:17 11.4 C 35 %
2585 21-12-2018 13:01:17 11.5 C 35 %
2586 21-12-2018 13:13:17 11.7 C 35 %
2587 21-12-2018 13:25:17 11.6 C 36 %
2588 21-12-2018 13:37:17 11.7 C 36 %
2589 21-12-2018 13:49:17 11.4 C 38 %
2590 21-12-2018 14:01:17 11.2 C 41 %
2591 21-12-2018 14:13:17 11.4 C 42 %
2592 21-12-2018 14:25:17 11.7 C 40 %
2593 21-12-2018 14:37:17 12.2 C 35 %
2594 21-12-2018 14:49:17 12.2 C 35 %
2595 21-12-2018 15:01:17 12.3 C 34 %
2596 21-12-2018 15:13:17 12.4 C 34 %
2597 21-12-2018 15:25:17 12.4 C 34 %
2598 21-12-2018 15:37:17 12.7 C 32 %
2599 21-12-2018 15:49:17 12.5 C 32 %
2600 21-12-2018 16:01:18 12.5 C 31 %
Sensor: Nr:Datum:Temp:Feuchte:
Aussen-T/F 2601 21-12-2018 16:13:18 12.9 C 31 %
2602 21-12-2018 16:25:17 12.8 C 30 %
2603 21-12-2018 16:37:17 12.9 C 29 %
2604 21-12-2018 16:49:17 12.9 C 30 %
2605 21-12-2018 17:01:18 12.9 C 29 %
2606 21-12-2018 17:13:18 12.9 C 30 %
2607 21-12-2018 17:25:17 13 C 28 %
2608 21-12-2018 17:37:17 13 C 28 %
2609 21-12-2018 17:49:17 13.1 C 27 %
2610 21-12-2018 18:01:17 13.1 C 27 %
2611 21-12-2018 18:13:17 13 C 27 %
2612 21-12-2018 18:25:17 12.8 C 29 %
2613 21-12-2018 18:37:17 12.8 C 28 %
2614 21-12-2018 18:49:17 12.7 C 29 %
2615 21-12-2018 19:01:17 12.7 C 28 %
2616 21-12-2018 19:13:17 12.8 C 28 %
2617 21-12-2018 19:25:17 12.7 C 28 %
2618 21-12-2018 19:37:17 12.6 C 27 %
2619 21-12-2018 19:49:17 12.6 C 26 %
2620 21-12-2018 20:01:17 12.4 C 27 %
2621 21-12-2018 20:13:17 12.4 C 29 %
2622 21-12-2018 20:25:17 12.4 C 28 %
2623 21-12-2018 20:37:17 12.3 C 28 %
2624 21-12-2018 20:49:18 12.2 C 29 %
2625 21-12-2018 21:01:18 12.2 C 29 %
Sensor: Nr:Datum:Temp:Feuchte:
Aussen-T/F 2626 21-12-2018 21:13:18 12 C 30 %
2627 21-12-2018 21:25:17 11.8 C 31 %
2628 21-12-2018 21:37:17 11.8 C 31 %
2629 21-12-2018 21:49:18 12.3 C 26 %
2630 21-12-2018 22:01:17 12.1 C 27 %
2631 21-12-2018 22:13:17 12.2 C 26 %
2632 21-12-2018 22:25:17 12.3 C 25 %
2633 21-12-2018 22:37:17 12.3 C 24 %
2634 21-12-2018 22:49:18 12.3 C 20 %
2635 21-12-2018 23:01:17 12 C 20 %
2636 21-12-2018 23:13:17 11.8 C 23 %
2637 21-12-2018 23:25:17 11.9 C 23 %
2638 21-12-2018 23:37:17 11.6 C 23 %
2639 21-12-2018 23:49:17 11.5 C 25 %
2640 22-12-2018 00:01:17 11.4 C 25 %
2641 22-12-2018 00:13:17 11.2 C 25 %
2642 22-12-2018 00:25:18 11.1 C 26 %
2643 22-12-2018 00:37:18 10.9 C 27 %
2644 22-12-2018 00:49:17 11 C 26 %
2645 22-12-2018 01:01:18 10.7 C 29 %
2646 22-12-2018 01:13:18 10.4 C 30 %
2647 22-12-2018 01:25:17 10.5 C 31 %
2648 22-12-2018 01:37:17 10.5 C 31 %
2649 22-12-2018 01:49:17 10.8 C 29 %
2650 22-12-2018 02:01:17 10.6 C 26 %
Sensor: Nr:Datum:Temp:Feuchte:
Aussen-T/F 2651 22-12-2018 02:13:17 10.8 C 25 %
2652 22-12-2018 02:25:17 10.6 C 25 %
2653 22-12-2018 02:37:17 10.6 C 25 %
2654 22-12-2018 02:49:17 10.3 C 26 %
2655 22-12-2018 03:01:17 10.3 C 26 %
2656 22-12-2018 03:13:17 10.1 C 28 %
2657 22-12-2018 03:25:17 10.2 C 29 %
2658 22-12-2018 03:37:17 10.2 C 26 %
2659 22-12-2018 03:49:17 10.4 C 26 %
2660 22-12-2018 04:01:17 10.7 C 25 %
2661 22-12-2018 04:13:17 10.7 C 26 %
2662 22-12-2018 04:25:17 10.7 C 25 %
2663 22-12-2018 04:37:17 10.8 C 25 %
2664 22-12-2018 04:49:17 10.7 C 26 %
2665 22-12-2018 05:01:17 10.6 C 27 %
2666 22-12-2018 05:13:17 10.5 C 29 %
2667 22-12-2018 05:25:17 9.6 C 40 %
2668 22-12-2018 05:37:17 9.3 C 44 %
2669 22-12-2018 05:49:17 9.3 C 43 %
2670 22-12-2018 06:01:17 9.5 C 42 %
2671 22-12-2018 06:13:17 9.6 C 43 %
2672 22-12-2018 06:25:17 9.6 C 43 %
2673 22-12-2018 06:37:17 9.7 C 45 %
2674 22-12-2018 06:49:17 9.3 C 47 %
2675 22-12-2018 07:01:18 9.3 C 47 %
Sensor: Nr:Datum:Temp:Feuchte:
Aussen-T/F 2676 22-12-2018 07:13:18 9.3 C 48 %
2677 22-12-2018 07:25:17 9.3 C 47 %
2678 22-12-2018 07:37:17 9.3 C 47 %
2679 22-12-2018 07:49:17 9.6 C 41 %
2680 22-12-2018 08:01:17 9.7 C 40 %
2681 22-12-2018 08:13:17 10 C 36 %
2682 22-12-2018 08:25:18 10.2 C 34 %
2683 22-12-2018 08:37:18 10.2 C 33 %
2684 22-12-2018 08:49:17 10.4 C 31 %
2685 22-12-2018 09:01:17 10.3 C 30 %
2686 22-12-2018 09:13:17 10.5 C 28 %
2687 22-12-2018 09:25:17 10.7 C 28 %
2688 22-12-2018 09:37:17 9.8 C 31 %
2689 22-12-2018 09:49:17 8.9 C 41 %
2690 22-12-2018 10:01:17 8.4 C 44 %
2691 22-12-2018 10:13:17 8.4 C 46 %
2692 22-12-2018 10:25:18 8.2 C 48 %
2693 22-12-2018 10:37:18 8.4 C 47 %
2694 22-12-2018 10:49:18 8.5 C 48 %
2695 22-12-2018 11:01:18 8.9 C 49 %
2696 22-12-2018 11:13:18 8.9 C 48 %
2697 22-12-2018 11:25:17 9.1 C 47 %
2698 22-12-2018 11:37:17 9.4 C 37 %
2699 22-12-2018 11:49:17 9.6 C 33 %
2700 22-12-2018 12:01:17 9.5 C 33 %
Sensor: Nr:Datum:Temp:Feuchte:
Aussen-T/F 2701 22-12-2018 12:13:17 9.7 C 31 %
2702 22-12-2018 12:25:17 10 C 30 %
2703 22-12-2018 12:37:17 10.4 C 29 %
2704 22-12-2018 12:49:17 10.8 C 26 %
2705 22-12-2018 13:01:17 11 C 26 %
2706 22-12-2018 13:13:17 10.9 C 26 %
2707 22-12-2018 13:25:17 11.2 C 24 %
2708 22-12-2018 13:37:17 11.3 C 23 %
2709 22-12-2018 13:49:18 11.4 C 23 %
2710 22-12-2018 14:01:18 11.4 C 21 %
2711 22-12-2018 14:13:18 11.4 C 22 %
2712 22-12-2018 14:25:17 11 C 23 %
2713 22-12-2018 14:37:17 10.7 C 25 %
2714 22-12-2018 14:49:17 10.5 C 25 %
2715 22-12-2018 15:01:17 10.7 C 25 %
2716 22-12-2018 15:13:17 10.6 C 26 %
2717 22-12-2018 15:25:17 10.7 C 23 %
2718 22-12-2018 15:37:17 10.5 C 25 %
2719 22-12-2018 15:49:17 10.3 C 25 %
2720 22-12-2018 16:01:17 10.2 C 25 %
2721 22-12-2018 16:13:17 9.7 C 28 %
2722 22-12-2018 16:25:17 9.6 C 29 %
2723 22-12-2018 16:37:17 9.3 C 30 %
2724 22-12-2018 16:49:17 8.9 C 32 %
2725 22-12-2018 17:01:17 8.4 C 35 %
Sensor: Nr:Datum:Temp:Feuchte:
Aussen-T/F 2726 22-12-2018 17:13:17 8.4 C 34 %
2727 22-12-2018 17:25:17 8.7 C 32 %
2728 22-12-2018 17:37:17 7.9 C 35 %
2729 22-12-2018 17:49:17 7.8 C 39 %
2730 22-12-2018 18:01:17 7.8 C 39 %
2731 22-12-2018 18:13:17 7.6 C 40 %
2732 22-12-2018 18:25:17 7.6 C 41 %
2733 22-12-2018 18:37:17 7.4 C 41 %
2734 22-12-2018 18:49:17 7.1 C 42 %
2735 22-12-2018 19:01:17 7 C 43 %
2736 22-12-2018 19:13:17 6.9 C 46 %
2737 22-12-2018 19:25:17 7.1 C 45 %
2738 22-12-2018 19:37:17 7.1 C 45 %
2739 22-12-2018 19:49:17 7.1 C 44 %
2740 22-12-2018 20:01:17 7.2 C 42 %
2741 22-12-2018 20:13:17 6.8 C 44 %
2742 22-12-2018 20:25:17 6.6 C 46 %
2743 22-12-2018 20:37:17 6.5 C 47 %
2744 22-12-2018 20:49:17 6.6 C 48 %
2745 22-12-2018 21:01:17 6.7 C 48 %
2746 22-12-2018 21:13:17 6.4 C 47 %
2747 22-12-2018 21:25:17 6.3 C 48 %
2748 22-12-2018 21:37:17 6.5 C 49 %
2749 22-12-2018 21:49:17 7 C 47 %
2750 22-12-2018 22:01:17 7.1 C 42 %
Sensor: Nr:Datum:Temp:Feuchte:
Aussen-T/F 2751 22-12-2018 22:13:17 7.4 C 39 %
2752 22-12-2018 22:25:17 7.4 C 37 %
2753 22-12-2018 22:37:17 7.2 C 37 %
2754 22-12-2018 22:49:17 7 C 38 %
2755 22-12-2018 23:01:17 6.8 C 41 %
2756 22-12-2018 23:13:17 6.9 C 42 %
2757 22-12-2018 23:25:17 7 C 41 %
2758 22-12-2018 23:37:17 6.8 C 42 %
2759 22-12-2018 23:49:17 7.1 C 40 %
2760 23-12-2018 00:01:17 6.8 C 40 %
2761 23-12-2018 00:13:17 7 C 40 %
2762 23-12-2018 00:25:17 6.8 C 40 %
2763 23-12-2018 00:37:17 5.7 C 40 %
2764 23-12-2018 00:49:17 5.2 C 45 %
2765 23-12-2018 01:01:17 5.2 C 47 %
2766 23-12-2018 01:13:17 5.1 C 50 %
2767 23-12-2018 01:25:17 5.6 C 53 %
2768 23-12-2018 01:37:17 5.9 C 53 %
2769 23-12-2018 01:49:17 5.3 C 50 %
2770 23-12-2018 02:01:17 4.9 C 51 %
2771 23-12-2018 02:13:17 5 C 52 %
2772 23-12-2018 02:25:17 5.6 C 53 %
2773 23-12-2018 02:37:17 5.4 C 52 %
2774 23-12-2018 02:49:17 5.1 C 50 %
2775 23-12-2018 03:01:17 4.9 C 51 %
Sensor: Nr:Datum:Temp:Feuchte:
Aussen-T/F 2776 23-12-2018 03:13:17 5.5 C 53 %
2777 23-12-2018 03:25:17 6 C 53 %
2778 23-12-2018 03:37:17 6.3 C 51 %
2779 23-12-2018 03:49:17 6.6 C 48 %
2780 23-12-2018 04:01:17 6.7 C 46 %
2781 23-12-2018 04:13:17 6.9 C 45 %
2782 23-12-2018 04:25:17 6.4 C 43 %
2783 23-12-2018 04:37:17 5.8 C 44 %
2784 23-12-2018 04:49:17 5.4 C 46 %
2785 23-12-2018 05:01:18 5.4 C 48 %
2786 23-12-2018 05:13:18 5.8 C 51 %
2787 23-12-2018 05:25:17 6.3 C 51 %
2788 23-12-2018 05:37:17 6.4 C 50 %
2789 23-12-2018 05:49:17 6.5 C 49 %
2790 23-12-2018 06:01:17 6.4 C 49 %
2791 23-12-2018 06:13:17 6.3 C 48 %
2792 23-12-2018 06:25:17 6.5 C 49 %
2793 23-12-2018 06:37:17 6.4 C 48 %
2794 23-12-2018 06:49:17 6.5 C 48 %
2795 23-12-2018 07:01:17 6.5 C 48 %
2796 23-12-2018 07:13:18 6.9 C 47 %
2797 23-12-2018 07:25:18 7 C 44 %
2798 23-12-2018 07:37:18 7.1 C 43 %
2799 23-12-2018 07:49:17 7.4 C 40 %
2800 23-12-2018 08:01:17 7.4 C 40 %
Sensor: Nr:Datum:Temp:Feuchte:
Aussen-T/F 2801 23-12-2018 08:13:17 7.5 C 40 %
2802 23-12-2018 08:25:17 7.1 C 40 %
2803 23-12-2018 08:37:17 7.1 C 42 %
2804 23-12-2018 08:49:17 7.2 C 43 %
2805 23-12-2018 09:01:17 7.5 C 42 %
2806 23-12-2018 09:13:17 7.5 C 41 %
2807 23-12-2018 09:25:17 7.7 C 41 %
2808 23-12-2018 09:37:17 8 C 38 %
2809 23-12-2018 09:49:17 8.3 C 36 %
2810 23-12-2018 10:01:17 8.7 C 34 %
2811 23-12-2018 10:13:17 8.7 C 34 %
2812 23-12-2018 10:25:17 8.9 C 33 %
2813 23-12-2018 10:37:17 9 C 32 %
2814 23-12-2018 10:49:17 9.1 C 32 %
2815 23-12-2018 11:01:17 9.2 C 32 %
2816 23-12-2018 11:13:17 9.2 C 32 %
2817 23-12-2018 11:25:17 9.3 C 32 %
2818 23-12-2018 11:37:17 9.3 C 32 %
2819 23-12-2018 11:49:17 9.4 C 32 %
2820 23-12-2018 12:01:17 9.4 C 32 %
2821 23-12-2018 12:13:17 9.3 C 33 %
2822 23-12-2018 12:25:17 8.7 C 38 %
2823 23-12-2018 12:37:17 8.6 C 41 %
2824 23-12-2018 12:49:17 8.5 C 44 %
2825 23-12-2018 13:01:17 8.3 C 45 %
Sensor: Nr:Datum:Temp:Feuchte:
Aussen-T/F 2826 23-12-2018 13:13:17 8.3 C 47 %
2827 23-12-2018 13:25:17 8.2 C 48 %
2828 23-12-2018 13:37:17 8.1 C 48 %
2829 23-12-2018 13:49:18 8 C 50 %
2830 23-12-2018 14:01:18 8 C 50 %
2831 23-12-2018 14:13:18 8 C 50 %
2832 23-12-2018 14:25:17 8 C 50 %
2833 23-12-2018 14:37:18 8 C 50 %
2834 23-12-2018 14:49:18 8 C 50 %
2835 23-12-2018 15:01:17 8 C 50 %
2836 23-12-2018 15:13:17 7.9 C 51 %
2837 23-12-2018 15:25:18 7.8 C 51 %
2838 23-12-2018 15:37:18 7.8 C 51 %
2839 23-12-2018 15:49:18 7.6 C 51 %
2840 23-12-2018 16:01:18 7.5 C 51 %
2841 23-12-2018 16:13:18 7.5 C 52 %
2842 23-12-2018 16:25:17 7.4 C 52 %
2843 23-12-2018 16:37:18 7.4 C 52 %
2844 23-12-2018 16:49:17 7.3 C 53 %
2845 23-12-2018 17:01:17 7.3 C 53 %
2846 23-12-2018 17:13:17 7.3 C 53 %
2847 23-12-2018 17:25:17 7.3 C 55 %
2848 23-12-2018 17:37:18 7.3 C 55 %
2849 23-12-2018 17:49:17 7.5 C 58 %
2850 23-12-2018 18:01:18 7.5 C 59 %
Sensor: Nr:Datum:Temp:Feuchte:
Aussen-T/F 2851 23-12-2018 18:13:18 7.6 C 60 %
2852 23-12-2018 18:25:18 8 C 63 %
2853 23-12-2018 18:37:17 8.3 C 65 %
2854 23-12-2018 18:49:17 8.2 C 63 %
2855 23-12-2018 19:01:18 8.3 C 62 %
2856 23-12-2018 19:13:18 8.8 C 64 %
2857 23-12-2018 19:25:17 9.4 C 60 %
2858 23-12-2018 19:37:18 9.5 C 50 %
2859 23-12-2018 19:49:17 9.6 C 47 %
2860 23-12-2018 20:01:17 9.6 C 46 %
2861 23-12-2018 20:13:17 9.9 C 46 %
2862 23-12-2018 20:25:17 10.3 C 45 %
2863 23-12-2018 20:37:18 10.5 C 43 %
2864 23-12-2018 20:49:18 10.6 C 42 %
2865 23-12-2018 21:01:18 10.8 C 43 %
2866 23-12-2018 21:13:18 11.4 C 40 %
2867 23-12-2018 21:25:17 11.5 C 40 %
2868 23-12-2018 21:37:17 11.2 C 41 %
2869 23-12-2018 21:49:17 11.1 C 44 %
2870 23-12-2018 22:01:17 10.9 C 47 %
2871 23-12-2018 22:13:17 10.8 C 49 %
2872 23-12-2018 22:25:17 10.8 C 50 %
2873 23-12-2018 22:37:18 10.8 C 51 %
2874 23-12-2018 22:49:17 10.7 C 51 %
2875 23-12-2018 23:01:18 10.8 C 51 %
Sensor: Nr:Datum:Temp:Feuchte:
Aussen-T/F 2876 23-12-2018 23:13:18 11 C 50 %
2877 23-12-2018 23:25:17 11 C 50 %
2878 23-12-2018 23:37:17 10.9 C 50 %
2879 23-12-2018 23:49:18 10.5 C 49 %
2880 24-12-2018 00:01:18 10.3 C 49 %
2881 24-12-2018 00:13:18 9.8 C 49 %
2882 24-12-2018 00:25:17 9.5 C 48 %
2883 24-12-2018 00:37:17 9 C 47 %
2884 24-12-2018 00:49:17 8.7 C 47 %
2885 24-12-2018 01:01:18 8.1 C 45 %
2886 24-12-2018 01:13:18 7.8 C 45 %
2887 24-12-2018 01:25:17 7.4 C 45 %
2888 24-12-2018 01:37:18 7.2 C 45 %
2889 24-12-2018 01:49:17 6.7 C 42 %
2890 24-12-2018 02:01:17 6.4 C 41 %
2891 24-12-2018 02:13:17 6.2 C 42 %
2892 24-12-2018 02:25:17 6.2 C 44 %
2893 24-12-2018 02:37:18 5.9 C 45 %
2894 24-12-2018 02:49:17 5.7 C 44 %
2895 24-12-2018 03:01:17 5.5 C 45 %
2896 24-12-2018 03:13:17 5.4 C 46 %
2897 24-12-2018 03:25:17 5.3 C 47 %
2898 24-12-2018 03:37:17 5.2 C 48 %
2899 24-12-2018 03:49:17 5.2 C 48 %
2900 24-12-2018 04:01:17 5.1 C 48 %
Sensor: Nr:Datum:Temp:Feuchte:
Aussen-T/F 2901 24-12-2018 04:13:17 5 C 48 %
2902 24-12-2018 04:25:17 5.2 C 49 %
2903 24-12-2018 04:37:18 5.2 C 49 %
2904 24-12-2018 04:49:17 5.2 C 49 %
2905 24-12-2018 05:01:17 5.2 C 49 %
2906 24-12-2018 05:13:17 5.2 C 50 %
2907 24-12-2018 05:25:18 5.2 C 50 %
2908 24-12-2018 05:37:18 5.3 C 49 %
2909 24-12-2018 05:49:18 5.3 C 48 %
2910 24-12-2018 06:01:17 5.3 C 47 %
2911 24-12-2018 06:13:17 5.3 C 47 %
2912 24-12-2018 06:25:17 5.5 C 46 %
2913 24-12-2018 06:37:18 5.5 C 45 %
2914 24-12-2018 06:49:18 5.4 C 44 %
2915 24-12-2018 07:01:18 5.3 C 46 %
2916 24-12-2018 07:13:18 5.4 C 46 %
2917 24-12-2018 07:25:18 5.4 C 47 %
2918 24-12-2018 07:37:18 5.4 C 47 %
2919 24-12-2018 07:49:17 5.5 C 46 %
2920 24-12-2018 08:01:17 5.6 C 45 %
2921 24-12-2018 08:13:18 5.6 C 43 %
2922 24-12-2018 08:25:17 5.6 C 44 %
2923 24-12-2018 08:37:18 5.6 C 45 %
2924 24-12-2018 08:49:17 5.5 C 45 %
2925 24-12-2018 09:01:18 5.6 C 45 %
Sensor: Nr:Datum:Temp:Feuchte:
Aussen-T/F 2926 24-12-2018 09:13:18 5.7 C 44 %
2927 24-12-2018 09:25:17 5.7 C 43 %
2928 24-12-2018 09:37:18 5.7 C 45 %
2929 24-12-2018 09:49:17 5.7 C 45 %
2930 24-12-2018 10:01:18 5.9 C 44 %
2931 24-12-2018 10:13:18 6 C 42 %
2932 24-12-2018 10:25:17 6 C 42 %
2933 24-12-2018 10:37:18 6.1 C 40 %
2934 24-12-2018 10:49:17 6.2 C 38 %
2935 24-12-2018 11:01:17 6.2 C 37 %
2936 24-12-2018 11:13:17 6.2 C 36 %
2937 24-12-2018 11:25:17 6.3 C 36 %
2938 24-12-2018 11:37:18 6.3 C 36 %
2939 24-12-2018 11:49:17 6.5 C 34 %
2940 24-12-2018 12:01:18 6.6 C 32 %
2941 24-12-2018 12:13:18 6.7 C 29 %
2942 24-12-2018 12:25:18 6.2 C 30 %
2943 24-12-2018 12:37:18 6.2 C 29 %
2944 24-12-2018 12:49:18 6.4 C 30 %
2945 24-12-2018 13:01:18 6.7 C 30 %
2946 24-12-2018 13:13:18 6.2 C 27 %
2947 24-12-2018 13:25:18 6.3 C 27 %
2948 24-12-2018 13:37:18 6 C 27 %
2949 24-12-2018 13:49:18 5.5 C 30 %
2950 24-12-2018 14:01:18 5.9 C 29 %
Sensor: Nr:Datum:Temp:Feuchte:
Aussen-T/F 2951 24-12-2018 14:13:18 6 C 23 %
2952 24-12-2018 14:25:17 5.9 C 20 %
2953 24-12-2018 14:37:18 5.9 C 20 %
2954 24-12-2018 14:49:18 5.7 C 20 %
2955 24-12-2018 15:01:18 5.7 C 21 %
2956 24-12-2018 15:13:18 5.8 C 21 %
2957 24-12-2018 15:25:17 5.5 C 21 %
2958 24-12-2018 15:37:18 5 C 25 %
2959 24-12-2018 15:49:17 4.7 C 27 %
2960 24-12-2018 16:01:17 4.3 C 30 %
2961 24-12-2018 16:13:17 3.8 C 35 %
2962 24-12-2018 16:25:18 3.2 C 38 %
2963 24-12-2018 16:37:18 2.3 C 40 %
2964 24-12-2018 16:49:17 2.1 C 43 %
2965 24-12-2018 17:01:17 1.9 C 46 %
2966 24-12-2018 17:13:17 1.7 C 47 %
2967 24-12-2018 17:25:17 1.3 C 48 %
2968 24-12-2018 17:37:17 0.9 C 50 %
2969 24-12-2018 17:49:17 1.2 C 52 %
2970 24-12-2018 18:01:17 0.8 C 52 %
2971 24-12-2018 18:13:17 0.8 C 52 %
2972 24-12-2018 18:25:18 0.6 C 53 %
2973 24-12-2018 18:37:18 0.4 C 53 %
2974 24-12-2018 18:49:17 0.6 C 54 %
2975 24-12-2018 19:01:18 0.4 C 54 %
Sensor: Nr:Datum:Temp:Feuchte:
Aussen-T/F 2976 24-12-2018 19:13:18 0.3 C 54 %
2977 24-12-2018 19:25:17 0.2 C 54 %
2978 24-12-2018 19:37:17 -0.3 C 53 %
2979 24-12-2018 19:49:18 -0.2 C 55 %
2980 24-12-2018 20:01:17 -0.5 C 54 %
2981 24-12-2018 20:13:17 -0.7 C 54 %
2982 24-12-2018 20:25:17 -1 C 55 %
2983 24-12-2018 20:37:18 -1 C 55 %
2984 24-12-2018 20:49:18 -1 C 55 %
2985 24-12-2018 21:01:18 -1.3 C 55 %
2986 24-12-2018 21:13:18 -1.3 C 55 %
2987 24-12-2018 21:25:17 -1.5 C 55 %
2988 24-12-2018 21:37:18 -1.5 C 56 %
2989 24-12-2018 21:49:17 -1.6 C 56 %
2990 24-12-2018 22:01:18 -1.6 C 56 %
2991 24-12-2018 22:13:18 -1.6 C 56 %
2992 24-12-2018 22:25:17 -1.3 C 58 %
2993 24-12-2018 22:37:17 -1.1 C 59 %
2994 24-12-2018 22:49:17 -0.7 C 61 %
2995 24-12-2018 23:01:17 -0.4 C 64 %
2996 24-12-2018 23:13:17 -0.2 C 65 %
2997 24-12-2018 23:25:17 0 C 66 %
2998 24-12-2018 23:37:18 0 C 67 %
2999 24-12-2018 23:49:17 0.1 C 66 %
3000 25-12-2018 00:01:17 0 C 64 %
Sensor: Nr:Datum:Temp:Feuchte:
Aussen-T/F 3001 25-12-2018 00:13:17 -0.8 C 57 %
3002 25-12-2018 00:25:17 -1 C 57 %
3003 25-12-2018 00:37:17 -1.1 C 56 %
3004 25-12-2018 00:49:17 -1.4 C 56 %
3005 25-12-2018 01:01:18 -1.1 C 60 %
3006 25-12-2018 01:13:18 -1 C 62 %
3007 25-12-2018 01:25:17 -0.6 C 66 %
3008 25-12-2018 01:37:17 -0.5 C 66 %
3009 25-12-2018 01:49:17 -0.4 C 67 %
3010 25-12-2018 02:01:17 -0.4 C 67 %
3011 25-12-2018 02:13:17 -0.3 C 68 %
3012 25-12-2018 02:25:17 -0.1 C 68 %
3013 25-12-2018 02:37:17 -0.1 C 67 %
3014 25-12-2018 02:49:18 -0.1 C 65 %
3015 25-12-2018 03:01:18 -0.1 C 65 %
3016 25-12-2018 03:13:18 0 C 65 %
3017 25-12-2018 03:25:17 -0.3 C 62 %
3018 25-12-2018 03:37:17 -0.1 C 63 %
3019 25-12-2018 03:49:17 0 C 63 %
3020 25-12-2018 04:01:17 0.1 C 63 %
3021 25-12-2018 04:13:17 0.2 C 63 %
3022 25-12-2018 04:25:17 0.2 C 63 %
3023 25-12-2018 04:37:17 0.3 C 62 %
3024 25-12-2018 04:49:17 0.3 C 60 %
3025 25-12-2018 05:01:17 0.3 C 57 %
Sensor: Nr:Datum:Temp:Feuchte:
Aussen-T/F 3026 25-12-2018 05:13:17 0.3 C 55 %
3027 25-12-2018 05:25:18 0.4 C 54 %
3028 25-12-2018 05:37:18 0.4 C 53 %
3029 25-12-2018 05:49:17 0.4 C 53 %
3030 25-12-2018 06:01:17 0.5 C 52 %
3031 25-12-2018 06:13:18 0.6 C 52 %
3032 25-12-2018 06:25:17 0.5 C 52 %
3033 25-12-2018 06:37:18 0.6 C 52 %
3034 25-12-2018 06:49:17 0.6 C 51 %
3035 25-12-2018 07:01:17 0.6 C 51 %
3036 25-12-2018 07:13:17 0.6 C 50 %
3037 25-12-2018 07:25:17 0.6 C 50 %
3038 25-12-2018 07:37:18 0.7 C 50 %
3039 25-12-2018 07:49:17 0.7 C 50 %
3040 25-12-2018 08:01:18 0.7 C 50 %
3041 25-12-2018 08:13:18 0.7 C 50 %
3042 25-12-2018 08:25:17 0.7 C 50 %
3043 25-12-2018 08:37:17 0.8 C 50 %
3044 25-12-2018 08:49:17 0.9 C 49 %
3045 25-12-2018 09:01:17 1 C 46 %
3046 25-12-2018 09:13:17 1.1 C 45 %
3047 25-12-2018 09:25:17 1.3 C 44 %
3048 25-12-2018 09:37:17 1.5 C 43 %
3049 25-12-2018 09:49:18 1.5 C 42 %
3050 25-12-2018 10:01:17 1.6 C 41 %
Sensor: Nr:Datum:Temp:Feuchte:
Aussen-T/F 3051 25-12-2018 10:13:17 1.8 C 40 %
3052 25-12-2018 10:25:18 2 C 39 %
3053 25-12-2018 10:37:17 2.2 C 39 %
3054 25-12-2018 10:49:17 2.4 C 37 %
3055 25-12-2018 11:01:17 2.5 C 35 %
3056 25-12-2018 11:13:18 2.3 C 35 %
3057 25-12-2018 11:25:17 2.1 C 36 %
3058 25-12-2018 11:37:18 2 C 36 %
3059 25-12-2018 11:49:17 1.8 C 39 %
3060 25-12-2018 12:01:17 1.5 C 41 %
3061 25-12-2018 12:13:17 1.5 C 42 %
3062 25-12-2018 12:25:18 1.4 C 44 %
3063 25-12-2018 12:37:18 1.7 C 42 %
3064 25-12-2018 12:49:18 1.7 C 42 %
3065 25-12-2018 13:01:18 1.5 C 43 %
3066 25-12-2018 13:13:18 1.6 C 45 %
3067 25-12-2018 13:25:17 1.7 C 45 %
3068 25-12-2018 13:37:18 1.6 C 45 %
3069 25-12-2018 13:49:18 1.8 C 47 %
3070 25-12-2018 14:01:18 2.3 C 48 %
3071 25-12-2018 14:13:18 3.4 C 47 %
3072 25-12-2018 14:25:17 3.9 C 39 %
3073 25-12-2018 14:37:18 4.2 C 37 %
3074 25-12-2018 14:49:18 4.3 C 36 %
3075 25-12-2018 15:01:17 4.3 C 35 %
Sensor: Nr:Datum:Temp:Feuchte:
Aussen-T/F 3076 25-12-2018 15:13:17 4.3 C 37 %
3077 25-12-2018 15:25:18 4.2 C 39 %
3078 25-12-2018 15:37:18 4.1 C 39 %
3079 25-12-2018 15:49:17 4 C 38 %
3080 25-12-2018 16:01:18 4 C 38 %
3081 25-12-2018 16:13:18 4 C 38 %
3082 25-12-2018 16:25:17 3.6 C 41 %
3083 25-12-2018 16:37:18 3.4 C 43 %
3084 25-12-2018 16:49:18 3.3 C 44 %
3085 25-12-2018 17:01:18 3.2 C 43 %
3086 25-12-2018 17:13:18 3.2 C 42 %
3087 25-12-2018 17:25:17 3.2 C 43 %
3088 25-12-2018 17:37:17 3.1 C 45 %
3089 25-12-2018 17:49:18 3 C 45 %
3090 25-12-2018 18:01:17 2.9 C 46 %
3091 25-12-2018 18:13:17 2.7 C 47 %
3092 25-12-2018 18:25:18 2.6 C 47 %
3093 25-12-2018 18:37:17 2.6 C 48 %
3094 25-12-2018 18:49:18 2.5 C 48 %
3095 25-12-2018 19:01:17 2.6 C 48 %
3096 25-12-2018 19:13:17 2.7 C 44 %
3097 25-12-2018 19:25:17 2.7 C 42 %
3098 25-12-2018 19:37:17 2.5 C 42 %
3099 25-12-2018 19:49:18 2.2 C 44 %
3100 25-12-2018 20:01:18 1.7 C 45 %
Sensor: Nr:Datum:Temp:Feuchte:
Aussen-T/F 3101 25-12-2018 20:13:18 0.8 C 47 %
3102 25-12-2018 20:25:17 0.2 C 50 %
3103 25-12-2018 20:37:18 0 C 52 %
3104 25-12-2018 20:49:17 0 C 54 %
3105 25-12-2018 21:01:17 -0.4 C 53 %
3106 25-12-2018 21:13:17 -0.7 C 54 %
3107 25-12-2018 21:25:17 -0.8 C 55 %
3108 25-12-2018 21:37:18 -0.8 C 55 %
3109 25-12-2018 21:49:18 -1 C 55 %
3110 25-12-2018 22:01:17 -1.1 C 55 %
3111 25-12-2018 22:13:17 -1.2 C 55 %
3112 25-12-2018 22:25:18 -1.3 C 55 %
3113 25-12-2018 22:37:17 -1.7 C 55 %
3114 25-12-2018 22:49:17 -1.6 C 55 %
3115 25-12-2018 23:01:18 -1.8 C 55 %
3116 25-12-2018 23:13:18 -1.9 C 55 %
3117 25-12-2018 23:25:18 -2 C 55 %
3118 25-12-2018 23:37:17 -2.1 C 55 %
3119 25-12-2018 23:49:17 -2.2 C 55 %
3120 26-12-2018 00:01:17 -2.2 C 55 %
3121 26-12-2018 00:13:17 -2.4 C 55 %
3122 26-12-2018 00:25:18 -2.3 C 56 %
3123 26-12-2018 00:37:17 -2.2 C 56 %
3124 26-12-2018 00:49:17 -2 C 57 %
3125 26-12-2018 01:01:17 -1.8 C 59 %
Sensor: Nr:Datum:Temp:Feuchte:
Aussen-T/F 3126 26-12-2018 01:13:17 -1.7 C 60 %
3127 26-12-2018 01:25:17 -1.9 C 60 %
3128 26-12-2018 01:37:17 -1.9 C 60 %
3129 26-12-2018 01:49:17 -2 C 60 %
3130 26-12-2018 02:01:17 -1.8 C 63 %
3131 26-12-2018 02:13:17 -1.8 C 65 %
3132 26-12-2018 02:25:17 -1.8 C 65 %
3133 26-12-2018 02:37:18 -1.9 C 65 %
3134 26-12-2018 02:49:18 -2 C 65 %
3135 26-12-2018 03:01:17 -2 C 65 %
3136 26-12-2018 03:13:17 -2.1 C 64 %
3137 26-12-2018 03:25:17 -2.2 C 61 %
3138 26-12-2018 03:37:17 -2.1 C 61 %
3139 26-12-2018 03:49:17 -2.3 C 59 %
3140 26-12-2018 04:01:17 -2.4 C 55 %
3141 26-12-2018 04:13:17 -2.2 C 55 %
3142 26-12-2018 04:25:17 -2.3 C 54 %
3143 26-12-2018 04:37:18 -2.2 C 54 %
3144 26-12-2018 04:49:18 -2.2 C 52 %
3145 26-12-2018 05:01:18 -2.1 C 52 %
3146 26-12-2018 05:13:18 -2.2 C 52 %
3147 26-12-2018 05:25:17 -2.3 C 51 %
3148 26-12-2018 05:37:18 -2.3 C 51 %
3149 26-12-2018 05:49:17 -2.2 C 51 %
3150 26-12-2018 06:01:18 -2.1 C 51 %
Sensor: Nr:Datum:Temp:Feuchte:
Aussen-T/F 3151 26-12-2018 06:13:18 -2.1 C 51 %
3152 26-12-2018 06:25:18 -2.3 C 51 %
3153 26-12-2018 06:37:17 -2.4 C 50 %
3154 26-12-2018 06:49:17 -2.4 C 50 %
3155 26-12-2018 07:01:18 -2.5 C 50 %
3156 26-12-2018 07:13:18 -2.3 C 50 %
3157 26-12-2018 07:25:17 -2.3 C 50 %
3158 26-12-2018 07:37:18 -2.5 C 50 %
3159 26-12-2018 07:49:18 -2.6 C 49 %
3160 26-12-2018 08:01:17 -2.7 C 48 %
3161 26-12-2018 08:13:17 -2.8 C 48 %
3162 26-12-2018 08:25:18 -2.7 C 48 %
3163 26-12-2018 08:37:17 -2.6 C 48 %
3164 26-12-2018 08:49:17 -2.5 C 48 %
3165 26-12-2018 09:01:18 -2.5 C 48 %
3166 26-12-2018 09:13:18 -2.5 C 47 %
3167 26-12-2018 09:25:18 -2.4 C 47 %
3168 26-12-2018 09:37:17 -2.3 C 47 %
3169 26-12-2018 09:49:18 -2.3 C 46 %
3170 26-12-2018 10:01:17 -2.2 C 46 %
3171 26-12-2018 10:13:17 -2.2 C 45 %
3172 26-12-2018 10:25:18 -2 C 45 %
3173 26-12-2018 10:37:18 -1.7 C 45 %
3174 26-12-2018 10:49:18 -1.5 C 44 %
3175 26-12-2018 11:01:17 -1.3 C 42 %
Sensor: Nr:Datum:Temp:Feuchte:
Aussen-T/F 3176 26-12-2018 11:13:17 -1.2 C 41 %
3177 26-12-2018 11:25:17 -0.9 C 41 %
3178 26-12-2018 11:37:17 -0.7 C 40 %
3179 26-12-2018 11:49:18 -0.5 C 39 %
3180 26-12-2018 12:01:18 -0.6 C 38 %
3181 26-12-2018 12:13:18 -0.5 C 39 %
3182 26-12-2018 12:25:18 -0.1 C 40 %
3183 26-12-2018 12:37:17 0 C 39 %
3184 26-12-2018 12:49:18 0.1 C 40 %
3185 26-12-2018 13:01:18 0 C 40 %
3186 26-12-2018 13:13:18 0 C 40 %
3187 26-12-2018 13:25:17 0 C 41 %
3188 26-12-2018 13:37:17 0.1 C 42 %
3189 26-12-2018 13:49:17 0.2 C 42 %
3190 26-12-2018 14:01:17 0.4 C 42 %
3191 26-12-2018 14:13:17 0.2 C 43 %
3192 26-12-2018 14:25:17 0.2 C 44 %
3193 26-12-2018 14:37:17 0.4 C 45 %
3194 26-12-2018 14:49:18 0.7 C 46 %
3195 26-12-2018 15:01:17 0.8 C 46 %
3196 26-12-2018 15:13:17 0.7 C 45 %
3197 26-12-2018 15:25:17 0.6 C 45 %
3198 26-12-2018 15:37:17 0.5 C 45 %
3199 26-12-2018 15:49:18 0.1 C 46 %
3200 26-12-2018 16:01:18 -0.2 C 47 %
Sensor: Nr:Datum:Temp:Feuchte:
Aussen-T/F 3201 26-12-2018 16:13:18 -0.4 C 48 %
3202 26-12-2018 16:25:18 -0.6 C 50 %
3203 26-12-2018 16:37:17 -0.7 C 50 %
3204 26-12-2018 16:49:17 -0.9 C 51 %
3205 26-12-2018 17:01:18 -0.9 C 52 %
3206 26-12-2018 17:13:18 -1 C 54 %
3207 26-12-2018 17:25:18 -1.2 C 54 %
3208 26-12-2018 17:37:18 -1.3 C 54 %
3209 26-12-2018 17:49:18 -1.4 C 55 %
3210 26-12-2018 18:01:18 -1.4 C 55 %
3211 26-12-2018 18:13:18 -1.5 C 55 %
3212 26-12-2018 18:25:17 -1.7 C 55 %
3213 26-12-2018 18:37:18 -1.8 C 55 %
3214 26-12-2018 18:49:17 -1.9 C 55 %
3215 26-12-2018 19:01:18 -1.9 C 55 %
3216 26-12-2018 19:13:18 -2 C 55 %
3217 26-12-2018 19:25:17 -1.8 C 56 %
3218 26-12-2018 19:37:18 -1.7 C 57 %
3219 26-12-2018 19:49:17 -1.8 C 57 %
3220 26-12-2018 20:01:17 -1.8 C 57 %
3221 26-12-2018 20:13:17 -1.9 C 58 %
3222 26-12-2018 20:25:18 -2 C 58 %
3223 26-12-2018 20:37:17 -2 C 60 %
3224 26-12-2018 20:49:18 -2.2 C 59 %
3225 26-12-2018 21:01:17 -2.2 C 61 %
Sensor: Nr:Datum:Temp:Feuchte:
Aussen-T/F 3226 26-12-2018 21:13:17 -2.2 C 62 %
3227 26-12-2018 21:25:17 -2.1 C 63 %
3228 26-12-2018 21:37:18 -2.2 C 64 %
3229 26-12-2018 21:49:17 -2.3 C 64 %
3230 26-12-2018 22:01:18 -2.3 C 65 %
3231 26-12-2018 22:13:18 -2.4 C 65 %
3232 26-12-2018 22:25:17 -2.4 C 65 %
3233 26-12-2018 22:37:18 -2.5 C 66 %
3234 26-12-2018 22:49:17 -2.4 C 67 %
3235 26-12-2018 23:01:18 -2.4 C 67 %
3236 26-12-2018 23:13:18 -2.5 C 67 %
3237 26-12-2018 23:25:18 -2.6 C 67 %
3238 26-12-2018 23:37:17 -2.4 C 68 %
3239 26-12-2018 23:49:17 -2.4 C 68 %
3240 27-12-2018 00:01:17 -2.1 C 69 %
3241 27-12-2018 00:13:17 -2.1 C 70 %
3242 27-12-2018 00:25:17 -1.8 C 71 %
3243 27-12-2018 00:37:17 -1.8 C 71 %
3244 27-12-2018 00:49:17 -1.7 C 71 %
3245 27-12-2018 01:01:17 -1.6 C 71 %
3246 27-12-2018 01:13:17 -1.6 C 71 %
3247 27-12-2018 01:25:17 -1.6 C 70 %
3248 27-12-2018 01:37:17 -1.5 C 70 %
3249 27-12-2018 01:49:17 -1.5 C 70 %
3250 27-12-2018 02:01:17 -1.4 C 70 %
Sensor: Nr:Datum:Temp:Feuchte:
Aussen-T/F 3251 27-12-2018 02:13:17 -1.4 C 70 %
3252 27-12-2018 02:25:18 -1.3 C 70 %
3253 27-12-2018 02:37:18 -1.3 C 70 %
3254 27-12-2018 02:49:17 -1.3 C 70 %
3255 27-12-2018 03:01:18 -1.2 C 70 %
3256 27-12-2018 03:13:18 -1.1 C 70 %
3257 27-12-2018 03:25:17 -1.1 C 69 %
3258 27-12-2018 03:37:17 -1.1 C 69 %
3259 27-12-2018 03:49:17 -1.1 C 69 %
3260 27-12-2018 04:01:18 -1.2 C 68 %
3261 27-12-2018 04:13:18 -1.3 C 67 %
3262 27-12-2018 04:25:18 -1.3 C 66 %
3263 27-12-2018 04:37:17 -1.4 C 66 %
3264 27-12-2018 04:49:18 -1.6 C 64 %
3265 27-12-2018 05:01:17 -1.6 C 64 %
3266 27-12-2018 05:13:17 -1.9 C 61 %
3267 27-12-2018 05:25:18 -2.1 C 60 %
3268 27-12-2018 05:37:17 -2.1 C 60 %
3269 27-12-2018 05:49:17 -2.2 C 61 %
3270 27-12-2018 06:01:17 -2.4 C 60 %
3271 27-12-2018 06:13:17 -2.5 C 60 %
3272 27-12-2018 06:25:17 -2.6 C 61 %
3273 27-12-2018 06:37:17 -2.7 C 61 %
3274 27-12-2018 06:49:18 -2.5 C 63 %
3275 27-12-2018 07:01:17 -2.7 C 62 %
Sensor: Nr:Datum:Temp:Feuchte:
Aussen-T/F 3276 27-12-2018 07:13:17 -2.8 C 62 %
3277 27-12-2018 07:25:17 -2.8 C 63 %
3278 27-12-2018 07:37:18 -2.9 C 63 %
3279 27-12-2018 07:49:17 -2.9 C 63 %
3280 27-12-2018 08:01:17 -2.9 C 63 %
3281 27-12-2018 08:13:18 -3.1 C 62 %
3282 27-12-2018 08:25:18 -3.1 C 63 %
3283 27-12-2018 08:37:18 -3 C 64 %
3284 27-12-2018 08:49:17 -2.9 C 65 %
3285 27-12-2018 09:01:17 -2.8 C 65 %
3286 27-12-2018 09:13:18 -2.8 C 65 %
3287 27-12-2018 09:25:17 -2.6 C 65 %
3288 27-12-2018 09:37:18 -2.3 C 66 %
3289 27-12-2018 09:49:17 -2.1 C 66 %
3290 27-12-2018 10:01:18 -1.9 C 66 %
3291 27-12-2018 10:13:18 -1.6 C 66 %
3292 27-12-2018 10:25:18 -1.4 C 66 %
3293 27-12-2018 10:37:18 -1.2 C 65 %
3294 27-12-2018 10:49:17 -1 C 64 %
3295 27-12-2018 11:01:17 -0.9 C 58 %
3296 27-12-2018 11:13:17 -0.6 C 56 %
3297 27-12-2018 11:25:17 -0.6 C 55 %
3298 27-12-2018 11:37:17 -0.3 C 54 %
3299 27-12-2018 11:49:17 -0.1 C 53 %
3300 27-12-2018 12:01:18 0.1 C 52 %
Sensor: Nr:Datum:Temp:Feuchte:
Aussen-T/F 3301 27-12-2018 12:13:18 0.3 C 52 %
3302 27-12-2018 12:25:17 0.5 C 51 %
3303 27-12-2018 12:37:17 0.7 C 50 %
3304 27-12-2018 12:49:17 0.8 C 49 %
3305 27-12-2018 13:01:17 0.9 C 48 %
3306 27-12-2018 13:13:17 1.1 C 45 %
3307 27-12-2018 13:25:18 1.2 C 43 %
3308 27-12-2018 13:37:17 1.3 C 41 %
3309 27-12-2018 13:49:18 1.4 C 40 %
3310 27-12-2018 14:01:18 1.6 C 41 %
3311 27-12-2018 14:13:18 1.8 C 42 %
3312 27-12-2018 14:25:17 2 C 40 %
3313 27-12-2018 14:37:18 2 C 40 %
3314 27-12-2018 14:49:17 2 C 40 %
3315 27-12-2018 15:01:17 1.9 C 41 %
3316 27-12-2018 15:13:17 1.7 C 41 %
3317 27-12-2018 15:25:18 1.6 C 41 %
3318 27-12-2018 15:37:18 1.4 C 42 %
3319 27-12-2018 15:49:17 1.2 C 43 %
3320 27-12-2018 16:01:17 0.9 C 46 %
3321 27-12-2018 16:13:17 0.8 C 47 %
3322 27-12-2018 16:25:17 0.6 C 49 %
3323 27-12-2018 16:37:18 0.5 C 50 %
3324 27-12-2018 16:49:18 0.4 C 51 %
3325 27-12-2018 17:01:17 0.3 C 50 %
Sensor: Nr:Datum:Temp:Feuchte:
Aussen-T/F 3326 27-12-2018 17:13:17 0.2 C 50 %
3327 27-12-2018 17:25:17 0.1 C 51 %
3328 27-12-2018 17:37:17 0.1 C 52 %
3329 27-12-2018 17:49:17 0.1 C 52 %
3330 27-12-2018 18:01:17 0.1 C 52 %
3331 27-12-2018 18:13:17 0.2 C 53 %
3332 27-12-2018 18:25:17 0.3 C 53 %
3333 27-12-2018 18:37:18 0 C 51 %
3334 27-12-2018 18:49:17 -0.2 C 51 %
3335 27-12-2018 19:01:18 -0.4 C 51 %
3336 27-12-2018 19:13:18 -0.5 C 52 %
3337 27-12-2018 19:25:17 -0.5 C 53 %
3338 27-12-2018 19:37:17 -0.4 C 53 %
3339 27-12-2018 19:49:17 -0.6 C 53 %
3340 27-12-2018 20:01:17 -0.4 C 54 %
3341 27-12-2018 20:13:17 -0.3 C 55 %
3342 27-12-2018 20:25:17 -0.1 C 55 %
3343 27-12-2018 20:37:18 0.1 C 55 %
3344 27-12-2018 20:49:17 0.3 C 55 %
3345 27-12-2018 21:01:18 0.2 C 53 %
3346 27-12-2018 21:13:18 -0.1 C 53 %
3347 27-12-2018 21:25:17 0 C 53 %
3348 27-12-2018 21:37:18 0.1 C 53 %
3349 27-12-2018 21:49:17 0 C 53 %
3350 27-12-2018 22:01:17 0.1 C 53 %
Sensor: Nr:Datum:Temp:Feuchte:
Aussen-T/F 3351 27-12-2018 22:13:17 0.1 C 53 %
3352 27-12-2018 22:25:18 0.1 C 53 %
3353 27-12-2018 22:37:17 0.1 C 53 %
3354 27-12-2018 22:49:17 0 C 53 %
3355 27-12-2018 23:01:17 0.1 C 53 %
3356 27-12-2018 23:13:17 0 C 53 %
3357 27-12-2018 23:25:17 0 C 53 %
3358 27-12-2018 23:37:18 0.1 C 54 %
3359 27-12-2018 23:49:17 0.1 C 53 %
3360 28-12-2018 00:01:17 -0.1 C 53 %
3361 28-12-2018 00:13:17 -0.1 C 53 %
3362 28-12-2018 00:25:17 -0.2 C 54 %
3363 28-12-2018 00:37:17 -0.1 C 54 %
3364 28-12-2018 00:49:17 -0.2 C 54 %
3365 28-12-2018 01:01:17 -0.3 C 54 %
3366 28-12-2018 01:13:17 -0.2 C 55 %
3367 28-12-2018 01:25:17 -0.4 C 54 %
3368 28-12-2018 01:37:18 -0.5 C 54 %
3369 28-12-2018 01:49:18 -0.6 C 54 %
3370 28-12-2018 02:01:18 -0.8 C 54 %
3371 28-12-2018 02:13:18 -0.9 C 54 %
3372 28-12-2018 02:25:17 -0.6 C 55 %
3373 28-12-2018 02:37:17 -0.4 C 56 %
3374 28-12-2018 02:49:17 -0.3 C 56 %
3375 28-12-2018 03:01:17 -0.3 C 56 %
Sensor: Nr:Datum:Temp:Feuchte:
Aussen-T/F 3376 28-12-2018 03:13:17 -0.2 C 56 %
3377 28-12-2018 03:25:17 -0.2 C 55 %
3378 28-12-2018 03:37:18 -0.4 C 55 %
3379 28-12-2018 03:49:17 -0.5 C 55 %
3380 28-12-2018 04:01:18 -0.7 C 54 %
3381 28-12-2018 04:13:18 -0.6 C 55 %
3382 28-12-2018 04:25:18 -0.4 C 56 %
3383 28-12-2018 04:37:18 -0.3 C 56 %
3384 28-12-2018 04:49:17 -0.5 C 55 %
3385 28-12-2018 05:01:17 -0.8 C 54 %
3386 28-12-2018 05:13:17 -1.2 C 53 %
3387 28-12-2018 05:25:18 -0.9 C 55 %
3388 28-12-2018 05:37:18 -1 C 55 %
3389 28-12-2018 05:49:17 -1.1 C 55 %
3390 28-12-2018 06:01:17 -1.4 C 55 %
3391 28-12-2018 06:13:17 -1.6 C 56 %
3392 28-12-2018 06:25:18 -1.2 C 59 %
3393 28-12-2018 06:37:18 -1.4 C 59 %
3394 28-12-2018 06:49:18 -1.7 C 58 %
3395 28-12-2018 07:01:17 -1.7 C 58 %
3396 28-12-2018 07:13:17 -1.9 C 59 %
3397 28-12-2018 07:25:17 -1.8 C 60 %
3398 28-12-2018 07:37:18 -1.9 C 61 %
3399 28-12-2018 07:49:18 -1.9 C 62 %
3400 28-12-2018 08:01:18 -2 C 63 %
Sensor: Nr:Datum:Temp:Feuchte:
Aussen-T/F 3401 28-12-2018 08:13:18 -2 C 64 %
3402 28-12-2018 08:25:17 -2.2 C 63 %
3403 28-12-2018 08:37:18 -2.2 C 64 %
3404 28-12-2018 08:49:17 -2 C 66 %
3405 28-12-2018 09:01:18 -2 C 66 %
3406 28-12-2018 09:13:18 -2.1 C 66 %
3407 28-12-2018 09:25:17 -1.9 C 67 %
3408 28-12-2018 09:37:18 -1.7 C 69 %
3409 28-12-2018 09:49:17 -1.4 C 70 %
3410 28-12-2018 10:01:18 -1.1 C 70 %
3411 28-12-2018 10:13:18 -0.9 C 70 %
3412 28-12-2018 10:25:18 -0.7 C 68 %
3413 28-12-2018 10:37:17 -0.6 C 63 %
3414 28-12-2018 10:49:17 -0.4 C 57 %
3415 28-12-2018 11:01:17 -0.5 C 54 %
3416 28-12-2018 11:13:17 -0.4 C 52 %
3417 28-12-2018 11:25:17 -0.3 C 51 %
3418 28-12-2018 11:37:17 -0.3 C 49 %
3419 28-12-2018 11:49:17 -0.2 C 48 %
3420 28-12-2018 12:01:17 -0.2 C 46 %
3421 28-12-2018 12:13:17 0.1 C 45 %
3422 28-12-2018 12:25:17 0.1 C 44 %
3423 28-12-2018 12:37:18 0.3 C 44 %
3424 28-12-2018 12:49:17 0.5 C 42 %
3425 28-12-2018 13:01:17 0.5 C 41 %
Sensor: Nr:Datum:Temp:Feuchte:
Aussen-T/F 3426 28-12-2018 13:13:17 0.5 C 41 %
3427 28-12-2018 13:25:18 0.6 C 41 %
3428 28-12-2018 13:37:17 0.5 C 40 %
3429 28-12-2018 13:49:17 0.7 C 41 %
3430 28-12-2018 14:01:17 0.8 C 40 %
3431 28-12-2018 14:13:17 1 C 38 %
3432 28-12-2018 14:25:17 0.9 C 39 %
3433 28-12-2018 14:37:18 0.8 C 39 %
3434 28-12-2018 14:49:17 0.6 C 40 %
3435 28-12-2018 15:01:17 0.5 C 40 %
3436 28-12-2018 15:13:18 0.4 C 41 %
3437 28-12-2018 15:25:17 0 C 42 %
3438 28-12-2018 15:37:18 -0.2 C 44 %
3439 28-12-2018 15:49:17 -0.3 C 45 %
3440 28-12-2018 16:01:18 -0.2 C 46 %
3441 28-12-2018 16:13:18 -0.3 C 46 %
3442 28-12-2018 16:25:17 -0.5 C 47 %
3443 28-12-2018 16:37:18 -0.6 C 47 %
3444 28-12-2018 16:49:18 -0.6 C 49 %
3445 28-12-2018 17:01:18 -0.5 C 49 %
3446 28-12-2018 17:13:18 -0.5 C 48 %
3447 28-12-2018 17:25:17 -0.5 C 49 %
3448 28-12-2018 17:37:18 -0.5 C 49 %
3449 28-12-2018 17:49:17 -0.5 C 48 %
3450 28-12-2018 18:01:18 -0.5 C 48 %
Sensor: Nr:Datum:Temp:Feuchte:
Aussen-T/F 3451 28-12-2018 18:13:18 -0.5 C 47 %
3452 28-12-2018 18:25:17 -0.6 C 47 %
3453 28-12-2018 18:37:18 -0.6 C 47 %
3454 28-12-2018 18:49:18 -0.7 C 47 %
3455 28-12-2018 19:01:18 -0.7 C 47 %
3456 28-12-2018 19:13:18 -0.6 C 48 %
3457 28-12-2018 19:25:18 -0.6 C 48 %
3458 28-12-2018 19:37:17 -0.7 C 47 %
3459 28-12-2018 19:49:18 -0.8 C 48 %
3460 28-12-2018 20:01:18 -0.7 C 48 %
3461 28-12-2018 20:13:18 -0.8 C 47 %
3462 28-12-2018 20:25:17 -0.9 C 48 %
3463 28-12-2018 20:37:17 -0.9 C 47 %
3464 28-12-2018 20:49:18 -0.9 C 48 %
3465 28-12-2018 21:01:18 -0.9 C 48 %
3466 28-12-2018 21:13:18 -0.8 C 49 %
3467 28-12-2018 21:25:17 -0.7 C 49 %
3468 28-12-2018 21:37:18 -0.8 C 48 %
3469 28-12-2018 21:49:17 -0.8 C 49 %
3470 28-12-2018 22:01:18 -0.7 C 50 %
3471 28-12-2018 22:13:18 -0.9 C 49 %
3472 28-12-2018 22:25:17 -0.8 C 50 %
3473 28-12-2018 22:37:18 -0.7 C 50 %
3474 28-12-2018 22:49:18 -0.7 C 48 %
3475 28-12-2018 23:01:18 -0.6 C 47 %
Sensor: Nr:Datum:Temp:Feuchte:
Aussen-T/F 3476 28-12-2018 23:13:18 -0.6 C 47 %
3477 28-12-2018 23:25:17 -0.6 C 46 %
3478 28-12-2018 23:37:18 -0.6 C 46 %
3479 28-12-2018 23:49:17 -0.5 C 47 %
Sensor: Nr:Datum:Temp:Feuchte:
G-T/H 1 30-11-2018 00:11:18 9.3 C 74 %
2 30-11-2018 00:23:17 9.3 C 74 %
3 30-11-2018 00:35:17 9.3 C 74 %
4 30-11-2018 00:47:17 9.3 C 74 %
5 30-11-2018 00:59:17 9.3 C 74 %
6 30-11-2018 01:11:18 9.3 C 74 %
7 30-11-2018 01:23:17 9.3 C 74 %
8 30-11-2018 01:35:17 9.3 C 74 %
9 30-11-2018 01:47:17 9.3 C 74 %
10 30-11-2018 01:59:17 9.3 C 74 %
11 30-11-2018 02:11:18 9.3 C 74 %
12 30-11-2018 02:23:17 9.3 C 74 %
13 30-11-2018 02:35:17 9.3 C 74 %
14 30-11-2018 02:47:18 9.3 C 74 %
15 30-11-2018 02:59:18 9.3 C 74 %
16 30-11-2018 03:11:18 9.3 C 74 %
17 30-11-2018 03:23:17 9.3 C 74 %
18 30-11-2018 03:35:17 9.3 C 74 %
19 30-11-2018 03:47:17 9.3 C 74 %
20 30-11-2018 03:59:17 9.3 C 74 %
21 30-11-2018 04:11:17 9.3 C 74 %
22 30-11-2018 04:23:18 9.3 C 74 %
23 30-11-2018 04:35:17 9.4 C 74 %
24 30-11-2018 04:47:17 9.3 C 74 %
25 30-11-2018 04:59:17 9.4 C 74 %
Sensor: Nr:Datum:Temp:Feuchte:
G-T/H 26 30-11-2018 05:11:17 9.4 C 74 %
27 30-11-2018 05:23:17 9.4 C 74 %
28 30-11-2018 05:35:18 9.4 C 74 %
29 30-11-2018 05:47:18 9.4 C 74 %
30 30-11-2018 05:59:18 9.4 C 74 %
31 30-11-2018 06:11:17 9.4 C 74 %
32 30-11-2018 06:23:18 9.4 C 74 %
33 30-11-2018 06:35:18 9.4 C 74 %
34 30-11-2018 06:47:18 9.4 C 74 %
35 30-11-2018 06:59:18 9.4 C 74 %
36 30-11-2018 07:11:18 9.4 C 74 %
37 30-11-2018 07:23:17 9.4 C 74 %
38 30-11-2018 07:35:17 9.4 C 74 %
39 30-11-2018 07:47:17 9.4 C 74 %
40 30-11-2018 07:59:17 9.4 C 75 %
41 30-11-2018 08:11:17 9.4 C 75 %
42 30-11-2018 08:23:18 9.4 C 75 %
43 30-11-2018 08:35:18 9.5 C 75 %
44 30-11-2018 08:47:18 9.5 C 75 %
45 30-11-2018 08:59:18 9.5 C 75 %
46 30-11-2018 09:11:18 9.5 C 75 %
47 30-11-2018 09:23:17 9.5 C 75 %
48 30-11-2018 09:35:17 9.5 C 75 %
49 30-11-2018 09:47:17 9.5 C 75 %
50 30-11-2018 09:59:17 9.5 C 75 %
Sensor: Nr:Datum:Temp:Feuchte:
G-T/H 51 30-11-2018 10:11:18 9.5 C 75 %
52 30-11-2018 10:23:17 9.5 C 75 %
53 30-11-2018 10:35:18 9.5 C 75 %
54 30-11-2018 10:47:17 9.5 C 75 %
55 30-11-2018 10:59:18 9.5 C 75 %
56 30-11-2018 11:11:18 9.5 C 75 %
57 30-11-2018 11:23:17 9.6 C 75 %
58 30-11-2018 11:35:18 9.6 C 75 %
59 30-11-2018 11:47:17 9.6 C 75 %
60 30-11-2018 11:59:17 9.6 C 75 %
61 30-11-2018 12:11:18 9.6 C 75 %
62 30-11-2018 12:23:17 9.6 C 75 %
63 30-11-2018 12:35:17 9.6 C 75 %
64 30-11-2018 12:47:17 9.6 C 75 %
65 30-11-2018 12:59:17 9.6 C 75 %
66 30-11-2018 13:11:18 9.6 C 75 %
67 30-11-2018 13:23:17 9.7 C 75 %
68 30-11-2018 13:35:17 9.6 C 75 %
69 30-11-2018 13:47:18 9.7 C 75 %
70 30-11-2018 13:59:18 9.7 C 75 %
71 30-11-2018 14:11:18 9.7 C 75 %
72 30-11-2018 14:23:17 9.7 C 75 %
73 30-11-2018 14:35:18 9.7 C 75 %
74 30-11-2018 14:47:18 9.7 C 75 %
75 30-11-2018 14:59:18 9.8 C 75 %
Sensor: Nr:Datum:Temp:Feuchte:
G-T/H 76 30-11-2018 15:11:18 9.8 C 75 %
77 30-11-2018 15:23:17 9.8 C 75 %
78 30-11-2018 15:35:18 9.7 C 75 %
79 30-11-2018 15:47:18 9.8 C 75 %
80 30-11-2018 15:59:18 9.8 C 75 %
81 30-11-2018 16:11:18 9.8 C 75 %
82 30-11-2018 16:23:17 9.8 C 76 %
83 30-11-2018 16:35:17 9.8 C 76 %
84 30-11-2018 16:47:17 9.8 C 76 %
85 30-11-2018 16:59:17 9.8 C 76 %
86 30-11-2018 17:11:17 9.8 C 76 %
87 30-11-2018 17:23:17 9.9 C 76 %
88 30-11-2018 17:35:18 9.9 C 76 %
89 30-11-2018 17:47:17 9.9 C 76 %
90 30-11-2018 17:59:17 9.9 C 76 %
91 30-11-2018 18:11:17 9.9 C 76 %
92 30-11-2018 18:23:17 9.9 C 76 %
93 30-11-2018 18:35:17 9.9 C 76 %
94 30-11-2018 18:47:17 9.9 C 76 %
95 30-11-2018 18:59:17 10 C 75 %
96 30-11-2018 19:11:17 9.9 C 76 %
97 30-11-2018 19:23:18 10 C 75 %
98 30-11-2018 19:35:18 10 C 75 %
99 30-11-2018 19:47:18 10 C 75 %
100 30-11-2018 19:59:18 10 C 75 %
Sensor: Nr:Datum:Temp:Feuchte:
G-T/H 101 30-11-2018 20:11:18 10 C 75 %
102 30-11-2018 20:23:17 10 C 75 %
103 30-11-2018 20:35:17 10 C 75 %
104 30-11-2018 20:47:18 10 C 75 %
105 30-11-2018 20:59:18 10 C 75 %
106 30-11-2018 21:11:18 10 C 75 %
107 30-11-2018 21:23:17 10 C 75 %
108 30-11-2018 21:35:17 10 C 75 %
109 30-11-2018 21:47:17 10 C 75 %
110 30-11-2018 21:59:17 10 C 75 %
111 30-11-2018 22:11:17 10 C 75 %
112 30-11-2018 22:23:17 10 C 75 %
113 30-11-2018 22:35:17 10 C 75 %
114 30-11-2018 22:47:17 10 C 75 %
115 30-11-2018 22:59:17 10 C 75 %
116 30-11-2018 23:11:17 10 C 75 %
117 30-11-2018 23:23:17 10 C 75 %
118 30-11-2018 23:35:17 10 C 75 %
119 30-11-2018 23:47:17 10 C 75 %
120 30-11-2018 23:59:17 10 C 74 %
121 01-12-2018 00:11:17 10 C 74 %
122 01-12-2018 00:23:17 10 C 74 %
123 01-12-2018 00:35:17 10 C 74 %
124 01-12-2018 00:47:18 10 C 74 %
125 01-12-2018 00:59:18 10 C 74 %
Sensor: Nr:Datum:Temp:Feuchte:
G-T/H 126 01-12-2018 01:11:18 9.9 C 76 %
127 01-12-2018 01:23:17 9.9 C 76 %
128 01-12-2018 01:35:17 10 C 74 %
129 01-12-2018 01:47:17 9.9 C 76 %
130 01-12-2018 01:59:17 9.9 C 75 %
131 01-12-2018 02:11:17 9.9 C 75 %
132 01-12-2018 02:23:17 9.9 C 75 %
133 01-12-2018 02:35:17 9.9 C 75 %
134 01-12-2018 02:47:17 9.9 C 75 %
135 01-12-2018 02:59:17 9.9 C 75 %
136 01-12-2018 03:11:17 9.9 C 75 %
137 01-12-2018 03:23:17 9.8 C 75 %
138 01-12-2018 03:35:17 9.9 C 75 %
139 01-12-2018 03:47:17 9.8 C 75 %
140 01-12-2018 03:59:17 9.8 C 75 %
141 01-12-2018 04:11:18 9.8 C 75 %
142 01-12-2018 04:23:17 9.8 C 75 %
143 01-12-2018 04:35:18 9.8 C 75 %
144 01-12-2018 04:47:18 9.8 C 75 %
145 01-12-2018 04:59:18 9.8 C 75 %
146 01-12-2018 05:11:18 9.8 C 75 %
147 01-12-2018 05:23:17 9.8 C 75 %
148 01-12-2018 05:35:18 9.8 C 75 %
149 01-12-2018 05:47:17 9.8 C 75 %
150 01-12-2018 05:59:17 9.8 C 75 %
Sensor: Nr:Datum:Temp:Feuchte:
G-T/H 151 01-12-2018 06:11:17 9.7 C 75 %
152 01-12-2018 06:23:17 9.7 C 75 %
153 01-12-2018 06:35:17 9.7 C 75 %
154 01-12-2018 06:47:17 9.7 C 75 %
155 01-12-2018 06:59:17 9.7 C 75 %
156 01-12-2018 07:11:17 9.7 C 75 %
157 01-12-2018 07:23:18 9.7 C 75 %
158 01-12-2018 07:35:18 9.7 C 75 %
159 01-12-2018 07:47:18 9.7 C 75 %
160 01-12-2018 07:59:18 9.7 C 75 %
161 01-12-2018 08:11:18 9.7 C 75 %
162 01-12-2018 08:23:17 9.7 C 75 %
163 01-12-2018 08:35:18 9.7 C 75 %
164 01-12-2018 08:47:18 9.7 C 75 %
165 01-12-2018 08:59:18 9.7 C 75 %
166 01-12-2018 09:11:18 9.7 C 75 %
167 01-12-2018 09:23:17 9.7 C 75 %
168 01-12-2018 09:35:17 9.7 C 75 %
169 01-12-2018 09:47:17 9.7 C 75 %
170 01-12-2018 09:59:17 9.7 C 75 %
171 01-12-2018 10:11:17 9.7 C 75 %
172 01-12-2018 10:23:17 9.7 C 75 %
173 01-12-2018 10:35:17 9.7 C 75 %
174 01-12-2018 10:47:17 9.7 C 75 %
175 01-12-2018 10:59:17 9.7 C 76 %
Sensor: Nr:Datum:Temp:Feuchte:
G-T/H 176 01-12-2018 11:11:18 9.7 C 76 %
177 01-12-2018 11:23:17 9.7 C 76 %
178 01-12-2018 11:35:17 9.7 C 76 %
179 01-12-2018 11:47:17 9.7 C 76 %
180 01-12-2018 11:59:17 9.8 C 76 %
181 01-12-2018 12:11:18 10 C 74 %
182 01-12-2018 12:23:17 10 C 74 %
183 01-12-2018 12:35:18 10 C 74 %
184 01-12-2018 12:47:18 10 C 74 %
185 01-12-2018 12:59:18 10 C 74 %
186 01-12-2018 13:11:18 9.9 C 76 %
187 01-12-2018 13:23:17 10 C 74 %
188 01-12-2018 13:35:18 9.9 C 76 %
189 01-12-2018 13:47:18 9.9 C 76 %
190 01-12-2018 13:59:18 9.9 C 76 %
191 01-12-2018 14:11:18 9.9 C 76 %
192 01-12-2018 14:23:17 9.9 C 76 %
193 01-12-2018 14:35:17 10 C 74 %
194 01-12-2018 14:47:17 9.9 C 76 %
195 01-12-2018 14:59:17 10 C 75 %
196 01-12-2018 15:11:17 9.9 C 75 %
197 01-12-2018 15:23:17 9.9 C 75 %
198 01-12-2018 15:35:17 9.9 C 75 %
199 01-12-2018 15:47:17 10 C 73 %
200 01-12-2018 15:59:17 10 C 73 %
Sensor: Nr:Datum:Temp:Feuchte:
G-T/H 201 01-12-2018 16:11:18 10 C 73 %
202 01-12-2018 16:23:17 10 C 73 %
203 01-12-2018 16:35:17 10 C 73 %
204 01-12-2018 16:47:17 10 C 73 %
205 01-12-2018 16:59:17 10 C 74 %
206 01-12-2018 17:11:17 10 C 74 %
207 01-12-2018 17:23:17 10 C 74 %
208 01-12-2018 17:35:18 10 C 74 %
209 01-12-2018 17:47:18 10.1 C 74 %
210 01-12-2018 17:59:18 10 C 74 %
211 01-12-2018 18:11:17 10.1 C 74 %
212 01-12-2018 18:23:17 10.1 C 74 %
213 01-12-2018 18:35:17 10.1 C 74 %
214 01-12-2018 18:47:17 10.1 C 74 %
215 01-12-2018 18:59:17 10.1 C 74 %
216 01-12-2018 19:11:17 10.1 C 74 %
217 01-12-2018 19:23:17 10.1 C 74 %
218 01-12-2018 19:35:17 10.1 C 74 %
219 01-12-2018 19:47:17 10.1 C 74 %
220 01-12-2018 19:59:17 10.1 C 74 %
221 01-12-2018 20:11:18 10.1 C 74 %
222 01-12-2018 20:23:17 10.2 C 74 %
223 01-12-2018 20:35:18 10.1 C 74 %
224 01-12-2018 20:47:17 10.1 C 74 %
225 01-12-2018 20:59:17 10.2 C 74 %
Sensor: Nr:Datum:Temp:Feuchte:
G-T/H 226 01-12-2018 21:11:17 10.1 C 74 %
227 01-12-2018 21:23:17 10.1 C 74 %
228 01-12-2018 21:35:17 10.2 C 74 %
229 01-12-2018 21:47:17 10.2 C 74 %
230 01-12-2018 21:59:17 10.2 C 74 %
231 01-12-2018 22:11:17 10.2 C 74 %
232 01-12-2018 22:23:17 10.1 C 74 %
233 01-12-2018 22:35:17 10.2 C 74 %
234 01-12-2018 22:47:18 10.2 C 74 %
235 01-12-2018 22:59:18 10.2 C 74 %
236 01-12-2018 23:11:18 10.2 C 74 %
237 01-12-2018 23:23:17 10.2 C 74 %
238 01-12-2018 23:35:17 10.2 C 74 %
239 01-12-2018 23:47:17 10.2 C 74 %
240 01-12-2018 23:59:17 10.2 C 74 %
241 02-12-2018 00:11:17 10.2 C 74 %
242 02-12-2018 00:23:17 10.2 C 74 %
243 02-12-2018 00:35:17 10.2 C 74 %
244 02-12-2018 00:47:17 10.2 C 74 %
245 02-12-2018 00:59:17 10.2 C 74 %
246 02-12-2018 01:11:17 10.2 C 74 %
247 02-12-2018 01:23:17 10.2 C 74 %
248 02-12-2018 01:35:17 10.2 C 74 %
249 02-12-2018 01:47:17 10.2 C 74 %
250 02-12-2018 01:59:17 10.2 C 74 %
Sensor: Nr:Datum:Temp:Feuchte:
G-T/H 251 02-12-2018 02:11:17 10.3 C 74 %
252 02-12-2018 02:23:18 10.2 C 74 %
253 02-12-2018 02:35:18 10.2 C 75 %
254 02-12-2018 02:47:18 10.3 C 75 %
255 02-12-2018 02:59:18 10.2 C 75 %
256 02-12-2018 03:11:17 10.3 C 75 %
257 02-12-2018 03:23:17 10.3 C 75 %
258 02-12-2018 03:35:18 10.3 C 75 %
259 02-12-2018 03:47:18 10.3 C 75 %
260 02-12-2018 03:59:18 10.3 C 75 %
261 02-12-2018 04:11:17 10.3 C 75 %
262 02-12-2018 04:23:17 10.3 C 75 %
263 02-12-2018 04:35:17 10.3 C 75 %
264 02-12-2018 04:47:18 10.3 C 75 %
265 02-12-2018 04:59:18 10.3 C 75 %
266 02-12-2018 05:11:18 10.3 C 75 %
267 02-12-2018 05:23:17 10.4 C 75 %
268 02-12-2018 05:35:17 10.4 C 75 %
269 02-12-2018 05:47:17 10.4 C 75 %
270 02-12-2018 05:59:17 10.4 C 75 %
271 02-12-2018 06:11:17 10.4 C 75 %
272 02-12-2018 06:23:17 10.4 C 75 %
273 02-12-2018 06:35:17 10.4 C 75 %
274 02-12-2018 06:47:17 10.4 C 75 %
275 02-12-2018 06:59:17 10.4 C 75 %
Sensor: Nr:Datum:Temp:Feuchte:
G-T/H 276 02-12-2018 07:11:17 10.4 C 75 %
277 02-12-2018 07:23:17 10.4 C 75 %
278 02-12-2018 07:35:17 10.4 C 75 %
279 02-12-2018 07:47:17 10.4 C 75 %
280 02-12-2018 07:59:17 10.4 C 75 %
281 02-12-2018 08:11:17 10.4 C 75 %
282 02-12-2018 08:23:17 10.4 C 75 %
283 02-12-2018 08:35:18 10.4 C 75 %
284 02-12-2018 08:47:18 10.4 C 75 %
285 02-12-2018 08:59:18 10.4 C 75 %
286 02-12-2018 09:11:18 10.4 C 75 %
287 02-12-2018 09:23:17 10.5 C 75 %
288 02-12-2018 09:35:17 10.5 C 75 %
289 02-12-2018 09:47:17 10.5 C 75 %
290 02-12-2018 09:59:17 10.5 C 75 %
291 02-12-2018 10:11:17 10.5 C 75 %
292 02-12-2018 10:23:17 10.5 C 75 %
293 02-12-2018 10:35:17 10.5 C 75 %
294 02-12-2018 10:47:17 10.5 C 75 %
295 02-12-2018 10:59:17 10.5 C 75 %
296 02-12-2018 11:11:17 10.5 C 75 %
297 02-12-2018 11:23:17 10.5 C 75 %
298 02-12-2018 11:35:17 10.5 C 75 %
299 02-12-2018 11:47:17 10.6 C 76 %
300 02-12-2018 11:59:17 10.6 C 76 %
Sensor: Nr:Datum:Temp:Feuchte:
G-T/H 301 02-12-2018 12:11:17 10.6 C 76 %
302 02-12-2018 12:23:17 10.6 C 76 %
303 02-12-2018 12:35:17 10.6 C 76 %
304 02-12-2018 12:47:17 10.7 C 76 %
305 02-12-2018 12:59:17 10.7 C 76 %
306 02-12-2018 13:11:17 10.7 C 76 %
307 02-12-2018 13:23:17 10.7 C 76 %
308 02-12-2018 13:35:17 10.7 C 76 %
309 02-12-2018 13:47:17 10.8 C 76 %
310 02-12-2018 13:59:17 10.8 C 76 %
311 02-12-2018 14:11:17 10.8 C 76 %
312 02-12-2018 14:23:17 10.8 C 76 %
313 02-12-2018 14:35:18 10.8 C 76 %
314 02-12-2018 14:47:18 10.9 C 76 %
315 02-12-2018 14:59:18 10.8 C 76 %
316 02-12-2018 15:11:18 10.9 C 76 %
317 02-12-2018 15:23:17 10.9 C 76 %
318 02-12-2018 15:35:17 10.9 C 76 %
319 02-12-2018 15:47:18 10.9 C 76 %
320 02-12-2018 15:59:18 10.9 C 76 %
321 02-12-2018 16:11:18 11 C 76 %
322 02-12-2018 16:23:17 11 C 76 %
323 02-12-2018 16:35:18 11 C 76 %
324 02-12-2018 16:47:17 11 C 76 %
325 02-12-2018 16:59:17 11 C 76 %
Sensor: Nr:Datum:Temp:Feuchte:
G-T/H 326 02-12-2018 17:11:18 11 C 76 %
327 02-12-2018 17:23:17 11 C 76 %
328 02-12-2018 17:35:18 11.1 C 76 %
329 02-12-2018 17:47:18 11.1 C 76 %
330 02-12-2018 17:59:18 11.1 C 76 %
331 02-12-2018 18:11:17 11.1 C 76 %
332 02-12-2018 18:23:17 11.2 C 76 %
333 02-12-2018 18:35:17 11.2 C 76 %
334 02-12-2018 18:47:17 11.2 C 76 %
335 02-12-2018 18:59:17 11.2 C 76 %
336 02-12-2018 19:11:18 11.2 C 76 %
337 02-12-2018 19:23:17 11.2 C 77 %
338 02-12-2018 19:35:17 11.2 C 77 %
339 02-12-2018 19:47:17 11.2 C 77 %
340 02-12-2018 19:59:17 11.2 C 77 %
341 02-12-2018 20:11:17 11.3 C 77 %
342 02-12-2018 20:23:17 11.3 C 77 %
343 02-12-2018 20:35:17 11.3 C 77 %
344 02-12-2018 20:47:17 11.3 C 77 %
345 02-12-2018 20:59:17 11.3 C 77 %
346 02-12-2018 21:11:17 11.3 C 77 %
347 02-12-2018 21:23:18 11.4 C 77 %
348 02-12-2018 21:35:18 11.4 C 77 %
349 02-12-2018 21:47:17 11.4 C 77 %
350 02-12-2018 21:59:17 11.4 C 77 %
Sensor: Nr:Datum:Temp:Feuchte:
G-T/H 351 02-12-2018 22:11:17 11.4 C 77 %
352 02-12-2018 22:23:17 11.4 C 77 %
353 02-12-2018 22:35:17 11.4 C 77 %
354 02-12-2018 22:47:17 11.4 C 77 %
355 02-12-2018 22:59:17 11.5 C 77 %
356 02-12-2018 23:11:17 11.4 C 77 %
357 02-12-2018 23:23:17 11.5 C 77 %
358 02-12-2018 23:35:17 11.5 C 77 %
359 02-12-2018 23:47:17 11.5 C 77 %
360 02-12-2018 23:59:17 11.5 C 77 %
361 03-12-2018 00:11:17 11.5 C 77 %
362 03-12-2018 00:23:17 11.5 C 77 %
363 03-12-2018 00:35:18 11.5 C 77 %
364 03-12-2018 00:47:18 11.6 C 77 %
365 03-12-2018 00:59:18 11.5 C 77 %
366 03-12-2018 01:11:18 11.5 C 77 %
367 03-12-2018 01:23:17 11.5 C 77 %
368 03-12-2018 01:35:18 11.6 C 77 %
369 03-12-2018 01:47:18 11.6 C 77 %
370 03-12-2018 01:59:18 11.6 C 77 %
371 03-12-2018 02:11:17 11.6 C 77 %
372 03-12-2018 02:23:17 11.6 C 77 %
373 03-12-2018 02:35:17 11.6 C 77 %
374 03-12-2018 02:47:17 11.6 C 77 %
375 03-12-2018 02:59:17 11.6 C 77 %
Sensor: Nr:Datum:Temp:Feuchte:
G-T/H 376 03-12-2018 03:11:17 11.6 C 77 %
377 03-12-2018 03:23:17 11.6 C 77 %
378 03-12-2018 03:35:17 11.6 C 77 %
379 03-12-2018 03:47:17 11.6 C 77 %
380 03-12-2018 03:59:17 11.7 C 77 %
381 03-12-2018 04:11:17 11.7 C 77 %
382 03-12-2018 04:23:17 11.7 C 77 %
383 03-12-2018 04:35:18 11.7 C 77 %
384 03-12-2018 04:47:18 11.7 C 77 %
385 03-12-2018 04:59:18 11.7 C 77 %
386 03-12-2018 05:11:18 11.7 C 77 %
387 03-12-2018 05:23:17 11.7 C 77 %
388 03-12-2018 05:35:17 11.7 C 77 %
389 03-12-2018 05:47:17 11.8 C 77 %
390 03-12-2018 05:59:17 11.7 C 77 %
391 03-12-2018 06:11:17 11.7 C 77 %
392 03-12-2018 06:23:17 11.7 C 77 %
393 03-12-2018 06:35:18 11.7 C 77 %
394 03-12-2018 06:47:18 11.8 C 77 %
395 03-12-2018 06:59:18 11.8 C 77 %
396 03-12-2018 07:11:18 11.8 C 77 %
397 03-12-2018 07:23:17 11.8 C 77 %
398 03-12-2018 07:35:18 11.7 C 77 %
399 03-12-2018 07:47:18 11.7 C 77 %
400 03-12-2018 07:59:18 11.8 C 77 %
Sensor: Nr:Datum:Temp:Feuchte:
G-T/H 401 03-12-2018 08:11:18 11.8 C 77 %
402 03-12-2018 08:23:17 11.8 C 77 %
403 03-12-2018 08:35:18 11.8 C 77 %
404 03-12-2018 08:47:17 11.8 C 77 %
405 03-12-2018 08:59:17 11.8 C 77 %
406 03-12-2018 09:11:17 11.8 C 77 %
407 03-12-2018 09:23:17 11.8 C 77 %
408 03-12-2018 09:35:17 11.8 C 77 %
409 03-12-2018 09:47:17 11.8 C 77 %
410 03-12-2018 09:59:17 11.8 C 77 %
411 03-12-2018 10:11:18 11.8 C 77 %
412 03-12-2018 10:23:17 11.8 C 77 %
413 03-12-2018 10:35:18 11.8 C 77 %
414 03-12-2018 10:47:18 11.9 C 77 %
415 03-12-2018 10:59:18 11.9 C 77 %
416 03-12-2018 11:11:17 11.9 C 77 %
417 03-12-2018 11:23:17 11.9 C 77 %
418 03-12-2018 11:35:17 11.9 C 77 %
419 03-12-2018 11:47:17 11.9 C 77 %
420 03-12-2018 11:59:17 11.9 C 77 %
421 03-12-2018 12:11:17 11.9 C 77 %
422 03-12-2018 12:23:17 11.9 C 77 %
423 03-12-2018 12:35:17 11.9 C 77 %
424 03-12-2018 12:47:17 12 C 76 %
425 03-12-2018 12:59:17 11.9 C 77 %
Sensor: Nr:Datum:Temp:Feuchte:
G-T/H 426 03-12-2018 13:11:17 11.9 C 77 %
427 03-12-2018 13:23:17 12 C 76 %
428 03-12-2018 13:35:18 12 C 76 %
429 03-12-2018 13:47:18 12 C 76 %
430 03-12-2018 13:59:18 12 C 76 %
431 03-12-2018 14:11:18 12 C 76 %
432 03-12-2018 14:23:17 12 C 76 %
433 03-12-2018 14:35:17 12 C 76 %
434 03-12-2018 14:47:17 12 C 76 %
435 03-12-2018 14:59:17 12 C 76 %
436 03-12-2018 15:11:17 12 C 76 %
437 03-12-2018 15:23:17 12 C 76 %
438 03-12-2018 15:35:17 12 C 76 %
439 03-12-2018 15:47:17 12 C 76 %
440 03-12-2018 15:59:17 12 C 76 %
441 03-12-2018 16:11:17 12 C 76 %
442 03-12-2018 16:23:17 12 C 76 %
443 03-12-2018 16:35:17 12 C 76 %
444 03-12-2018 16:47:17 12.1 C 76 %
445 03-12-2018 16:59:17 12.1 C 76 %
446 03-12-2018 17:11:17 12.1 C 76 %
447 03-12-2018 17:23:17 12.1 C 76 %
448 03-12-2018 17:35:17 12 C 76 %
449 03-12-2018 17:47:17 12.1 C 76 %
450 03-12-2018 17:59:17 12.1 C 76 %
Sensor: Nr:Datum:Temp:Feuchte:
G-T/H 451 03-12-2018 18:11:17 12.1 C 76 %
452 03-12-2018 18:23:17 12.1 C 76 %
453 03-12-2018 18:35:17 12.1 C 76 %
454 03-12-2018 18:47:17 12.1 C 76 %
455 03-12-2018 18:59:17 12.1 C 76 %
456 03-12-2018 19:11:18 12.1 C 76 %
457 03-12-2018 19:23:17 12 C 76 %
458 03-12-2018 19:35:17 12.1 C 76 %
459 03-12-2018 19:47:17 12.1 C 76 %
460 03-12-2018 19:59:17 12.1 C 76 %
461 03-12-2018 20:11:17 12.1 C 76 %
462 03-12-2018 20:23:17 12.1 C 76 %
463 03-12-2018 20:35:17 12.1 C 76 %
464 03-12-2018 20:47:17 12.1 C 76 %
465 03-12-2018 20:59:17 12.1 C 76 %
466 03-12-2018 21:11:17 12.1 C 76 %
467 03-12-2018 21:23:17 12.1 C 76 %
468 03-12-2018 21:35:17 12.1 C 76 %
469 03-12-2018 21:47:17 12.1 C 76 %
470 03-12-2018 21:59:17 12 C 76 %
471 03-12-2018 22:11:17 12.1 C 76 %
472 03-12-2018 22:23:17 12 C 76 %
473 03-12-2018 22:35:17 12 C 76 %
474 03-12-2018 22:47:17 12 C 76 %
475 03-12-2018 22:59:17 12 C 76 %
Sensor: Nr:Datum:Temp:Feuchte:
G-T/H 476 03-12-2018 23:11:18 12 C 76 %
477 03-12-2018 23:23:17 12 C 76 %
478 03-12-2018 23:35:18 12 C 76 %
479 03-12-2018 23:47:17 12 C 76 %
480 03-12-2018 23:59:17 12 C 76 %
481 04-12-2018 00:11:17 12 C 76 %
482 04-12-2018 00:23:17 12 C 76 %
483 04-12-2018 00:35:17 12 C 76 %
484 04-12-2018 00:47:17 12 C 76 %
485 04-12-2018 00:59:17 12 C 76 %
486 04-12-2018 01:11:17 12 C 76 %
487 04-12-2018 01:23:17 12 C 76 %
488 04-12-2018 01:35:18 12 C 76 %
489 04-12-2018 01:47:18 12 C 76 %
490 04-12-2018 01:59:18 12 C 76 %
491 04-12-2018 02:11:18 12 C 76 %
492 04-12-2018 02:23:17 12 C 76 %
493 04-12-2018 02:35:18 12 C 76 %
494 04-12-2018 02:47:17 12 C 76 %
495 04-12-2018 02:59:17 12 C 76 %
496 04-12-2018 03:11:18 12 C 76 %
497 04-12-2018 03:23:17 12 C 76 %
498 04-12-2018 03:35:18 11.9 C 77 %
499 04-12-2018 03:47:18 11.9 C 77 %
500 04-12-2018 03:59:18 11.9 C 77 %
Sensor: Nr:Datum:Temp:Feuchte:
G-T/H 501 04-12-2018 04:11:18 12 C 76 %
502 04-12-2018 04:23:17 11.9 C 76 %
503 04-12-2018 04:35:18 11.9 C 76 %
504 04-12-2018 04:47:18 11.9 C 76 %
505 04-12-2018 04:59:18 11.9 C 76 %
506 04-12-2018 05:11:17 11.9 C 76 %
507 04-12-2018 05:23:17 11.9 C 76 %
508 04-12-2018 05:35:17 11.9 C 76 %
509 04-12-2018 05:47:18 11.9 C 76 %
510 04-12-2018 05:59:18 11.8 C 75 %
511 04-12-2018 06:11:17 11.8 C 75 %
512 04-12-2018 06:23:17 11.7 C 75 %
513 04-12-2018 06:35:17 11.7 C 74 %
514 04-12-2018 06:47:18 11.7 C 74 %
515 04-12-2018 06:59:18 11.7 C 74 %
516 04-12-2018 07:11:18 11.7 C 74 %
517 04-12-2018 07:23:17 11.7 C 74 %
518 04-12-2018 07:35:17 11.7 C 74 %
519 04-12-2018 07:47:18 11.7 C 74 %
520 04-12-2018 07:59:18 11.7 C 74 %
521 04-12-2018 08:11:18 11.7 C 74 %
522 04-12-2018 08:23:17 11.7 C 74 %
523 04-12-2018 08:35:17 11.6 C 74 %
524 04-12-2018 08:47:18 11.6 C 73 %
525 04-12-2018 08:59:18 11.5 C 73 %
Sensor: Nr:Datum:Temp:Feuchte:
G-T/H 526 04-12-2018 09:11:17 11.5 C 73 %
527 04-12-2018 09:23:17 11.5 C 73 %
528 04-12-2018 09:35:17 11.5 C 72 %
529 04-12-2018 09:47:17 11.5 C 72 %
530 04-12-2018 09:59:17 11.5 C 72 %
531 04-12-2018 10:11:17 11.5 C 72 %
532 04-12-2018 10:23:17 11.5 C 72 %
533 04-12-2018 10:35:17 11.5 C 72 %
534 04-12-2018 10:47:17 11.5 C 72 %
535 04-12-2018 10:59:17 11.5 C 72 %
536 04-12-2018 11:11:17 11.5 C 73 %
537 04-12-2018 11:23:17 11.5 C 73 %
538 04-12-2018 11:35:17 11.5 C 73 %
539 04-12-2018 11:47:17 11.5 C 73 %
540 04-12-2018 11:59:17 11.5 C 73 %
541 04-12-2018 12:11:17 11.5 C 73 %
542 04-12-2018 12:23:17 11.5 C 73 %
543 04-12-2018 12:35:17 11.5 C 73 %
544 04-12-2018 12:47:17 11.5 C 73 %
545 04-12-2018 12:59:17 11.5 C 73 %
546 04-12-2018 13:11:17 11.5 C 74 %
547 04-12-2018 13:23:18 11.4 C 74 %
548 04-12-2018 13:35:18 11.4 C 74 %
549 04-12-2018 13:47:17 11.4 C 73 %
550 04-12-2018 13:59:18 11.4 C 73 %
Sensor: Nr:Datum:Temp:Feuchte:
G-T/H 551 04-12-2018 14:11:18 11.4 C 73 %
552 04-12-2018 14:23:17 11.4 C 73 %
553 04-12-2018 14:35:18 11.4 C 73 %
554 04-12-2018 14:47:18 11.4 C 73 %
555 04-12-2018 14:59:18 11.4 C 73 %
556 04-12-2018 15:11:18 11.4 C 73 %
557 04-12-2018 15:23:17 11.4 C 73 %
558 04-12-2018 15:35:17 11.3 C 73 %
559 04-12-2018 15:47:17 11.3 C 72 %
560 04-12-2018 15:59:17 11.2 C 72 %
561 04-12-2018 16:11:18 11.2 C 71 %
562 04-12-2018 16:23:17 11.2 C 71 %
563 04-12-2018 16:35:18 11.1 C 71 %
564 04-12-2018 16:47:18 11.1 C 70 %
565 04-12-2018 16:59:18 11.1 C 70 %
566 04-12-2018 17:11:17 11.1 C 70 %
567 04-12-2018 17:23:17 11 C 69 %
568 04-12-2018 17:35:18 11 C 69 %
569 04-12-2018 17:47:18 11 C 69 %
570 04-12-2018 17:59:18 10.9 C 69 %
571 04-12-2018 18:11:18 10.6 C 68 %
572 04-12-2018 18:23:17 10.7 C 68 %
573 04-12-2018 18:35:17 10.7 C 68 %
574 04-12-2018 18:47:17 10.7 C 68 %
575 04-12-2018 18:59:17 10.7 C 68 %
Sensor: Nr:Datum:Temp:Feuchte:
G-T/H 576 04-12-2018 19:11:17 10.7 C 68 %
577 04-12-2018 19:23:18 10.7 C 68 %
578 04-12-2018 19:35:18 10.7 C 68 %
579 04-12-2018 19:47:18 10.6 C 67 %
580 04-12-2018 19:59:18 10.7 C 67 %
581 04-12-2018 20:11:18 10.6 C 67 %
582 04-12-2018 20:23:17 10.6 C 67 %
583 04-12-2018 20:35:17 10.6 C 67 %
584 04-12-2018 20:47:17 10.5 C 67 %
585 04-12-2018 20:59:17 10.5 C 67 %
586 04-12-2018 21:11:17 10.5 C 67 %
587 04-12-2018 21:23:17 10.5 C 66 %
588 04-12-2018 21:35:17 10.4 C 66 %
589 04-12-2018 21:47:17 10.4 C 66 %
590 04-12-2018 21:59:18 10.4 C 66 %
591 04-12-2018 22:11:18 10.3 C 66 %
592 04-12-2018 22:23:17 10.3 C 66 %
593 04-12-2018 22:35:18 10.3 C 66 %
594 04-12-2018 22:47:17 10.3 C 66 %
595 04-12-2018 22:59:17 10.2 C 66 %
596 04-12-2018 23:11:18 10.2 C 66 %
597 04-12-2018 23:23:17 10.2 C 66 %
598 04-12-2018 23:35:17 10.1 C 66 %
599 04-12-2018 23:47:17 10.2 C 66 %
600 04-12-2018 23:59:17 10.1 C 66 %
Sensor: Nr:Datum:Temp:Feuchte:
G-T/H 601 05-12-2018 00:11:17 10.1 C 66 %
602 05-12-2018 00:23:17 10.1 C 65 %
603 05-12-2018 00:35:17 10.1 C 65 %
604 05-12-2018 00:47:17 10 C 65 %
605 05-12-2018 00:59:17 10 C 65 %
606 05-12-2018 01:11:17 10 C 65 %
607 05-12-2018 01:23:17 9.9 C 66 %
608 05-12-2018 01:35:18 9.9 C 66 %
609 05-12-2018 01:47:18 9.9 C 66 %
610 05-12-2018 01:59:18 9.9 C 66 %
611 05-12-2018 02:11:18 9.9 C 66 %
612 05-12-2018 02:23:17 9.8 C 66 %
613 05-12-2018 02:35:17 9.8 C 66 %
614 05-12-2018 02:47:17 9.8 C 65 %
615 05-12-2018 02:59:17 9.7 C 65 %
616 05-12-2018 03:11:17 9.7 C 65 %
617 05-12-2018 03:23:17 9.7 C 65 %
618 05-12-2018 03:35:17 9.7 C 65 %
619 05-12-2018 03:47:17 9.6 C 65 %
620 05-12-2018 03:59:17 9.6 C 65 %
621 05-12-2018 04:11:17 9.6 C 65 %
622 05-12-2018 04:23:17 9.6 C 65 %
623 05-12-2018 04:35:17 9.6 C 66 %
624 05-12-2018 04:47:17 9.6 C 66 %
625 05-12-2018 04:59:17 9.6 C 67 %
Sensor: Nr:Datum:Temp:Feuchte:
G-T/H 626 05-12-2018 05:11:17 9.6 C 67 %
627 05-12-2018 05:23:17 9.6 C 67 %
628 05-12-2018 05:35:17 9.6 C 67 %
629 05-12-2018 05:47:18 9.6 C 68 %
630 05-12-2018 05:59:18 9.6 C 68 %
631 05-12-2018 06:11:17 9.6 C 68 %
632 05-12-2018 06:23:18 9.6 C 68 %
633 05-12-2018 06:35:18 9.6 C 68 %
634 05-12-2018 06:47:18 9.6 C 68 %
635 05-12-2018 06:59:18 9.6 C 68 %
636 05-12-2018 07:11:18 9.6 C 68 %
637 05-12-2018 07:23:17 9.6 C 68 %
638 05-12-2018 07:35:18 9.6 C 68 %
639 05-12-2018 07:47:18 9.6 C 68 %
640 05-12-2018 07:59:18 9.6 C 69 %
641 05-12-2018 08:11:18 9.6 C 69 %
642 05-12-2018 08:23:17 9.6 C 69 %
643 05-12-2018 08:35:18 9.5 C 69 %
644 05-12-2018 08:59:17 9.6 C 69 %
645 05-12-2018 08:59:17 9.5 C 69 %
646 05-12-2018 09:11:17 9.5 C 69 %
647 05-12-2018 09:23:17 9.5 C 69 %
648 05-12-2018 09:35:17 9.5 C 69 %
649 05-12-2018 09:59:17 9.5 C 69 %
650 05-12-2018 09:59:17 9.5 C 69 %
Sensor: Nr:Datum:Temp:Feuchte:
G-T/H 651 05-12-2018 10:11:17 9.5 C 69 %
652 05-12-2018 10:23:17 9.5 C 69 %
653 05-12-2018 10:35:17 9.5 C 69 %
654 05-12-2018 10:47:17 9.5 C 69 %
655 05-12-2018 10:59:17 9.5 C 69 %
656 05-12-2018 11:11:17 9.5 C 69 %
657 05-12-2018 11:23:17 9.5 C 69 %
658 05-12-2018 11:35:17 9.5 C 69 %
659 05-12-2018 11:47:17 9.5 C 69 %
660 05-12-2018 11:59:17 9.5 C 70 %
661 05-12-2018 12:11:17 9.5 C 70 %
662 05-12-2018 12:23:18 9.2 C 69 %
663 05-12-2018 12:36:17 9.3 C 69 %
664 05-12-2018 12:47:18 9.3 C 69 %
665 05-12-2018 12:59:18 9.4 C 69 %
666 05-12-2018 13:12:17 9.4 C 69 %
667 05-12-2018 13:23:17 9.4 C 69 %
668 05-12-2018 13:35:17 9.4 C 70 %
669 05-12-2018 13:59:17 9.5 C 70 %
670 05-12-2018 13:59:17 9.4 C 70 %
671 05-12-2018 14:11:17 9.4 C 70 %
672 05-12-2018 14:23:18 9.5 C 70 %
673 05-12-2018 14:36:17 9.5 C 70 %
674 05-12-2018 14:48:17 9.5 C 70 %
675 05-12-2018 15:00:17 9.5 C 70 %
Sensor: Nr:Datum:Temp:Feuchte:
G-T/H 676 05-12-2018 15:12:17 9.5 C 71 %
677 05-12-2018 15:23:17 9.5 C 71 %
678 05-12-2018 15:35:17 9.5 C 71 %
679 05-12-2018 15:59:17 9.5 C 71 %
680 05-12-2018 16:00:17 9.5 C 71 %
681 05-12-2018 16:11:17 9.5 C 71 %
682 05-12-2018 16:23:17 9.5 C 71 %
683 05-12-2018 16:35:17 9.6 C 71 %
684 05-12-2018 16:47:17 9.5 C 71 %
685 05-12-2018 16:59:17 9.5 C 71 %
686 05-12-2018 17:11:17 9.6 C 71 %
687 05-12-2018 17:24:17 9.6 C 71 %
688 05-12-2018 17:35:18 9.5 C 71 %
689 05-12-2018 17:47:18 9.5 C 71 %
690 05-12-2018 17:59:18 9.5 C 71 %
691 05-12-2018 18:11:18 9.6 C 71 %
692 05-12-2018 18:24:17 9.6 C 71 %
693 05-12-2018 18:36:17 9.6 C 71 %
694 05-12-2018 18:48:17 9.5 C 71 %
695 05-12-2018 18:59:18 9.6 C 71 %
696 05-12-2018 19:11:18 9.6 C 71 %
697 05-12-2018 19:24:17 9.6 C 71 %
698 05-12-2018 19:35:18 9.6 C 71 %
699 05-12-2018 19:47:18 9.7 C 71 %
700 05-12-2018 19:59:18 9.6 C 71 %
Sensor: Nr:Datum:Temp:Feuchte:
G-T/H 701 05-12-2018 20:11:18 9.7 C 71 %
702 05-12-2018 20:24:17 9.7 C 71 %
703 05-12-2018 20:35:18 9.7 C 71 %
704 05-12-2018 20:47:18 9.7 C 71 %
705 05-12-2018 20:59:18 9.7 C 71 %
706 05-12-2018 21:11:18 9.7 C 71 %
707 05-12-2018 21:24:17 9.7 C 72 %
708 05-12-2018 21:35:18 9.7 C 72 %
709 05-12-2018 21:47:18 9.7 C 72 %
710 05-12-2018 21:59:18 9.7 C 72 %
711 05-12-2018 22:11:18 9.8 C 72 %
712 05-12-2018 22:24:17 9.8 C 72 %
713 05-12-2018 22:36:17 9.8 C 72 %
714 05-12-2018 22:48:17 9.8 C 72 %
715 05-12-2018 23:00:17 9.8 C 72 %
716 05-12-2018 23:12:17 9.8 C 72 %
717 05-12-2018 23:24:17 9.8 C 72 %
718 05-12-2018 23:36:17 9.8 C 72 %
719 05-12-2018 23:48:17 9.8 C 72 %
720 06-12-2018 00:00:17 9.8 C 72 %
721 06-12-2018 00:12:17 9.8 C 72 %
722 06-12-2018 00:24:17 9.8 C 72 %
723 06-12-2018 00:36:17 9.8 C 72 %
724 06-12-2018 00:48:17 9.8 C 72 %
725 06-12-2018 01:00:17 9.8 C 72 %
Sensor: Nr:Datum:Temp:Feuchte:
G-T/H 726 06-12-2018 01:12:17 9.8 C 72 %
727 06-12-2018 01:24:17 9.8 C 72 %
728 06-12-2018 01:36:17 9.8 C 72 %
729 06-12-2018 01:48:17 9.8 C 72 %
730 06-12-2018 02:00:17 9.8 C 72 %
731 06-12-2018 02:12:17 9.9 C 72 %
732 06-12-2018 02:24:17 9.9 C 72 %
733 06-12-2018 02:36:17 9.9 C 72 %
734 06-12-2018 02:48:17 9.9 C 72 %
735 06-12-2018 03:00:18 9.9 C 72 %
736 06-12-2018 03:12:18 9.9 C 72 %
737 06-12-2018 03:24:17 9.9 C 72 %
738 06-12-2018 03:36:17 9.9 C 72 %
739 06-12-2018 03:48:17 9.9 C 73 %
740 06-12-2018 04:00:17 9.9 C 73 %
741 06-12-2018 04:12:17 9.9 C 73 %
742 06-12-2018 04:24:17 9.9 C 73 %
743 06-12-2018 04:36:17 9.9 C 73 %
744 06-12-2018 04:48:17 9.9 C 73 %
745 06-12-2018 05:00:17 10 C 72 %
746 06-12-2018 05:12:17 9.9 C 73 %
747 06-12-2018 05:24:17 9.9 C 73 %
748 06-12-2018 05:36:17 10 C 72 %
749 06-12-2018 05:48:18 10 C 72 %
750 06-12-2018 06:00:17 10 C 72 %
Sensor: Nr:Datum:Temp:Feuchte:
G-T/H 751 06-12-2018 06:12:17 10 C 72 %
752 06-12-2018 06:24:18 10 C 72 %
753 06-12-2018 06:36:18 10 C 72 %
754 06-12-2018 06:48:17 10 C 72 %
755 06-12-2018 07:00:18 10 C 72 %
756 06-12-2018 07:12:18 10 C 72 %
757 06-12-2018 07:24:17 10 C 72 %
758 06-12-2018 07:36:17 10 C 72 %
759 06-12-2018 07:48:17 10 C 72 %
760 06-12-2018 08:00:17 10 C 72 %
761 06-12-2018 08:12:17 10 C 72 %
762 06-12-2018 08:24:17 10.1 C 72 %
763 06-12-2018 08:36:18 10.1 C 72 %
764 06-12-2018 08:48:17 10.1 C 72 %
765 06-12-2018 09:00:17 10.1 C 72 %
766 06-12-2018 09:12:17 10.1 C 72 %
767 06-12-2018 09:24:17 10.1 C 72 %
768 06-12-2018 09:36:17 10.1 C 72 %
769 06-12-2018 09:48:18 10.1 C 72 %
770 06-12-2018 10:00:17 10.1 C 72 %
771 06-12-2018 10:12:17 10.1 C 72 %
772 06-12-2018 10:24:18 10.2 C 72 %
773 06-12-2018 10:36:18 10.2 C 73 %
774 06-12-2018 10:48:18 10.2 C 73 %
775 06-12-2018 11:00:18 10.2 C 73 %
Sensor: Nr:Datum:Temp:Feuchte:
G-T/H 776 06-12-2018 11:12:18 10.2 C 73 %
777 06-12-2018 11:24:17 10.2 C 73 %
778 06-12-2018 11:36:17 10.2 C 73 %
779 06-12-2018 11:48:17 10.3 C 73 %
780 06-12-2018 12:00:18 10.3 C 73 %
781 06-12-2018 12:12:18 10.3 C 73 %
782 06-12-2018 12:24:17 10.4 C 73 %
783 06-12-2018 12:36:17 10.4 C 73 %
784 06-12-2018 12:48:17 10.4 C 73 %
785 06-12-2018 13:00:17 10.4 C 73 %
786 06-12-2018 13:12:17 10.4 C 73 %
787 06-12-2018 13:24:17 10.5 C 73 %
788 06-12-2018 13:36:18 10.5 C 73 %
789 06-12-2018 13:48:18 10.5 C 73 %
790 06-12-2018 14:00:18 10.5 C 73 %
791 06-12-2018 14:12:18 10.5 C 73 %
792 06-12-2018 14:24:17 10.6 C 73 %
793 06-12-2018 14:36:17 10.6 C 73 %
794 06-12-2018 14:48:17 10.6 C 73 %
795 06-12-2018 15:00:17 10.6 C 73 %
796 06-12-2018 15:12:17 10.6 C 73 %
797 06-12-2018 15:24:17 10.6 C 73 %
798 06-12-2018 15:36:17 10.7 C 73 %
799 06-12-2018 15:48:17 10.7 C 74 %
800 06-12-2018 16:00:17 10.7 C 74 %
Sensor: Nr:Datum:Temp:Feuchte:
G-T/H 801 06-12-2018 16:12:17 10.7 C 74 %
802 06-12-2018 16:24:17 10.7 C 74 %
803 06-12-2018 16:36:17 10.7 C 74 %
804 06-12-2018 16:48:17 10.7 C 74 %
805 06-12-2018 17:00:17 10.8 C 74 %
806 06-12-2018 17:12:17 10.8 C 74 %
807 06-12-2018 17:24:17 10.8 C 74 %
808 06-12-2018 17:36:17 10.8 C 74 %
809 06-12-2018 17:48:18 10.8 C 74 %
810 06-12-2018 18:00:18 10.8 C 74 %
811 06-12-2018 18:12:18 10.9 C 74 %
812 06-12-2018 18:24:17 10.9 C 74 %
813 06-12-2018 18:36:17 10.9 C 74 %
814 06-12-2018 18:48:17 10.9 C 74 %
815 06-12-2018 19:00:17 10.9 C 74 %
816 06-12-2018 19:12:17 11 C 73 %
817 06-12-2018 19:24:17 11 C 74 %
818 06-12-2018 19:36:17 11 C 74 %
819 06-12-2018 19:48:18 11 C 74 %
820 06-12-2018 20:00:18 11 C 74 %
821 06-12-2018 20:12:18 11 C 74 %
822 06-12-2018 20:24:17 11 C 74 %
823 06-12-2018 20:36:17 11.1 C 74 %
824 06-12-2018 20:48:17 11.1 C 74 %
825 06-12-2018 21:00:17 11.1 C 74 %
Sensor: Nr:Datum:Temp:Feuchte:
G-T/H 826 06-12-2018 21:12:17 11.1 C 74 %
827 06-12-2018 21:24:18 11.1 C 74 %
828 06-12-2018 21:36:18 11.1 C 74 %
829 06-12-2018 21:48:17 11.1 C 74 %
830 06-12-2018 22:00:17 11.2 C 74 %
831 06-12-2018 22:12:17 11.2 C 74 %
832 06-12-2018 22:24:17 11.2 C 74 %
833 06-12-2018 22:36:17 11.2 C 74 %
834 06-12-2018 22:48:17 11.2 C 74 %
835 06-12-2018 23:00:17 11.2 C 74 %
836 06-12-2018 23:12:17 11.2 C 74 %
837 06-12-2018 23:24:17 11.2 C 74 %
838 06-12-2018 23:36:17 11.3 C 74 %
839 06-12-2018 23:48:17 11.3 C 74 %
840 07-12-2018 00:00:17 11.3 C 74 %
841 07-12-2018 00:12:17 11.3 C 74 %
842 07-12-2018 00:24:18 11.3 C 74 %
843 07-12-2018 00:36:18 11.3 C 74 %
844 07-12-2018 00:48:18 11.4 C 74 %
845 07-12-2018 01:00:18 11.4 C 74 %
846 07-12-2018 01:12:18 11.4 C 74 %
847 07-12-2018 01:24:17 11.4 C 74 %
848 07-12-2018 01:36:17 11.4 C 74 %
849 07-12-2018 01:48:17 11.5 C 74 %
850 07-12-2018 02:00:18 11.5 C 74 %
Sensor: Nr:Datum:Temp:Feuchte:
G-T/H 851 07-12-2018 02:12:18 11.5 C 74 %
852 07-12-2018 02:24:17 11.5 C 74 %
853 07-12-2018 02:36:17 11.5 C 74 %
854 07-12-2018 02:48:17 11.5 C 74 %
855 07-12-2018 03:00:17 11.5 C 74 %
856 07-12-2018 03:12:17 11.5 C 74 %
857 07-12-2018 03:24:17 11.5 C 75 %
858 07-12-2018 03:36:17 11.6 C 75 %
859 07-12-2018 03:48:17 11.6 C 75 %
860 07-12-2018 04:00:17 11.6 C 75 %
861 07-12-2018 04:12:17 11.6 C 75 %
862 07-12-2018 04:24:17 11.6 C 75 %
863 07-12-2018 04:36:18 11.6 C 75 %
864 07-12-2018 04:48:18 11.7 C 75 %
865 07-12-2018 05:00:18 11.7 C 75 %
866 07-12-2018 05:12:18 11.7 C 75 %
867 07-12-2018 05:24:17 11.7 C 75 %
868 07-12-2018 05:36:17 11.7 C 75 %
869 07-12-2018 05:48:17 11.7 C 75 %
870 07-12-2018 06:00:18 11.7 C 75 %
871 07-12-2018 06:12:18 11.7 C 75 %
872 07-12-2018 06:24:17 11.7 C 75 %
873 07-12-2018 06:36:18 11.7 C 75 %
874 07-12-2018 06:48:18 11.8 C 75 %
875 07-12-2018 07:00:18 11.7 C 75 %
Sensor: Nr:Datum:Temp:Feuchte:
G-T/H 876 07-12-2018 07:12:18 11.7 C 75 %
877 07-12-2018 07:24:17 11.8 C 75 %
878 07-12-2018 07:36:18 11.8 C 75 %
879 07-12-2018 07:48:18 11.8 C 75 %
880 07-12-2018 08:00:18 11.8 C 75 %
881 07-12-2018 08:12:18 11.8 C 75 %
882 07-12-2018 08:24:17 11.8 C 75 %
883 07-12-2018 08:36:17 11.8 C 75 %
884 07-12-2018 08:48:17 11.8 C 75 %
885 07-12-2018 09:00:18 11.8 C 75 %
886 07-12-2018 09:12:18 11.8 C 75 %
887 07-12-2018 09:24:17 11.8 C 75 %
888 07-12-2018 09:36:17 11.9 C 75 %
889 07-12-2018 09:48:18 11.9 C 75 %
890 07-12-2018 10:00:18 11.9 C 75 %
891 07-12-2018 10:12:18 11.8 C 75 %
892 07-12-2018 10:24:17 11.8 C 75 %
893 07-12-2018 10:36:17 11.9 C 75 %
894 07-12-2018 10:48:18 11.9 C 75 %
895 07-12-2018 11:00:17 11.9 C 75 %
896 07-12-2018 11:12:17 11.9 C 75 %
897 07-12-2018 11:24:18 11.9 C 75 %
898 07-12-2018 11:36:18 12 C 74 %
899 07-12-2018 11:48:18 11.9 C 75 %
900 07-12-2018 12:00:17 12 C 74 %
Sensor: Nr:Datum:Temp:Feuchte:
G-T/H 901 07-12-2018 12:12:17 12 C 74 %
902 07-12-2018 12:24:17 12 C 74 %
903 07-12-2018 12:36:17 12 C 74 %
904 07-12-2018 12:48:17 12 C 74 %
905 07-12-2018 13:00:17 12 C 74 %
906 07-12-2018 13:12:17 12 C 74 %
907 07-12-2018 13:24:17 12 C 74 %
908 07-12-2018 13:36:18 12 C 74 %
909 07-12-2018 13:48:17 12 C 74 %
910 07-12-2018 14:00:17 12 C 74 %
911 07-12-2018 14:12:17 12.1 C 74 %
912 07-12-2018 14:24:17 12.1 C 74 %
913 07-12-2018 14:36:18 12.1 C 74 %
914 07-12-2018 14:48:18 12.1 C 74 %
915 07-12-2018 15:00:18 12.1 C 74 %
916 07-12-2018 15:12:18 12.1 C 74 %
917 07-12-2018 15:24:17 12.1 C 74 %
918 07-12-2018 15:36:17 12.1 C 74 %
919 07-12-2018 15:48:17 12.1 C 74 %
920 07-12-2018 16:00:18 12.1 C 74 %
921 07-12-2018 16:12:18 12 C 74 %
922 07-12-2018 16:24:17 12.1 C 74 %
923 07-12-2018 16:36:17 12 C 74 %
924 07-12-2018 16:48:17 12.1 C 74 %
925 07-12-2018 17:00:18 12.1 C 74 %
Sensor: Nr:Datum:Temp:Feuchte:
G-T/H 926 07-12-2018 17:12:18 12.1 C 74 %
927 07-12-2018 17:24:17 12 C 74 %
928 07-12-2018 17:36:17 12 C 74 %
929 07-12-2018 17:48:18 12 C 74 %
930 07-12-2018 18:00:17 12.1 C 74 %
931 07-12-2018 18:12:17 12 C 74 %
932 07-12-2018 18:24:18 12.1 C 74 %
933 07-12-2018 18:36:18 12 C 74 %
934 07-12-2018 18:48:17 12.1 C 74 %
935 07-12-2018 19:00:18 12.1 C 74 %
936 07-12-2018 19:12:18 12.1 C 74 %
937 07-12-2018 19:24:17 12 C 74 %
938 07-12-2018 19:36:17 12.1 C 74 %
939 07-12-2018 19:48:17 12 C 74 %
940 07-12-2018 20:00:17 12 C 74 %
941 07-12-2018 20:12:17 12 C 74 %
942 07-12-2018 20:24:17 12.1 C 74 %
943 07-12-2018 20:36:17 12.1 C 74 %
944 07-12-2018 20:48:17 12.1 C 74 %
945 07-12-2018 21:00:17 12.1 C 74 %
946 07-12-2018 21:12:17 12.1 C 74 %
947 07-12-2018 21:24:17 11.9 C 74 %
948 07-12-2018 21:36:17 12 C 73 %
949 07-12-2018 21:48:17 11.9 C 73 %
950 07-12-2018 22:00:17 11.8 C 72 %
Sensor: Nr:Datum:Temp:Feuchte:
G-T/H 951 07-12-2018 22:12:17 11.8 C 72 %
952 07-12-2018 22:24:17 11.8 C 71 %
953 07-12-2018 22:36:17 11.7 C 71 %
954 07-12-2018 22:48:17 11.7 C 71 %
955 07-12-2018 23:00:17 11.7 C 70 %
956 07-12-2018 23:12:17 11.7 C 70 %
957 07-12-2018 23:24:17 11.7 C 70 %
958 07-12-2018 23:36:17 11.7 C 70 %
959 07-12-2018 23:48:17 11.6 C 70 %
960 08-12-2018 00:00:17 11.6 C 69 %
961 08-12-2018 00:12:17 11.6 C 69 %
962 08-12-2018 00:24:17 11.5 C 69 %
963 08-12-2018 00:36:17 11.5 C 69 %
964 08-12-2018 00:48:17 11.5 C 69 %
965 08-12-2018 01:00:17 11.5 C 69 %
966 08-12-2018 01:12:17 11.4 C 68 %
967 08-12-2018 01:24:17 11.4 C 68 %
968 08-12-2018 01:36:17 11.4 C 68 %
969 08-12-2018 01:48:17 11.4 C 68 %
970 08-12-2018 02:00:17 11.4 C 68 %
971 08-12-2018 02:12:17 11.3 C 68 %
972 08-12-2018 02:24:17 11.3 C 68 %
973 08-12-2018 02:36:17 11.3 C 68 %
974 08-12-2018 02:48:17 11.2 C 67 %
975 08-12-2018 03:00:17 11.2 C 67 %
Sensor: Nr:Datum:Temp:Feuchte:
G-T/H 976 08-12-2018 03:12:17 11.2 C 67 %
977 08-12-2018 03:24:17 11.2 C 67 %
978 08-12-2018 03:36:17 11.2 C 67 %
979 08-12-2018 03:48:17 11.2 C 67 %
980 08-12-2018 04:00:17 11.2 C 67 %
981 08-12-2018 04:12:17 11.1 C 67 %
982 08-12-2018 04:24:18 11.2 C 67 %
983 08-12-2018 04:36:18 11.2 C 68 %
984 08-12-2018 04:48:17 11.2 C 68 %
985 08-12-2018 05:00:17 11.2 C 68 %
986 08-12-2018 05:12:17 11.2 C 68 %
987 08-12-2018 05:24:17 11.2 C 69 %
988 08-12-2018 05:36:17 11.2 C 69 %
989 08-12-2018 05:48:17 11.2 C 69 %
990 08-12-2018 06:00:17 11.2 C 69 %
991 08-12-2018 06:12:17 11.2 C 69 %
992 08-12-2018 06:24:17 11.2 C 69 %
993 08-12-2018 06:36:18 11.2 C 70 %
994 08-12-2018 06:48:18 11.1 C 70 %
995 08-12-2018 07:00:18 11.1 C 70 %
996 08-12-2018 07:12:18 11.2 C 70 %
997 08-12-2018 07:24:17 11.1 C 70 %
998 08-12-2018 07:36:17 11.1 C 70 %
999 08-12-2018 07:48:17 11.1 C 70 %
1000 08-12-2018 08:00:17 11.1 C 70 %
Sensor: Nr:Datum:Temp:Feuchte:
G-T/H 1001 08-12-2018 08:12:17 11.1 C 70 %
1002 08-12-2018 08:24:17 11 C 70 %
1003 08-12-2018 08:36:17 11.1 C 70 %
1004 08-12-2018 08:48:17 11.1 C 70 %
1005 08-12-2018 09:00:18 11 C 70 %
1006 08-12-2018 09:12:18 11 C 70 %
1007 08-12-2018 09:24:17 11 C 70 %
1008 08-12-2018 09:36:17 11 C 70 %
1009 08-12-2018 09:48:17 11 C 70 %
1010 08-12-2018 10:00:17 11 C 71 %
1011 08-12-2018 10:12:17 11 C 71 %
1012 08-12-2018 10:24:17 11 C 71 %
1013 08-12-2018 10:36:17 11 C 71 %
1014 08-12-2018 10:48:18 11 C 71 %
1015 08-12-2018 11:00:18 11 C 71 %
1016 08-12-2018 11:12:18 11 C 71 %
1017 08-12-2018 11:24:17 10.9 C 71 %
1018 08-12-2018 11:36:18 10.9 C 72 %
1019 08-12-2018 11:48:18 10.9 C 72 %
1020 08-12-2018 12:00:18 11 C 71 %
1021 08-12-2018 12:12:18 11.1 C 71 %
1022 08-12-2018 12:24:17 11.1 C 71 %
1023 08-12-2018 12:36:17 11 C 71 %
1024 08-12-2018 12:48:17 11 C 71 %
1025 08-12-2018 13:00:18 11 C 71 %
Sensor: Nr:Datum:Temp:Feuchte:
G-T/H 1026 08-12-2018 13:12:18 11 C 71 %
1027 08-12-2018 13:24:17 11 C 71 %
1028 08-12-2018 13:36:17 11 C 71 %
1029 08-12-2018 13:48:18 11 C 71 %
1030 08-12-2018 14:00:18 11 C 71 %
1031 08-12-2018 14:12:18 11 C 71 %
1032 08-12-2018 14:24:17 11 C 71 %
1033 08-12-2018 14:36:18 11 C 71 %
1034 08-12-2018 14:48:18 11 C 71 %
1035 08-12-2018 15:00:18 10.9 C 72 %
1036 08-12-2018 15:12:18 10.9 C 72 %
1037 08-12-2018 15:24:17 10.9 C 72 %
1038 08-12-2018 15:36:18 10.9 C 72 %
1039 08-12-2018 15:48:18 10.9 C 72 %
1040 08-12-2018 16:00:17 10.9 C 72 %
1041 08-12-2018 16:12:17 10.9 C 72 %
1042 08-12-2018 16:24:17 10.9 C 72 %
1043 08-12-2018 16:36:18 10.9 C 72 %
1044 08-12-2018 16:48:18 10.9 C 72 %
1045 08-12-2018 17:00:18 10.9 C 72 %
1046 08-12-2018 17:12:18 10.9 C 72 %
1047 08-12-2018 17:24:17 10.9 C 72 %
1048 08-12-2018 17:36:17 10.9 C 72 %
1049 08-12-2018 17:48:17 10.9 C 72 %
1050 08-12-2018 18:00:17 10.9 C 72 %
Sensor: Nr:Datum:Temp:Feuchte:
G-T/H 1051 08-12-2018 18:12:17 10.9 C 72 %
1052 08-12-2018 18:24:17 10.9 C 72 %
1053 08-12-2018 18:36:17 10.9 C 72 %
1054 08-12-2018 18:48:17 10.8 C 73 %
1055 08-12-2018 19:00:18 10.9 C 73 %
1056 08-12-2018 19:12:18 10.9 C 73 %
1057 08-12-2018 19:24:17 10.8 C 73 %
1058 08-12-2018 19:36:17 10.9 C 73 %
1059 08-12-2018 19:48:17 10.9 C 73 %
1060 08-12-2018 20:00:17 10.9 C 73 %
1061 08-12-2018 20:12:17 10.8 C 73 %
1062 08-12-2018 20:24:17 10.8 C 73 %
1063 08-12-2018 20:36:17 10.8 C 73 %
1064 08-12-2018 20:48:18 10.8 C 73 %
1065 08-12-2018 21:00:18 10.9 C 73 %
1066 08-12-2018 21:12:18 10.8 C 73 %
1067 08-12-2018 21:24:17 10.9 C 73 %
1068 08-12-2018 21:36:18 10.8 C 73 %
1069 08-12-2018 21:48:18 10.9 C 73 %
1070 08-12-2018 22:00:17 10.9 C 73 %
1071 08-12-2018 22:12:17 10.8 C 73 %
1072 08-12-2018 22:24:17 10.9 C 73 %
1073 08-12-2018 22:36:17 10.9 C 73 %
1074 08-12-2018 22:48:17 10.9 C 73 %
1075 08-12-2018 23:00:18 10.9 C 73 %
Sensor: Nr:Datum:Temp:Feuchte:
G-T/H 1076 08-12-2018 23:12:18 10.9 C 73 %
1077 08-12-2018 23:24:17 10.9 C 73 %
1078 08-12-2018 23:36:17 10.9 C 73 %
1079 08-12-2018 23:48:17 10.9 C 73 %
1080 09-12-2018 00:00:17 10.9 C 73 %
1081 09-12-2018 00:12:17 10.9 C 73 %
1082 09-12-2018 00:24:17 10.9 C 73 %
1083 09-12-2018 00:36:18 10.9 C 73 %
1084 09-12-2018 00:48:18 10.9 C 73 %
1085 09-12-2018 01:00:17 10.9 C 73 %
1086 09-12-2018 01:12:18 10.9 C 73 %
1087 09-12-2018 01:24:17 10.9 C 73 %
1088 09-12-2018 01:36:18 10.9 C 73 %
1089 09-12-2018 01:48:18 10.9 C 73 %
1090 09-12-2018 02:00:18 10.9 C 73 %
1091 09-12-2018 02:12:18 10.9 C 73 %
1092 09-12-2018 02:24:17 10.9 C 73 %
1093 09-12-2018 02:36:18 10.9 C 73 %
1094 09-12-2018 02:48:17 10.9 C 73 %
1095 09-12-2018 03:00:17 10.9 C 73 %
1096 09-12-2018 03:12:18 10.9 C 73 %
1097 09-12-2018 03:24:18 10.9 C 73 %
1098 09-12-2018 03:36:18 10.9 C 73 %
1099 09-12-2018 03:48:18 10.9 C 73 %
1100 09-12-2018 04:00:17 10.9 C 73 %
Sensor: Nr:Datum:Temp:Feuchte:
G-T/H 1101 09-12-2018 04:12:17 10.9 C 73 %
1102 09-12-2018 04:24:18 10.9 C 73 %
1103 09-12-2018 04:36:18 10.9 C 73 %
1104 09-12-2018 04:48:18 10.9 C 73 %
1105 09-12-2018 05:00:18 10.9 C 73 %
1106 09-12-2018 05:12:18 10.9 C 73 %
1107 09-12-2018 05:24:17 10.9 C 73 %
1108 09-12-2018 05:36:18 10.9 C 73 %
1109 09-12-2018 05:48:18 10.9 C 73 %
1110 09-12-2018 06:00:17 10.9 C 73 %
1111 09-12-2018 06:12:17 10.9 C 73 %
1112 09-12-2018 06:24:17 10.9 C 73 %
1113 09-12-2018 06:36:17 10.9 C 73 %
1114 09-12-2018 06:48:17 10.9 C 73 %
1115 09-12-2018 07:00:17 10.9 C 73 %
1116 09-12-2018 07:12:17 10.9 C 73 %
1117 09-12-2018 07:24:17 10.9 C 73 %
1118 09-12-2018 07:36:17 10.9 C 73 %
1119 09-12-2018 07:48:17 10.9 C 73 %
1120 09-12-2018 08:00:18 10.9 C 73 %
1121 09-12-2018 08:12:18 10.9 C 73 %
1122 09-12-2018 08:24:17 10.8 C 73 %
1123 09-12-2018 08:36:18 10.9 C 73 %
1124 09-12-2018 08:48:18 10.9 C 73 %
1125 09-12-2018 09:00:18 10.9 C 73 %
Sensor: Nr:Datum:Temp:Feuchte:
G-T/H 1126 09-12-2018 09:12:18 10.9 C 73 %
1127 09-12-2018 09:24:17 10.9 C 73 %
1128 09-12-2018 09:36:18 10.8 C 73 %
1129 09-12-2018 09:48:17 10.8 C 73 %
1130 09-12-2018 10:00:17 10.8 C 73 %
1131 09-12-2018 10:12:17 10.8 C 73 %
1132 09-12-2018 10:24:17 10.8 C 73 %
1133 09-12-2018 10:36:17 10.8 C 73 %
1134 09-12-2018 10:48:17 10.8 C 73 %
1135 09-12-2018 11:00:17 10.8 C 73 %
1136 09-12-2018 11:12:17 10.8 C 73 %
1137 09-12-2018 11:24:18 10.8 C 73 %
1138 09-12-2018 11:36:17 10.8 C 73 %
1139 09-12-2018 11:48:17 10.8 C 73 %
1140 09-12-2018 12:00:18 10.8 C 73 %
1141 09-12-2018 12:12:18 10.8 C 73 %
1142 09-12-2018 12:24:17 10.8 C 73 %
1143 09-12-2018 12:36:18 10.8 C 73 %
1144 09-12-2018 12:48:17 10.8 C 73 %
1145 09-12-2018 13:00:17 10.8 C 73 %
1146 09-12-2018 13:12:18 10.8 C 73 %
1147 09-12-2018 13:24:17 10.8 C 73 %
1148 09-12-2018 13:36:18 10.8 C 73 %
1149 09-12-2018 13:48:18 10.8 C 73 %
1150 09-12-2018 14:00:18 10.8 C 73 %
Sensor: Nr:Datum:Temp:Feuchte:
G-T/H 1151 09-12-2018 14:12:18 10.8 C 73 %
1152 09-12-2018 14:24:17 10.8 C 73 %
1153 09-12-2018 14:36:17 10.8 C 73 %
1154 09-12-2018 14:48:17 10.8 C 73 %
1155 09-12-2018 15:00:17 10.8 C 73 %
1156 09-12-2018 15:12:17 10.8 C 73 %
1157 09-12-2018 15:24:17 10.8 C 73 %
1158 09-12-2018 15:36:18 10.7 C 73 %
1159 09-12-2018 15:48:17 10.8 C 73 %
1160 09-12-2018 16:00:17 10.8 C 73 %
1161 09-12-2018 16:12:18 10.8 C 73 %
1162 09-12-2018 16:24:17 10.8 C 73 %
1163 09-12-2018 16:36:17 10.8 C 73 %
1164 09-12-2018 16:48:17 10.8 C 73 %
1165 09-12-2018 17:00:17 10.8 C 73 %
1166 09-12-2018 17:12:17 10.7 C 73 %
1167 09-12-2018 17:24:17 10.8 C 73 %
1168 09-12-2018 17:36:17 10.8 C 73 %
1169 09-12-2018 17:48:17 10.8 C 73 %
1170 09-12-2018 18:00:17 10.8 C 73 %
1171 09-12-2018 18:12:17 10.8 C 73 %
1172 09-12-2018 18:24:17 10.8 C 73 %
1173 09-12-2018 18:36:17 10.7 C 73 %
1174 09-12-2018 18:48:17 10.7 C 73 %
1175 09-12-2018 19:00:17 10.8 C 73 %
Sensor: Nr:Datum:Temp:Feuchte:
G-T/H 1176 09-12-2018 19:12:17 10.8 C 72 %
1177 09-12-2018 19:24:17 10.7 C 72 %
1178 09-12-2018 19:36:18 10.7 C 72 %
1179 09-12-2018 19:48:18 10.7 C 72 %
1180 09-12-2018 20:00:17 10.7 C 72 %
1181 09-12-2018 20:12:17 10.7 C 72 %
1182 09-12-2018 20:24:17 10.7 C 72 %
1183 09-12-2018 20:36:17 10.7 C 72 %
1184 09-12-2018 20:48:17 10.7 C 72 %
1185 09-12-2018 21:00:17 10.7 C 72 %
1186 09-12-2018 21:12:17 10.7 C 72 %
1187 09-12-2018 21:24:17 10.7 C 72 %
1188 09-12-2018 21:36:17 10.7 C 72 %
1189 09-12-2018 21:48:17 10.7 C 72 %
1190 09-12-2018 22:00:17 10.7 C 72 %
1191 09-12-2018 22:12:17 10.7 C 72 %
1192 09-12-2018 22:24:17 10.6 C 72 %
1193 09-12-2018 22:36:18 10.7 C 72 %
1194 09-12-2018 22:48:17 10.6 C 72 %
1195 09-12-2018 23:00:17 10.6 C 72 %
1196 09-12-2018 23:12:18 10.7 C 72 %
1197 09-12-2018 23:24:17 10.6 C 72 %
1198 09-12-2018 23:36:17 10.6 C 72 %
1199 09-12-2018 23:48:17 10.6 C 72 %
1200 10-12-2018 00:00:17 10.6 C 72 %
Sensor: Nr:Datum:Temp:Feuchte:
G-T/H 1201 10-12-2018 00:12:17